<?xml version="1.0" encoding="UTF-8" standalone="no" ?>
<gpx xmlns="http://www.topografix.com/GPX/1/1" xmlns:xsi="http://www.w3.org/2001/XMLSchema-instance" xsi:schemaLocation="http://www.topografix.com/GPX/1/1 http://www.topografix.com/GPX/1/1/gpx.xsd" version="1.1" creator="VisuGPX - https://www.visugpx.com">
  <metadata>
    <name>boucle limonest /mont verdun</name>
    <desc><![CDATA[singles sympas, tres peu de bitume
un peu cassant]]></desc>
  </metadata>
  <trk>
    <name><![CDATA[16-NOV-13 12:54:33]]></name>
    <trkseg>
      <trkpt lat="45.8354" lon="4.77138">
        <ele>400.53</ele>
        <time>2013-11-16T08:26:36Z</time>
      </trkpt>
      <trkpt lat="45.83534" lon="4.7714">
        <ele>401.01</ele>
        <time>2013-11-16T08:26:45Z</time>
      </trkpt>
      <trkpt lat="45.83534" lon="4.77142">
        <ele>401.01</ele>
        <time>2013-11-16T08:26:46Z</time>
      </trkpt>
      <trkpt lat="45.83533" lon="4.77163">
        <ele>400.53</ele>
        <time>2013-11-16T08:26:58Z</time>
      </trkpt>
      <trkpt lat="45.83532" lon="4.77168">
        <ele>400.53</ele>
        <time>2013-11-16T08:27:06Z</time>
      </trkpt>
      <trkpt lat="45.83533" lon="4.77168">
        <ele>400.05</ele>
        <time>2013-11-16T08:27:16Z</time>
      </trkpt>
      <trkpt lat="45.83533" lon="4.77169">
        <ele>400.53</ele>
        <time>2013-11-16T08:27:23Z</time>
      </trkpt>
      <trkpt lat="45.83533" lon="4.77168">
        <ele>400.53</ele>
        <time>2013-11-16T08:27:34Z</time>
      </trkpt>
      <trkpt lat="45.83533" lon="4.77169">
        <ele>400.05</ele>
        <time>2013-11-16T08:27:52Z</time>
      </trkpt>
      <trkpt lat="45.83532" lon="4.7717">
        <ele>400.05</ele>
        <time>2013-11-16T08:28:01Z</time>
      </trkpt>
      <trkpt lat="45.83532" lon="4.7717">
        <ele>400.05</ele>
        <time>2013-11-16T08:28:06Z</time>
      </trkpt>
      <trkpt lat="45.83536" lon="4.77168">
        <ele>400.05</ele>
        <time>2013-11-16T08:28:12Z</time>
      </trkpt>
      <trkpt lat="45.83536" lon="4.77168">
        <ele>400.53</ele>
        <time>2013-11-16T08:28:27Z</time>
      </trkpt>
      <trkpt lat="45.83539" lon="4.77155">
        <ele>400.05</ele>
        <time>2013-11-16T08:28:40Z</time>
      </trkpt>
      <trkpt lat="45.83539" lon="4.77155">
        <ele>401.01</ele>
        <time>2013-11-16T08:28:55Z</time>
      </trkpt>
      <trkpt lat="45.83539" lon="4.77155">
        <ele>400.53</ele>
        <time>2013-11-16T08:29:15Z</time>
      </trkpt>
      <trkpt lat="45.83539" lon="4.77155">
        <ele>400.53</ele>
        <time>2013-11-16T08:29:38Z</time>
      </trkpt>
      <trkpt lat="45.8354" lon="4.77155">
        <ele>400.05</ele>
        <time>2013-11-16T08:30:04Z</time>
      </trkpt>
      <trkpt lat="45.8354" lon="4.77155">
        <ele>400.05</ele>
        <time>2013-11-16T08:30:34Z</time>
      </trkpt>
      <trkpt lat="45.8354" lon="4.77155">
        <ele>400.53</ele>
        <time>2013-11-16T08:30:42Z</time>
      </trkpt>
      <trkpt lat="45.8354" lon="4.77156">
        <ele>399.08</ele>
        <time>2013-11-16T08:30:47Z</time>
      </trkpt>
      <trkpt lat="45.8354" lon="4.77156">
        <ele>402.93</ele>
        <time>2013-11-16T08:30:49Z</time>
      </trkpt>
      <trkpt lat="45.8354" lon="4.77156">
        <ele>396.68</ele>
        <time>2013-11-16T08:30:50Z</time>
      </trkpt>
      <trkpt lat="45.8354" lon="4.77156">
        <ele>400.53</ele>
        <time>2013-11-16T08:30:51Z</time>
      </trkpt>
      <trkpt lat="45.8354" lon="4.77156">
        <ele>400.05</ele>
        <time>2013-11-16T08:31:05Z</time>
      </trkpt>
      <trkpt lat="45.83538" lon="4.77165">
        <ele>399.08</ele>
        <time>2013-11-16T08:31:10Z</time>
      </trkpt>
      <trkpt lat="45.83537" lon="4.77173">
        <ele>399.08</ele>
        <time>2013-11-16T08:31:16Z</time>
      </trkpt>
      <trkpt lat="45.83535" lon="4.77175">
        <ele>398.6</ele>
        <time>2013-11-16T08:31:25Z</time>
      </trkpt>
      <trkpt lat="45.83535" lon="4.77175">
        <ele>399.57</ele>
        <time>2013-11-16T08:31:54Z</time>
      </trkpt>
      <trkpt lat="45.83535" lon="4.77175">
        <ele>399.57</ele>
        <time>2013-11-16T08:32:19Z</time>
      </trkpt>
      <trkpt lat="45.83535" lon="4.77175">
        <ele>399.57</ele>
        <time>2013-11-16T08:32:20Z</time>
      </trkpt>
      <trkpt lat="45.83535" lon="4.77162">
        <ele>399.08</ele>
        <time>2013-11-16T08:32:26Z</time>
      </trkpt>
      <trkpt lat="45.83539" lon="4.77152">
        <ele>400.05</ele>
        <time>2013-11-16T08:32:34Z</time>
      </trkpt>
      <trkpt lat="45.83539" lon="4.77152">
        <ele>400.53</ele>
        <time>2013-11-16T08:32:35Z</time>
      </trkpt>
      <trkpt lat="45.8356" lon="4.77153">
        <ele>401.49</ele>
        <time>2013-11-16T08:32:44Z</time>
      </trkpt>
      <trkpt lat="45.83563" lon="4.77154">
        <ele>401.97</ele>
        <time>2013-11-16T08:32:49Z</time>
      </trkpt>
      <trkpt lat="45.83561" lon="4.7715">
        <ele>401.01</ele>
        <time>2013-11-16T08:32:57Z</time>
      </trkpt>
      <trkpt lat="45.83563" lon="4.7715">
        <ele>400.53</ele>
        <time>2013-11-16T08:33:00Z</time>
      </trkpt>
      <trkpt lat="45.83577" lon="4.77154">
        <ele>401.97</ele>
        <time>2013-11-16T08:33:07Z</time>
      </trkpt>
      <trkpt lat="45.83568" lon="4.77163">
        <ele>402.93</ele>
        <time>2013-11-16T08:33:13Z</time>
      </trkpt>
      <trkpt lat="45.83559" lon="4.77163">
        <ele>402.45</ele>
        <time>2013-11-16T08:33:16Z</time>
      </trkpt>
      <trkpt lat="45.83557" lon="4.77162">
        <ele>402.45</ele>
        <time>2013-11-16T08:33:22Z</time>
      </trkpt>
      <trkpt lat="45.83557" lon="4.77162">
        <ele>401.97</ele>
        <time>2013-11-16T08:33:35Z</time>
      </trkpt>
      <trkpt lat="45.83558" lon="4.7716">
        <ele>401.49</ele>
        <time>2013-11-16T08:33:41Z</time>
      </trkpt>
      <trkpt lat="45.83566" lon="4.77162">
        <ele>401.49</ele>
        <time>2013-11-16T08:33:46Z</time>
      </trkpt>
      <trkpt lat="45.83576" lon="4.77161">
        <ele>402.45</ele>
        <time>2013-11-16T08:33:51Z</time>
      </trkpt>
      <trkpt lat="45.83574" lon="4.77152">
        <ele>401.49</ele>
        <time>2013-11-16T08:33:56Z</time>
      </trkpt>
      <trkpt lat="45.83543" lon="4.77152">
        <ele>400.53</ele>
        <time>2013-11-16T08:34:05Z</time>
      </trkpt>
      <trkpt lat="45.83539" lon="4.77151">
        <ele>400.05</ele>
        <time>2013-11-16T08:34:06Z</time>
      </trkpt>
      <trkpt lat="45.83533" lon="4.77149">
        <ele>400.05</ele>
        <time>2013-11-16T08:34:08Z</time>
      </trkpt>
      <trkpt lat="45.83531" lon="4.77151">
        <ele>400.05</ele>
        <time>2013-11-16T08:34:09Z</time>
      </trkpt>
      <trkpt lat="45.8353" lon="4.77155">
        <ele>399.57</ele>
        <time>2013-11-16T08:34:10Z</time>
      </trkpt>
      <trkpt lat="45.83528" lon="4.77166">
        <ele>399.08</ele>
        <time>2013-11-16T08:34:16Z</time>
      </trkpt>
      <trkpt lat="45.83528" lon="4.77166">
        <ele>398.6</ele>
        <time>2013-11-16T08:34:36Z</time>
      </trkpt>
      <trkpt lat="45.83528" lon="4.77166">
        <ele>398.6</ele>
        <time>2013-11-16T08:34:54Z</time>
      </trkpt>
      <trkpt lat="45.8353" lon="4.77173">
        <ele>399.08</ele>
        <time>2013-11-16T08:35:03Z</time>
      </trkpt>
      <trkpt lat="45.83532" lon="4.77174">
        <ele>399.08</ele>
        <time>2013-11-16T08:35:04Z</time>
      </trkpt>
      <trkpt lat="45.83533" lon="4.77173">
        <ele>398.6</ele>
        <time>2013-11-16T08:35:05Z</time>
      </trkpt>
      <trkpt lat="45.83534" lon="4.77172">
        <ele>399.08</ele>
        <time>2013-11-16T08:35:06Z</time>
      </trkpt>
      <trkpt lat="45.83534" lon="4.77171">
        <ele>399.08</ele>
        <time>2013-11-16T08:35:07Z</time>
      </trkpt>
      <trkpt lat="45.83533" lon="4.77169">
        <ele>399.08</ele>
        <time>2013-11-16T08:35:08Z</time>
      </trkpt>
      <trkpt lat="45.83532" lon="4.77167">
        <ele>399.08</ele>
        <time>2013-11-16T08:35:09Z</time>
      </trkpt>
      <trkpt lat="45.83531" lon="4.77166">
        <ele>398.6</ele>
        <time>2013-11-16T08:35:18Z</time>
      </trkpt>
      <trkpt lat="45.8353" lon="4.77165">
        <ele>398.12</ele>
        <time>2013-11-16T08:35:42Z</time>
      </trkpt>
      <trkpt lat="45.83531" lon="4.77162">
        <ele>399.08</ele>
        <time>2013-11-16T08:35:45Z</time>
      </trkpt>
      <trkpt lat="45.83534" lon="4.77161">
        <ele>399.08</ele>
        <time>2013-11-16T08:35:50Z</time>
      </trkpt>
      <trkpt lat="45.83535" lon="4.77163">
        <ele>399.57</ele>
        <time>2013-11-16T08:35:51Z</time>
      </trkpt>
      <trkpt lat="45.83535" lon="4.77166">
        <ele>399.08</ele>
        <time>2013-11-16T08:35:52Z</time>
      </trkpt>
      <trkpt lat="45.83535" lon="4.77171">
        <ele>399.08</ele>
        <time>2013-11-16T08:35:54Z</time>
      </trkpt>
      <trkpt lat="45.83533" lon="4.77172">
        <ele>399.08</ele>
        <time>2013-11-16T08:35:55Z</time>
      </trkpt>
      <trkpt lat="45.83532" lon="4.77171">
        <ele>399.08</ele>
        <time>2013-11-16T08:35:56Z</time>
      </trkpt>
      <trkpt lat="45.8353" lon="4.7717">
        <ele>399.08</ele>
        <time>2013-11-16T08:35:57Z</time>
      </trkpt>
      <trkpt lat="45.83529" lon="4.77168">
        <ele>399.08</ele>
        <time>2013-11-16T08:35:58Z</time>
      </trkpt>
      <trkpt lat="45.83528" lon="4.77166">
        <ele>398.6</ele>
        <time>2013-11-16T08:35:59Z</time>
      </trkpt>
      <trkpt lat="45.83529" lon="4.77166">
        <ele>398.6</ele>
        <time>2013-11-16T08:36:00Z</time>
      </trkpt>
      <trkpt lat="45.8353" lon="4.77167">
        <ele>398.6</ele>
        <time>2013-11-16T08:36:01Z</time>
      </trkpt>
      <trkpt lat="45.83532" lon="4.7717">
        <ele>398.6</ele>
        <time>2013-11-16T08:36:03Z</time>
      </trkpt>
      <trkpt lat="45.83531" lon="4.77171">
        <ele>399.08</ele>
        <time>2013-11-16T08:36:04Z</time>
      </trkpt>
      <trkpt lat="45.8353" lon="4.77171">
        <ele>399.08</ele>
        <time>2013-11-16T08:36:05Z</time>
      </trkpt>
      <trkpt lat="45.8353" lon="4.77169">
        <ele>399.08</ele>
        <time>2013-11-16T08:36:06Z</time>
      </trkpt>
      <trkpt lat="45.83529" lon="4.77167">
        <ele>399.08</ele>
        <time>2013-11-16T08:36:07Z</time>
      </trkpt>
      <trkpt lat="45.8353" lon="4.77165">
        <ele>399.08</ele>
        <time>2013-11-16T08:36:08Z</time>
      </trkpt>
      <trkpt lat="45.83531" lon="4.77165">
        <ele>398.6</ele>
        <time>2013-11-16T08:36:09Z</time>
      </trkpt>
      <trkpt lat="45.83532" lon="4.77167">
        <ele>398.6</ele>
        <time>2013-11-16T08:36:10Z</time>
      </trkpt>
      <trkpt lat="45.83532" lon="4.7717">
        <ele>399.57</ele>
        <time>2013-11-16T08:36:11Z</time>
      </trkpt>
      <trkpt lat="45.83531" lon="4.77171">
        <ele>399.08</ele>
        <time>2013-11-16T08:36:12Z</time>
      </trkpt>
      <trkpt lat="45.83529" lon="4.7717">
        <ele>398.6</ele>
        <time>2013-11-16T08:36:13Z</time>
      </trkpt>
      <trkpt lat="45.83527" lon="4.77167">
        <ele>399.08</ele>
        <time>2013-11-16T08:36:14Z</time>
      </trkpt>
      <trkpt lat="45.83526" lon="4.77165">
        <ele>399.08</ele>
        <time>2013-11-16T08:36:15Z</time>
      </trkpt>
      <trkpt lat="45.83526" lon="4.77162">
        <ele>399.08</ele>
        <time>2013-11-16T08:36:17Z</time>
      </trkpt>
      <trkpt lat="45.83528" lon="4.77159">
        <ele>399.57</ele>
        <time>2013-11-16T08:36:19Z</time>
      </trkpt>
      <trkpt lat="45.83529" lon="4.77149">
        <ele>400.05</ele>
        <time>2013-11-16T08:36:26Z</time>
      </trkpt>
      <trkpt lat="45.83537" lon="4.77149">
        <ele>400.53</ele>
        <time>2013-11-16T08:36:30Z</time>
      </trkpt>
      <trkpt lat="45.83558" lon="4.77148">
        <ele>401.49</ele>
        <time>2013-11-16T08:36:39Z</time>
      </trkpt>
      <trkpt lat="45.83571" lon="4.77156">
        <ele>402.45</ele>
        <time>2013-11-16T08:36:46Z</time>
      </trkpt>
      <trkpt lat="45.83571" lon="4.77156">
        <ele>402.45</ele>
        <time>2013-11-16T08:36:57Z</time>
      </trkpt>
      <trkpt lat="45.83571" lon="4.77156">
        <ele>402.45</ele>
        <time>2013-11-16T08:37:10Z</time>
      </trkpt>
      <trkpt lat="45.83573" lon="4.77156">
        <ele>402.45</ele>
        <time>2013-11-16T08:37:26Z</time>
      </trkpt>
      <trkpt lat="45.83573" lon="4.77156">
        <ele>401.97</ele>
        <time>2013-11-16T08:37:37Z</time>
      </trkpt>
      <trkpt lat="45.83573" lon="4.77156">
        <ele>401.97</ele>
        <time>2013-11-16T08:37:56Z</time>
      </trkpt>
      <trkpt lat="45.83575" lon="4.77156">
        <ele>401.97</ele>
        <time>2013-11-16T08:38:12Z</time>
      </trkpt>
      <trkpt lat="45.83575" lon="4.77156">
        <ele>401.97</ele>
        <time>2013-11-16T08:38:17Z</time>
      </trkpt>
      <trkpt lat="45.83572" lon="4.77161">
        <ele>401.97</ele>
        <time>2013-11-16T08:38:22Z</time>
      </trkpt>
      <trkpt lat="45.83577" lon="4.77182">
        <ele>402.93</ele>
        <time>2013-11-16T08:38:29Z</time>
      </trkpt>
      <trkpt lat="45.83572" lon="4.77204">
        <ele>402.93</ele>
        <time>2013-11-16T08:38:37Z</time>
      </trkpt>
      <trkpt lat="45.83573" lon="4.77216">
        <ele>402.93</ele>
        <time>2013-11-16T08:38:41Z</time>
      </trkpt>
      <trkpt lat="45.83577" lon="4.77223">
        <ele>402.93</ele>
        <time>2013-11-16T08:38:44Z</time>
      </trkpt>
      <trkpt lat="45.83578" lon="4.77237">
        <ele>402.93</ele>
        <time>2013-11-16T08:38:48Z</time>
      </trkpt>
      <trkpt lat="45.83576" lon="4.77247">
        <ele>402.93</ele>
        <time>2013-11-16T08:38:51Z</time>
      </trkpt>
      <trkpt lat="45.83572" lon="4.77257">
        <ele>402.45</ele>
        <time>2013-11-16T08:38:57Z</time>
      </trkpt>
      <trkpt lat="45.83563" lon="4.7726">
        <ele>400.53</ele>
        <time>2013-11-16T08:39:00Z</time>
      </trkpt>
      <trkpt lat="45.83559" lon="4.7726">
        <ele>399.57</ele>
        <time>2013-11-16T08:39:01Z</time>
      </trkpt>
      <trkpt lat="45.83554" lon="4.7726">
        <ele>398.12</ele>
        <time>2013-11-16T08:39:02Z</time>
      </trkpt>
      <trkpt lat="45.83549" lon="4.77262">
        <ele>396.68</ele>
        <time>2013-11-16T08:39:04Z</time>
      </trkpt>
      <trkpt lat="45.83547" lon="4.77265">
        <ele>396.68</ele>
        <time>2013-11-16T08:39:05Z</time>
      </trkpt>
      <trkpt lat="45.83544" lon="4.77268">
        <ele>395.24</ele>
        <time>2013-11-16T08:39:06Z</time>
      </trkpt>
      <trkpt lat="45.83541" lon="4.77269">
        <ele>394.76</ele>
        <time>2013-11-16T08:39:07Z</time>
      </trkpt>
      <trkpt lat="45.83539" lon="4.77267">
        <ele>394.76</ele>
        <time>2013-11-16T08:39:08Z</time>
      </trkpt>
      <trkpt lat="45.83537" lon="4.77267">
        <ele>394.28</ele>
        <time>2013-11-16T08:39:09Z</time>
      </trkpt>
      <trkpt lat="45.83535" lon="4.77268">
        <ele>393.8</ele>
        <time>2013-11-16T08:39:10Z</time>
      </trkpt>
      <trkpt lat="45.83534" lon="4.77271">
        <ele>393.32</ele>
        <time>2013-11-16T08:39:11Z</time>
      </trkpt>
      <trkpt lat="45.8352" lon="4.77289">
        <ele>391.39</ele>
        <time>2013-11-16T08:39:15Z</time>
      </trkpt>
      <trkpt lat="45.83515" lon="4.77294">
        <ele>390.91</ele>
        <time>2013-11-16T08:39:16Z</time>
      </trkpt>
      <trkpt lat="45.83509" lon="4.77298">
        <ele>390.43</ele>
        <time>2013-11-16T08:39:17Z</time>
      </trkpt>
      <trkpt lat="45.83505" lon="4.77302">
        <ele>390.43</ele>
        <time>2013-11-16T08:39:18Z</time>
      </trkpt>
      <trkpt lat="45.83502" lon="4.77308">
        <ele>390.43</ele>
        <time>2013-11-16T08:39:19Z</time>
      </trkpt>
      <trkpt lat="45.83499" lon="4.77314">
        <ele>390.43</ele>
        <time>2013-11-16T08:39:20Z</time>
      </trkpt>
      <trkpt lat="45.83497" lon="4.77319">
        <ele>389.95</ele>
        <time>2013-11-16T08:39:21Z</time>
      </trkpt>
      <trkpt lat="45.83495" lon="4.77324">
        <ele>389.95</ele>
        <time>2013-11-16T08:39:22Z</time>
      </trkpt>
      <trkpt lat="45.83492" lon="4.77326">
        <ele>389.95</ele>
        <time>2013-11-16T08:39:23Z</time>
      </trkpt>
      <trkpt lat="45.83488" lon="4.77326">
        <ele>389.95</ele>
        <time>2013-11-16T08:39:24Z</time>
      </trkpt>
      <trkpt lat="45.83485" lon="4.77324">
        <ele>390.43</ele>
        <time>2013-11-16T08:39:25Z</time>
      </trkpt>
      <trkpt lat="45.83482" lon="4.77321">
        <ele>389.95</ele>
        <time>2013-11-16T08:39:26Z</time>
      </trkpt>
      <trkpt lat="45.83457" lon="4.7729">
        <ele>390.91</ele>
        <time>2013-11-16T08:39:35Z</time>
      </trkpt>
      <trkpt lat="45.83449" lon="4.77286">
        <ele>390.43</ele>
        <time>2013-11-16T08:39:38Z</time>
      </trkpt>
      <trkpt lat="45.83445" lon="4.77286">
        <ele>389.95</ele>
        <time>2013-11-16T08:39:39Z</time>
      </trkpt>
      <trkpt lat="45.83427" lon="4.77288">
        <ele>388.99</ele>
        <time>2013-11-16T08:39:42Z</time>
      </trkpt>
      <trkpt lat="45.8342" lon="4.77287">
        <ele>388.99</ele>
        <time>2013-11-16T08:39:43Z</time>
      </trkpt>
      <trkpt lat="45.83383" lon="4.77279">
        <ele>386.59</ele>
        <time>2013-11-16T08:39:48Z</time>
      </trkpt>
      <trkpt lat="45.83352" lon="4.77273">
        <ele>385.15</ele>
        <time>2013-11-16T08:39:52Z</time>
      </trkpt>
      <trkpt lat="45.83344" lon="4.77276">
        <ele>384.18</ele>
        <time>2013-11-16T08:39:53Z</time>
      </trkpt>
      <trkpt lat="45.83336" lon="4.77281">
        <ele>383.7</ele>
        <time>2013-11-16T08:39:54Z</time>
      </trkpt>
      <trkpt lat="45.83328" lon="4.77288">
        <ele>382.74</ele>
        <time>2013-11-16T08:39:55Z</time>
      </trkpt>
      <trkpt lat="45.83322" lon="4.77297">
        <ele>382.74</ele>
        <time>2013-11-16T08:39:56Z</time>
      </trkpt>
      <trkpt lat="45.83318" lon="4.77307">
        <ele>381.78</ele>
        <time>2013-11-16T08:39:57Z</time>
      </trkpt>
      <trkpt lat="45.83315" lon="4.77319">
        <ele>381.78</ele>
        <time>2013-11-16T08:39:58Z</time>
      </trkpt>
      <trkpt lat="45.83314" lon="4.7733">
        <ele>381.78</ele>
        <time>2013-11-16T08:39:59Z</time>
      </trkpt>
      <trkpt lat="45.83302" lon="4.77384">
        <ele>383.7</ele>
        <time>2013-11-16T08:40:05Z</time>
      </trkpt>
      <trkpt lat="45.83299" lon="4.77388">
        <ele>384.18</ele>
        <time>2013-11-16T08:40:06Z</time>
      </trkpt>
      <trkpt lat="45.83296" lon="4.77391">
        <ele>384.18</ele>
        <time>2013-11-16T08:40:07Z</time>
      </trkpt>
      <trkpt lat="45.83275" lon="4.7742">
        <ele>387.55</ele>
        <time>2013-11-16T08:40:17Z</time>
      </trkpt>
      <trkpt lat="45.8326" lon="4.7746">
        <ele>388.99</ele>
        <time>2013-11-16T08:40:28Z</time>
      </trkpt>
      <trkpt lat="45.83248" lon="4.77496">
        <ele>390.91</ele>
        <time>2013-11-16T08:40:39Z</time>
      </trkpt>
      <trkpt lat="45.83234" lon="4.77534">
        <ele>392.84</ele>
        <time>2013-11-16T08:40:50Z</time>
      </trkpt>
      <trkpt lat="45.83212" lon="4.77566">
        <ele>394.28</ele>
        <time>2013-11-16T08:41:02Z</time>
      </trkpt>
      <trkpt lat="45.83189" lon="4.77574">
        <ele>396.68</ele>
        <time>2013-11-16T08:41:11Z</time>
      </trkpt>
      <trkpt lat="45.83163" lon="4.7759">
        <ele>398.6</ele>
        <time>2013-11-16T08:41:24Z</time>
      </trkpt>
      <trkpt lat="45.83151" lon="4.7762">
        <ele>399.57</ele>
        <time>2013-11-16T08:41:35Z</time>
      </trkpt>
      <trkpt lat="45.83147" lon="4.77658">
        <ele>401.01</ele>
        <time>2013-11-16T08:41:46Z</time>
      </trkpt>
      <trkpt lat="45.83131" lon="4.7769">
        <ele>402.45</ele>
        <time>2013-11-16T08:41:57Z</time>
      </trkpt>
      <trkpt lat="45.83103" lon="4.77708">
        <ele>404.85</ele>
        <time>2013-11-16T08:42:10Z</time>
      </trkpt>
      <trkpt lat="45.83098" lon="4.77711">
        <ele>405.33</ele>
        <time>2013-11-16T08:42:14Z</time>
      </trkpt>
      <trkpt lat="45.83078" lon="4.77711">
        <ele>402.93</ele>
        <time>2013-11-16T08:42:22Z</time>
      </trkpt>
      <trkpt lat="45.83064" lon="4.77716">
        <ele>402.45</ele>
        <time>2013-11-16T08:42:25Z</time>
      </trkpt>
      <trkpt lat="45.83044" lon="4.77721">
        <ele>400.05</ele>
        <time>2013-11-16T08:42:29Z</time>
      </trkpt>
      <trkpt lat="45.83004" lon="4.77733">
        <ele>397.16</ele>
        <time>2013-11-16T08:42:34Z</time>
      </trkpt>
      <trkpt lat="45.82979" lon="4.7774">
        <ele>393.8</ele>
        <time>2013-11-16T08:42:37Z</time>
      </trkpt>
      <trkpt lat="45.8297" lon="4.77741">
        <ele>392.84</ele>
        <time>2013-11-16T08:42:38Z</time>
      </trkpt>
      <trkpt lat="45.82961" lon="4.7774">
        <ele>390.91</ele>
        <time>2013-11-16T08:42:39Z</time>
      </trkpt>
      <trkpt lat="45.82951" lon="4.77738">
        <ele>390.43</ele>
        <time>2013-11-16T08:42:40Z</time>
      </trkpt>
      <trkpt lat="45.82941" lon="4.77735">
        <ele>388.51</ele>
        <time>2013-11-16T08:42:41Z</time>
      </trkpt>
      <trkpt lat="45.82932" lon="4.77732">
        <ele>388.51</ele>
        <time>2013-11-16T08:42:42Z</time>
      </trkpt>
      <trkpt lat="45.82909" lon="4.77719">
        <ele>385.63</ele>
        <time>2013-11-16T08:42:45Z</time>
      </trkpt>
      <trkpt lat="45.82877" lon="4.77702">
        <ele>382.74</ele>
        <time>2013-11-16T08:42:50Z</time>
      </trkpt>
      <trkpt lat="45.82872" lon="4.77698">
        <ele>380.82</ele>
        <time>2013-11-16T08:42:51Z</time>
      </trkpt>
      <trkpt lat="45.82869" lon="4.77694">
        <ele>380.82</ele>
        <time>2013-11-16T08:42:52Z</time>
      </trkpt>
      <trkpt lat="45.82867" lon="4.77688">
        <ele>380.34</ele>
        <time>2013-11-16T08:42:53Z</time>
      </trkpt>
      <trkpt lat="45.82865" lon="4.77682">
        <ele>379.38</ele>
        <time>2013-11-16T08:42:54Z</time>
      </trkpt>
      <trkpt lat="45.82864" lon="4.77677">
        <ele>379.38</ele>
        <time>2013-11-16T08:42:55Z</time>
      </trkpt>
      <trkpt lat="45.82862" lon="4.77672">
        <ele>378.42</ele>
        <time>2013-11-16T08:42:56Z</time>
      </trkpt>
      <trkpt lat="45.82859" lon="4.77669">
        <ele>377.94</ele>
        <time>2013-11-16T08:42:57Z</time>
      </trkpt>
      <trkpt lat="45.82856" lon="4.77668">
        <ele>376.97</ele>
        <time>2013-11-16T08:42:58Z</time>
      </trkpt>
      <trkpt lat="45.82852" lon="4.77668">
        <ele>376.97</ele>
        <time>2013-11-16T08:42:59Z</time>
      </trkpt>
      <trkpt lat="45.82848" lon="4.7767">
        <ele>376.01</ele>
        <time>2013-11-16T08:43:00Z</time>
      </trkpt>
      <trkpt lat="45.82846" lon="4.77672">
        <ele>376.01</ele>
        <time>2013-11-16T08:43:01Z</time>
      </trkpt>
      <trkpt lat="45.82844" lon="4.77676">
        <ele>376.01</ele>
        <time>2013-11-16T08:43:02Z</time>
      </trkpt>
      <trkpt lat="45.82842" lon="4.77678">
        <ele>375.53</ele>
        <time>2013-11-16T08:43:03Z</time>
      </trkpt>
      <trkpt lat="45.8284" lon="4.77681">
        <ele>375.05</ele>
        <time>2013-11-16T08:43:04Z</time>
      </trkpt>
      <trkpt lat="45.82838" lon="4.77684">
        <ele>374.57</ele>
        <time>2013-11-16T08:43:05Z</time>
      </trkpt>
      <trkpt lat="45.82837" lon="4.77688">
        <ele>374.09</ele>
        <time>2013-11-16T08:43:06Z</time>
      </trkpt>
      <trkpt lat="45.82837" lon="4.77692">
        <ele>373.61</ele>
        <time>2013-11-16T08:43:07Z</time>
      </trkpt>
      <trkpt lat="45.82836" lon="4.77696">
        <ele>373.61</ele>
        <time>2013-11-16T08:43:08Z</time>
      </trkpt>
      <trkpt lat="45.82838" lon="4.77719">
        <ele>372.17</ele>
        <time>2013-11-16T08:43:14Z</time>
      </trkpt>
      <trkpt lat="45.82839" lon="4.77722">
        <ele>371.69</ele>
        <time>2013-11-16T08:43:15Z</time>
      </trkpt>
      <trkpt lat="45.82841" lon="4.77727">
        <ele>371.69</ele>
        <time>2013-11-16T08:43:16Z</time>
      </trkpt>
      <trkpt lat="45.82854" lon="4.77753">
        <ele>368.8</ele>
        <time>2013-11-16T08:43:23Z</time>
      </trkpt>
      <trkpt lat="45.82857" lon="4.77757">
        <ele>368.8</ele>
        <time>2013-11-16T08:43:24Z</time>
      </trkpt>
      <trkpt lat="45.82874" lon="4.77768">
        <ele>366.4</ele>
        <time>2013-11-16T08:43:29Z</time>
      </trkpt>
      <trkpt lat="45.82891" lon="4.7778">
        <ele>364.96</ele>
        <time>2013-11-16T08:43:33Z</time>
      </trkpt>
      <trkpt lat="45.82899" lon="4.77789">
        <ele>363.04</ele>
        <time>2013-11-16T08:43:36Z</time>
      </trkpt>
      <trkpt lat="45.82899" lon="4.77792">
        <ele>362.55</ele>
        <time>2013-11-16T08:43:37Z</time>
      </trkpt>
      <trkpt lat="45.82899" lon="4.77794">
        <ele>362.07</ele>
        <time>2013-11-16T08:43:38Z</time>
      </trkpt>
      <trkpt lat="45.82897" lon="4.77796">
        <ele>361.59</ele>
        <time>2013-11-16T08:43:40Z</time>
      </trkpt>
      <trkpt lat="45.82894" lon="4.77795">
        <ele>360.63</ele>
        <time>2013-11-16T08:43:42Z</time>
      </trkpt>
      <trkpt lat="45.8289" lon="4.77804">
        <ele>360.15</ele>
        <time>2013-11-16T08:43:44Z</time>
      </trkpt>
      <trkpt lat="45.82887" lon="4.7781">
        <ele>360.15</ele>
        <time>2013-11-16T08:43:45Z</time>
      </trkpt>
      <trkpt lat="45.82884" lon="4.77815">
        <ele>360.15</ele>
        <time>2013-11-16T08:43:46Z</time>
      </trkpt>
      <trkpt lat="45.82857" lon="4.77858">
        <ele>361.11</ele>
        <time>2013-11-16T08:43:56Z</time>
      </trkpt>
      <trkpt lat="45.82833" lon="4.77868">
        <ele>362.55</ele>
        <time>2013-11-16T08:44:04Z</time>
      </trkpt>
      <trkpt lat="45.82812" lon="4.7787">
        <ele>364.48</ele>
        <time>2013-11-16T08:44:13Z</time>
      </trkpt>
      <trkpt lat="45.82795" lon="4.77872">
        <ele>366.88</ele>
        <time>2013-11-16T08:44:23Z</time>
      </trkpt>
      <trkpt lat="45.8278" lon="4.77875">
        <ele>369.76</ele>
        <time>2013-11-16T08:44:34Z</time>
      </trkpt>
      <trkpt lat="45.82768" lon="4.77881">
        <ele>372.65</ele>
        <time>2013-11-16T08:44:44Z</time>
      </trkpt>
      <trkpt lat="45.82757" lon="4.77883">
        <ele>374.57</ele>
        <time>2013-11-16T08:44:53Z</time>
      </trkpt>
      <trkpt lat="45.82756" lon="4.77884">
        <ele>375.05</ele>
        <time>2013-11-16T08:44:54Z</time>
      </trkpt>
      <trkpt lat="45.82753" lon="4.77883">
        <ele>375.53</ele>
        <time>2013-11-16T08:44:56Z</time>
      </trkpt>
      <trkpt lat="45.82734" lon="4.77885">
        <ele>376.49</ele>
        <time>2013-11-16T08:45:08Z</time>
      </trkpt>
      <trkpt lat="45.82712" lon="4.77889">
        <ele>376.49</ele>
        <time>2013-11-16T08:45:18Z</time>
      </trkpt>
      <trkpt lat="45.82688" lon="4.77891">
        <ele>376.01</ele>
        <time>2013-11-16T08:45:26Z</time>
      </trkpt>
      <trkpt lat="45.82681" lon="4.77892">
        <ele>375.05</ele>
        <time>2013-11-16T08:45:29Z</time>
      </trkpt>
      <trkpt lat="45.82679" lon="4.77892">
        <ele>375.05</ele>
        <time>2013-11-16T08:45:37Z</time>
      </trkpt>
      <trkpt lat="45.82679" lon="4.77892">
        <ele>374.57</ele>
        <time>2013-11-16T08:45:54Z</time>
      </trkpt>
      <trkpt lat="45.82678" lon="4.77892">
        <ele>374.57</ele>
        <time>2013-11-16T08:46:12Z</time>
      </trkpt>
      <trkpt lat="45.82677" lon="4.77893">
        <ele>374.57</ele>
        <time>2013-11-16T08:46:13Z</time>
      </trkpt>
      <trkpt lat="45.82676" lon="4.77894">
        <ele>374.57</ele>
        <time>2013-11-16T08:46:14Z</time>
      </trkpt>
      <trkpt lat="45.82674" lon="4.77897">
        <ele>374.57</ele>
        <time>2013-11-16T08:46:15Z</time>
      </trkpt>
      <trkpt lat="45.82674" lon="4.779">
        <ele>374.57</ele>
        <time>2013-11-16T08:46:16Z</time>
      </trkpt>
      <trkpt lat="45.82674" lon="4.77903">
        <ele>374.57</ele>
        <time>2013-11-16T08:46:17Z</time>
      </trkpt>
      <trkpt lat="45.82674" lon="4.77905">
        <ele>374.57</ele>
        <time>2013-11-16T08:46:18Z</time>
      </trkpt>
      <trkpt lat="45.82675" lon="4.77913">
        <ele>375.53</ele>
        <time>2013-11-16T08:46:23Z</time>
      </trkpt>
      <trkpt lat="45.82675" lon="4.77914">
        <ele>375.05</ele>
        <time>2013-11-16T08:46:24Z</time>
      </trkpt>
      <trkpt lat="45.82674" lon="4.77916">
        <ele>376.49</ele>
        <time>2013-11-16T08:46:25Z</time>
      </trkpt>
      <trkpt lat="45.82674" lon="4.77918">
        <ele>376.49</ele>
        <time>2013-11-16T08:46:26Z</time>
      </trkpt>
      <trkpt lat="45.82674" lon="4.7792">
        <ele>375.53</ele>
        <time>2013-11-16T08:46:27Z</time>
      </trkpt>
      <trkpt lat="45.82674" lon="4.77922">
        <ele>376.49</ele>
        <time>2013-11-16T08:46:28Z</time>
      </trkpt>
      <trkpt lat="45.82674" lon="4.77924">
        <ele>376.49</ele>
        <time>2013-11-16T08:46:29Z</time>
      </trkpt>
      <trkpt lat="45.82674" lon="4.77926">
        <ele>376.01</ele>
        <time>2013-11-16T08:46:30Z</time>
      </trkpt>
      <trkpt lat="45.82674" lon="4.77928">
        <ele>376.49</ele>
        <time>2013-11-16T08:46:31Z</time>
      </trkpt>
      <trkpt lat="45.82674" lon="4.77942">
        <ele>377.94</ele>
        <time>2013-11-16T08:46:38Z</time>
      </trkpt>
      <trkpt lat="45.82674" lon="4.77944">
        <ele>377.94</ele>
        <time>2013-11-16T08:46:39Z</time>
      </trkpt>
      <trkpt lat="45.82674" lon="4.77947">
        <ele>377.94</ele>
        <time>2013-11-16T08:46:40Z</time>
      </trkpt>
      <trkpt lat="45.82674" lon="4.77949">
        <ele>378.42</ele>
        <time>2013-11-16T08:46:41Z</time>
      </trkpt>
      <trkpt lat="45.82673" lon="4.77951">
        <ele>378.42</ele>
        <time>2013-11-16T08:46:42Z</time>
      </trkpt>
      <trkpt lat="45.82673" lon="4.77954">
        <ele>378.9</ele>
        <time>2013-11-16T08:46:43Z</time>
      </trkpt>
      <trkpt lat="45.82671" lon="4.77975">
        <ele>381.3</ele>
        <time>2013-11-16T08:46:51Z</time>
      </trkpt>
      <trkpt lat="45.82671" lon="4.77978">
        <ele>381.3</ele>
        <time>2013-11-16T08:46:52Z</time>
      </trkpt>
      <trkpt lat="45.82671" lon="4.7798">
        <ele>381.3</ele>
        <time>2013-11-16T08:46:53Z</time>
      </trkpt>
      <trkpt lat="45.82668" lon="4.78008">
        <ele>382.26</ele>
        <time>2013-11-16T08:47:03Z</time>
      </trkpt>
      <trkpt lat="45.82668" lon="4.78048">
        <ele>380.82</ele>
        <time>2013-11-16T08:47:15Z</time>
      </trkpt>
      <trkpt lat="45.82667" lon="4.7805">
        <ele>380.82</ele>
        <time>2013-11-16T08:47:23Z</time>
      </trkpt>
      <trkpt lat="45.82667" lon="4.78051">
        <ele>380.82</ele>
        <time>2013-11-16T08:47:25Z</time>
      </trkpt>
      <trkpt lat="45.8267" lon="4.78054">
        <ele>380.82</ele>
        <time>2013-11-16T08:47:27Z</time>
      </trkpt>
      <trkpt lat="45.82671" lon="4.78055">
        <ele>381.3</ele>
        <time>2013-11-16T08:47:28Z</time>
      </trkpt>
      <trkpt lat="45.82673" lon="4.78056">
        <ele>380.82</ele>
        <time>2013-11-16T08:47:29Z</time>
      </trkpt>
      <trkpt lat="45.82674" lon="4.78058">
        <ele>381.78</ele>
        <time>2013-11-16T08:47:30Z</time>
      </trkpt>
      <trkpt lat="45.82676" lon="4.78059">
        <ele>380.82</ele>
        <time>2013-11-16T08:47:31Z</time>
      </trkpt>
      <trkpt lat="45.82676" lon="4.78057">
        <ele>381.78</ele>
        <time>2013-11-16T08:47:37Z</time>
      </trkpt>
      <trkpt lat="45.82676" lon="4.78055">
        <ele>381.78</ele>
        <time>2013-11-16T08:47:38Z</time>
      </trkpt>
      <trkpt lat="45.82674" lon="4.78054">
        <ele>381.78</ele>
        <time>2013-11-16T08:47:39Z</time>
      </trkpt>
      <trkpt lat="45.82672" lon="4.78052">
        <ele>381.3</ele>
        <time>2013-11-16T08:47:40Z</time>
      </trkpt>
      <trkpt lat="45.82669" lon="4.78052">
        <ele>380.82</ele>
        <time>2013-11-16T08:47:41Z</time>
      </trkpt>
      <trkpt lat="45.82635" lon="4.78051">
        <ele>378.9</ele>
        <time>2013-11-16T08:47:48Z</time>
      </trkpt>
      <trkpt lat="45.82605" lon="4.78049">
        <ele>375.53</ele>
        <time>2013-11-16T08:47:52Z</time>
      </trkpt>
      <trkpt lat="45.82595" lon="4.78047">
        <ele>373.61</ele>
        <time>2013-11-16T08:47:56Z</time>
      </trkpt>
      <trkpt lat="45.82597" lon="4.7805">
        <ele>373.61</ele>
        <time>2013-11-16T08:48:08Z</time>
      </trkpt>
      <trkpt lat="45.82598" lon="4.7805">
        <ele>374.09</ele>
        <time>2013-11-16T08:48:19Z</time>
      </trkpt>
      <trkpt lat="45.82599" lon="4.78054">
        <ele>374.09</ele>
        <time>2013-11-16T08:48:24Z</time>
      </trkpt>
      <trkpt lat="45.82599" lon="4.78057">
        <ele>373.13</ele>
        <time>2013-11-16T08:48:25Z</time>
      </trkpt>
      <trkpt lat="45.82598" lon="4.78061">
        <ele>372.65</ele>
        <time>2013-11-16T08:48:26Z</time>
      </trkpt>
      <trkpt lat="45.82596" lon="4.78071">
        <ele>370.73</ele>
        <time>2013-11-16T08:48:29Z</time>
      </trkpt>
      <trkpt lat="45.82595" lon="4.7808">
        <ele>367.36</ele>
        <time>2013-11-16T08:48:31Z</time>
      </trkpt>
      <trkpt lat="45.82594" lon="4.78091">
        <ele>364.48</ele>
        <time>2013-11-16T08:48:34Z</time>
      </trkpt>
      <trkpt lat="45.82594" lon="4.78095">
        <ele>364.48</ele>
        <time>2013-11-16T08:48:35Z</time>
      </trkpt>
      <trkpt lat="45.82602" lon="4.78114">
        <ele>361.11</ele>
        <time>2013-11-16T08:48:39Z</time>
      </trkpt>
      <trkpt lat="45.8263" lon="4.7816">
        <ele>358.71</ele>
        <time>2013-11-16T08:48:46Z</time>
      </trkpt>
      <trkpt lat="45.82667" lon="4.78212">
        <ele>359.67</ele>
        <time>2013-11-16T08:48:57Z</time>
      </trkpt>
      <trkpt lat="45.8267" lon="4.78217">
        <ele>359.67</ele>
        <time>2013-11-16T08:48:58Z</time>
      </trkpt>
      <trkpt lat="45.82673" lon="4.78222">
        <ele>359.67</ele>
        <time>2013-11-16T08:48:59Z</time>
      </trkpt>
      <trkpt lat="45.82676" lon="4.78226">
        <ele>360.15</ele>
        <time>2013-11-16T08:49:00Z</time>
      </trkpt>
      <trkpt lat="45.82678" lon="4.78229">
        <ele>359.67</ele>
        <time>2013-11-16T08:49:01Z</time>
      </trkpt>
      <trkpt lat="45.82681" lon="4.78233">
        <ele>360.15</ele>
        <time>2013-11-16T08:49:02Z</time>
      </trkpt>
      <trkpt lat="45.82684" lon="4.78237">
        <ele>360.15</ele>
        <time>2013-11-16T08:49:03Z</time>
      </trkpt>
      <trkpt lat="45.82693" lon="4.78246">
        <ele>360.15</ele>
        <time>2013-11-16T08:49:09Z</time>
      </trkpt>
      <trkpt lat="45.82695" lon="4.78246">
        <ele>360.63</ele>
        <time>2013-11-16T08:49:15Z</time>
      </trkpt>
      <trkpt lat="45.82698" lon="4.78247">
        <ele>360.63</ele>
        <time>2013-11-16T08:49:23Z</time>
      </trkpt>
      <trkpt lat="45.82698" lon="4.78247">
        <ele>361.11</ele>
        <time>2013-11-16T08:49:28Z</time>
      </trkpt>
      <trkpt lat="45.82699" lon="4.78248">
        <ele>361.11</ele>
        <time>2013-11-16T08:49:29Z</time>
      </trkpt>
      <trkpt lat="45.827" lon="4.7825">
        <ele>361.11</ele>
        <time>2013-11-16T08:49:30Z</time>
      </trkpt>
      <trkpt lat="45.82702" lon="4.78252">
        <ele>361.59</ele>
        <time>2013-11-16T08:49:32Z</time>
      </trkpt>
      <trkpt lat="45.82702" lon="4.78256">
        <ele>362.07</ele>
        <time>2013-11-16T08:49:34Z</time>
      </trkpt>
      <trkpt lat="45.82701" lon="4.78261">
        <ele>361.59</ele>
        <time>2013-11-16T08:49:37Z</time>
      </trkpt>
      <trkpt lat="45.827" lon="4.78262">
        <ele>362.07</ele>
        <time>2013-11-16T08:49:38Z</time>
      </trkpt>
      <trkpt lat="45.82693" lon="4.78273">
        <ele>362.55</ele>
        <time>2013-11-16T08:49:46Z</time>
      </trkpt>
      <trkpt lat="45.8268" lon="4.78278">
        <ele>363.52</ele>
        <time>2013-11-16T08:49:56Z</time>
      </trkpt>
      <trkpt lat="45.82677" lon="4.78278">
        <ele>363.52</ele>
        <time>2013-11-16T08:49:58Z</time>
      </trkpt>
      <trkpt lat="45.82675" lon="4.78279">
        <ele>364</ele>
        <time>2013-11-16T08:49:59Z</time>
      </trkpt>
      <trkpt lat="45.82673" lon="4.7828">
        <ele>364</ele>
        <time>2013-11-16T08:50:00Z</time>
      </trkpt>
      <trkpt lat="45.82657" lon="4.78284">
        <ele>364.48</ele>
        <time>2013-11-16T08:50:10Z</time>
      </trkpt>
      <trkpt lat="45.82655" lon="4.78285">
        <ele>364.48</ele>
        <time>2013-11-16T08:50:11Z</time>
      </trkpt>
      <trkpt lat="45.82653" lon="4.78285">
        <ele>364.96</ele>
        <time>2013-11-16T08:50:12Z</time>
      </trkpt>
      <trkpt lat="45.82652" lon="4.78285">
        <ele>364.96</ele>
        <time>2013-11-16T08:50:13Z</time>
      </trkpt>
      <trkpt lat="45.8265" lon="4.78285">
        <ele>364.96</ele>
        <time>2013-11-16T08:50:14Z</time>
      </trkpt>
      <trkpt lat="45.82635" lon="4.78293">
        <ele>365.92</ele>
        <time>2013-11-16T08:50:23Z</time>
      </trkpt>
      <trkpt lat="45.82627" lon="4.783">
        <ele>367.36</ele>
        <time>2013-11-16T08:50:28Z</time>
      </trkpt>
      <trkpt lat="45.82626" lon="4.78302">
        <ele>367.36</ele>
        <time>2013-11-16T08:50:29Z</time>
      </trkpt>
      <trkpt lat="45.82625" lon="4.78303">
        <ele>366.88</ele>
        <time>2013-11-16T08:50:30Z</time>
      </trkpt>
      <trkpt lat="45.82622" lon="4.78311">
        <ele>367.84</ele>
        <time>2013-11-16T08:50:35Z</time>
      </trkpt>
      <trkpt lat="45.82622" lon="4.78313">
        <ele>368.8</ele>
        <time>2013-11-16T08:50:36Z</time>
      </trkpt>
      <trkpt lat="45.82622" lon="4.78318">
        <ele>369.76</ele>
        <time>2013-11-16T08:50:44Z</time>
      </trkpt>
      <trkpt lat="45.82621" lon="4.78325">
        <ele>371.21</ele>
        <time>2013-11-16T08:50:54Z</time>
      </trkpt>
      <trkpt lat="45.82621" lon="4.7833">
        <ele>371.69</ele>
        <time>2013-11-16T08:51:04Z</time>
      </trkpt>
      <trkpt lat="45.82621" lon="4.78337">
        <ele>373.13</ele>
        <time>2013-11-16T08:51:15Z</time>
      </trkpt>
      <trkpt lat="45.82619" lon="4.78346">
        <ele>374.57</ele>
        <time>2013-11-16T08:51:23Z</time>
      </trkpt>
      <trkpt lat="45.82615" lon="4.78353">
        <ele>375.05</ele>
        <time>2013-11-16T08:51:31Z</time>
      </trkpt>
      <trkpt lat="45.82615" lon="4.78357">
        <ele>376.01</ele>
        <time>2013-11-16T08:51:39Z</time>
      </trkpt>
      <trkpt lat="45.82615" lon="4.78357">
        <ele>376.01</ele>
        <time>2013-11-16T08:51:53Z</time>
      </trkpt>
      <trkpt lat="45.82615" lon="4.78367">
        <ele>376.01</ele>
        <time>2013-11-16T08:52:03Z</time>
      </trkpt>
      <trkpt lat="45.82615" lon="4.7837">
        <ele>375.53</ele>
        <time>2013-11-16T08:52:04Z</time>
      </trkpt>
      <trkpt lat="45.82614" lon="4.78373">
        <ele>375.05</ele>
        <time>2013-11-16T08:52:05Z</time>
      </trkpt>
      <trkpt lat="45.82614" lon="4.78377">
        <ele>375.05</ele>
        <time>2013-11-16T08:52:06Z</time>
      </trkpt>
      <trkpt lat="45.82615" lon="4.78382">
        <ele>374.09</ele>
        <time>2013-11-16T08:52:07Z</time>
      </trkpt>
      <trkpt lat="45.82616" lon="4.78389">
        <ele>373.13</ele>
        <time>2013-11-16T08:52:08Z</time>
      </trkpt>
      <trkpt lat="45.82617" lon="4.78397">
        <ele>372.65</ele>
        <time>2013-11-16T08:52:09Z</time>
      </trkpt>
      <trkpt lat="45.82619" lon="4.78405">
        <ele>371.21</ele>
        <time>2013-11-16T08:52:10Z</time>
      </trkpt>
      <trkpt lat="45.82621" lon="4.78412">
        <ele>371.21</ele>
        <time>2013-11-16T08:52:11Z</time>
      </trkpt>
      <trkpt lat="45.82623" lon="4.78419">
        <ele>370.73</ele>
        <time>2013-11-16T08:52:12Z</time>
      </trkpt>
      <trkpt lat="45.82626" lon="4.78425">
        <ele>370.24</ele>
        <time>2013-11-16T08:52:13Z</time>
      </trkpt>
      <trkpt lat="45.82628" lon="4.78432">
        <ele>370.24</ele>
        <time>2013-11-16T08:52:14Z</time>
      </trkpt>
      <trkpt lat="45.8263" lon="4.7844">
        <ele>369.28</ele>
        <time>2013-11-16T08:52:15Z</time>
      </trkpt>
      <trkpt lat="45.82642" lon="4.78482">
        <ele>368.8</ele>
        <time>2013-11-16T08:52:22Z</time>
      </trkpt>
      <trkpt lat="45.82645" lon="4.78489">
        <ele>369.28</ele>
        <time>2013-11-16T08:52:23Z</time>
      </trkpt>
      <trkpt lat="45.82651" lon="4.78503">
        <ele>368.8</ele>
        <time>2013-11-16T08:52:25Z</time>
      </trkpt>
      <trkpt lat="45.82657" lon="4.78515">
        <ele>368.32</ele>
        <time>2013-11-16T08:52:27Z</time>
      </trkpt>
      <trkpt lat="45.82668" lon="4.78537">
        <ele>369.28</ele>
        <time>2013-11-16T08:52:31Z</time>
      </trkpt>
      <trkpt lat="45.82685" lon="4.7858">
        <ele>369.76</ele>
        <time>2013-11-16T08:52:40Z</time>
      </trkpt>
      <trkpt lat="45.82692" lon="4.7861">
        <ele>371.21</ele>
        <time>2013-11-16T08:52:48Z</time>
      </trkpt>
      <trkpt lat="45.82692" lon="4.78616">
        <ele>371.21</ele>
        <time>2013-11-16T08:52:50Z</time>
      </trkpt>
      <trkpt lat="45.82701" lon="4.78632">
        <ele>373.13</ele>
        <time>2013-11-16T08:52:59Z</time>
      </trkpt>
      <trkpt lat="45.827" lon="4.78635">
        <ele>373.61</ele>
        <time>2013-11-16T08:53:01Z</time>
      </trkpt>
      <trkpt lat="45.82702" lon="4.78638">
        <ele>374.57</ele>
        <time>2013-11-16T08:53:03Z</time>
      </trkpt>
      <trkpt lat="45.82702" lon="4.78646">
        <ele>375.53</ele>
        <time>2013-11-16T08:53:09Z</time>
      </trkpt>
      <trkpt lat="45.82701" lon="4.78649">
        <ele>375.05</ele>
        <time>2013-11-16T08:53:10Z</time>
      </trkpt>
      <trkpt lat="45.82701" lon="4.78653">
        <ele>376.01</ele>
        <time>2013-11-16T08:53:18Z</time>
      </trkpt>
      <trkpt lat="45.827" lon="4.78663">
        <ele>377.45</ele>
        <time>2013-11-16T08:53:28Z</time>
      </trkpt>
      <trkpt lat="45.82696" lon="4.7867">
        <ele>378.42</ele>
        <time>2013-11-16T08:53:38Z</time>
      </trkpt>
      <trkpt lat="45.82693" lon="4.78677">
        <ele>379.38</ele>
        <time>2013-11-16T08:53:47Z</time>
      </trkpt>
      <trkpt lat="45.82688" lon="4.78683">
        <ele>380.82</ele>
        <time>2013-11-16T08:53:57Z</time>
      </trkpt>
      <trkpt lat="45.82683" lon="4.78686">
        <ele>382.74</ele>
        <time>2013-11-16T08:54:07Z</time>
      </trkpt>
      <trkpt lat="45.82681" lon="4.78687">
        <ele>382.74</ele>
        <time>2013-11-16T08:54:10Z</time>
      </trkpt>
      <trkpt lat="45.82679" lon="4.78695">
        <ele>383.22</ele>
        <time>2013-11-16T08:54:16Z</time>
      </trkpt>
      <trkpt lat="45.82677" lon="4.78702">
        <ele>384.66</ele>
        <time>2013-11-16T08:54:22Z</time>
      </trkpt>
      <trkpt lat="45.82675" lon="4.78704">
        <ele>384.66</ele>
        <time>2013-11-16T08:54:24Z</time>
      </trkpt>
      <trkpt lat="45.82673" lon="4.78708">
        <ele>385.15</ele>
        <time>2013-11-16T08:54:28Z</time>
      </trkpt>
      <trkpt lat="45.82671" lon="4.7872">
        <ele>386.11</ele>
        <time>2013-11-16T08:54:37Z</time>
      </trkpt>
      <trkpt lat="45.82669" lon="4.78732">
        <ele>387.55</ele>
        <time>2013-11-16T08:54:46Z</time>
      </trkpt>
      <trkpt lat="45.82669" lon="4.7874">
        <ele>388.03</ele>
        <time>2013-11-16T08:54:55Z</time>
      </trkpt>
      <trkpt lat="45.82669" lon="4.7874">
        <ele>388.03</ele>
        <time>2013-11-16T08:55:06Z</time>
      </trkpt>
      <trkpt lat="45.82669" lon="4.7874">
        <ele>388.03</ele>
        <time>2013-11-16T08:55:20Z</time>
      </trkpt>
      <trkpt lat="45.82669" lon="4.7874">
        <ele>388.03</ele>
        <time>2013-11-16T08:55:43Z</time>
      </trkpt>
      <trkpt lat="45.82672" lon="4.78739">
        <ele>388.03</ele>
        <time>2013-11-16T08:55:56Z</time>
      </trkpt>
      <trkpt lat="45.82673" lon="4.78739">
        <ele>388.03</ele>
        <time>2013-11-16T08:55:57Z</time>
      </trkpt>
      <trkpt lat="45.82684" lon="4.78727">
        <ele>388.51</ele>
        <time>2013-11-16T08:56:05Z</time>
      </trkpt>
      <trkpt lat="45.82699" lon="4.78707">
        <ele>388.99</ele>
        <time>2013-11-16T08:56:14Z</time>
      </trkpt>
      <trkpt lat="45.8272" lon="4.78688">
        <ele>389.95</ele>
        <time>2013-11-16T08:56:24Z</time>
      </trkpt>
      <trkpt lat="45.8274" lon="4.78681">
        <ele>390.43</ele>
        <time>2013-11-16T08:56:32Z</time>
      </trkpt>
      <trkpt lat="45.8276" lon="4.78676">
        <ele>391.87</ele>
        <time>2013-11-16T08:56:40Z</time>
      </trkpt>
      <trkpt lat="45.82789" lon="4.78665">
        <ele>393.32</ele>
        <time>2013-11-16T08:56:50Z</time>
      </trkpt>
      <trkpt lat="45.82809" lon="4.78641">
        <ele>393.32</ele>
        <time>2013-11-16T08:56:59Z</time>
      </trkpt>
      <trkpt lat="45.82812" lon="4.78604">
        <ele>394.76</ele>
        <time>2013-11-16T08:57:08Z</time>
      </trkpt>
      <trkpt lat="45.82797" lon="4.78562">
        <ele>394.76</ele>
        <time>2013-11-16T08:57:19Z</time>
      </trkpt>
      <trkpt lat="45.82786" lon="4.78527">
        <ele>395.72</ele>
        <time>2013-11-16T08:57:27Z</time>
      </trkpt>
      <trkpt lat="45.82787" lon="4.78487">
        <ele>396.2</ele>
        <time>2013-11-16T08:57:37Z</time>
      </trkpt>
      <trkpt lat="45.82801" lon="4.78464">
        <ele>396.68</ele>
        <time>2013-11-16T08:57:46Z</time>
      </trkpt>
      <trkpt lat="45.82812" lon="4.78456">
        <ele>397.16</ele>
        <time>2013-11-16T08:57:53Z</time>
      </trkpt>
      <trkpt lat="45.82813" lon="4.78456">
        <ele>397.64</ele>
        <time>2013-11-16T08:57:54Z</time>
      </trkpt>
      <trkpt lat="45.82815" lon="4.78458">
        <ele>397.64</ele>
        <time>2013-11-16T08:57:55Z</time>
      </trkpt>
      <trkpt lat="45.82817" lon="4.78459">
        <ele>398.12</ele>
        <time>2013-11-16T08:57:56Z</time>
      </trkpt>
      <trkpt lat="45.82818" lon="4.78459">
        <ele>398.12</ele>
        <time>2013-11-16T08:57:57Z</time>
      </trkpt>
      <trkpt lat="45.82824" lon="4.78463">
        <ele>400.05</ele>
        <time>2013-11-16T08:58:04Z</time>
      </trkpt>
      <trkpt lat="45.82826" lon="4.78463">
        <ele>400.53</ele>
        <time>2013-11-16T08:58:05Z</time>
      </trkpt>
      <trkpt lat="45.8283" lon="4.78464">
        <ele>401.97</ele>
        <time>2013-11-16T08:58:10Z</time>
      </trkpt>
      <trkpt lat="45.82835" lon="4.78465">
        <ele>402.93</ele>
        <time>2013-11-16T08:58:14Z</time>
      </trkpt>
      <trkpt lat="45.82847" lon="4.78473">
        <ele>405.33</ele>
        <time>2013-11-16T08:58:23Z</time>
      </trkpt>
      <trkpt lat="45.82857" lon="4.78481">
        <ele>407.74</ele>
        <time>2013-11-16T08:58:33Z</time>
      </trkpt>
      <trkpt lat="45.82862" lon="4.78487">
        <ele>409.18</ele>
        <time>2013-11-16T08:58:45Z</time>
      </trkpt>
      <trkpt lat="45.82867" lon="4.78495">
        <ele>410.62</ele>
        <time>2013-11-16T08:58:58Z</time>
      </trkpt>
      <trkpt lat="45.82875" lon="4.78503">
        <ele>411.58</ele>
        <time>2013-11-16T08:59:10Z</time>
      </trkpt>
      <trkpt lat="45.82878" lon="4.78506">
        <ele>411.58</ele>
        <time>2013-11-16T08:59:13Z</time>
      </trkpt>
      <trkpt lat="45.82878" lon="4.78508">
        <ele>412.54</ele>
        <time>2013-11-16T08:59:14Z</time>
      </trkpt>
      <trkpt lat="45.82878" lon="4.7851">
        <ele>412.54</ele>
        <time>2013-11-16T08:59:15Z</time>
      </trkpt>
      <trkpt lat="45.82878" lon="4.78512">
        <ele>412.06</ele>
        <time>2013-11-16T08:59:16Z</time>
      </trkpt>
      <trkpt lat="45.82878" lon="4.78513">
        <ele>413.02</ele>
        <time>2013-11-16T08:59:17Z</time>
      </trkpt>
      <trkpt lat="45.82879" lon="4.78514">
        <ele>413.02</ele>
        <time>2013-11-16T08:59:18Z</time>
      </trkpt>
      <trkpt lat="45.82882" lon="4.78515">
        <ele>413.5</ele>
        <time>2013-11-16T08:59:21Z</time>
      </trkpt>
      <trkpt lat="45.82883" lon="4.78514">
        <ele>413.98</ele>
        <time>2013-11-16T08:59:22Z</time>
      </trkpt>
      <trkpt lat="45.82885" lon="4.78513">
        <ele>413.98</ele>
        <time>2013-11-16T08:59:23Z</time>
      </trkpt>
      <trkpt lat="45.82898" lon="4.78511">
        <ele>415.91</ele>
        <time>2013-11-16T08:59:35Z</time>
      </trkpt>
      <trkpt lat="45.8291" lon="4.78509">
        <ele>417.83</ele>
        <time>2013-11-16T08:59:47Z</time>
      </trkpt>
      <trkpt lat="45.82923" lon="4.78507">
        <ele>419.75</ele>
        <time>2013-11-16T08:59:58Z</time>
      </trkpt>
      <trkpt lat="45.82926" lon="4.78508">
        <ele>419.75</ele>
        <time>2013-11-16T09:00:00Z</time>
      </trkpt>
      <trkpt lat="45.82927" lon="4.78509">
        <ele>420.23</ele>
        <time>2013-11-16T09:00:01Z</time>
      </trkpt>
      <trkpt lat="45.82928" lon="4.78511">
        <ele>420.71</ele>
        <time>2013-11-16T09:00:02Z</time>
      </trkpt>
      <trkpt lat="45.82928" lon="4.78512">
        <ele>420.71</ele>
        <time>2013-11-16T09:00:03Z</time>
      </trkpt>
      <trkpt lat="45.82928" lon="4.78514">
        <ele>420.71</ele>
        <time>2013-11-16T09:00:04Z</time>
      </trkpt>
      <trkpt lat="45.82928" lon="4.78516">
        <ele>421.19</ele>
        <time>2013-11-16T09:00:05Z</time>
      </trkpt>
      <trkpt lat="45.82928" lon="4.78524">
        <ele>421.68</ele>
        <time>2013-11-16T09:00:10Z</time>
      </trkpt>
      <trkpt lat="45.82929" lon="4.78526">
        <ele>422.16</ele>
        <time>2013-11-16T09:00:11Z</time>
      </trkpt>
      <trkpt lat="45.8293" lon="4.78527">
        <ele>422.16</ele>
        <time>2013-11-16T09:00:12Z</time>
      </trkpt>
      <trkpt lat="45.82931" lon="4.78529">
        <ele>422.16</ele>
        <time>2013-11-16T09:00:13Z</time>
      </trkpt>
      <trkpt lat="45.82931" lon="4.7853">
        <ele>422.16</ele>
        <time>2013-11-16T09:00:14Z</time>
      </trkpt>
      <trkpt lat="45.82932" lon="4.78532">
        <ele>422.64</ele>
        <time>2013-11-16T09:00:15Z</time>
      </trkpt>
      <trkpt lat="45.82933" lon="4.78533">
        <ele>422.64</ele>
        <time>2013-11-16T09:00:16Z</time>
      </trkpt>
      <trkpt lat="45.82934" lon="4.78534">
        <ele>423.12</ele>
        <time>2013-11-16T09:00:17Z</time>
      </trkpt>
      <trkpt lat="45.82935" lon="4.78535">
        <ele>423.12</ele>
        <time>2013-11-16T09:00:18Z</time>
      </trkpt>
      <trkpt lat="45.82936" lon="4.78536">
        <ele>423.6</ele>
        <time>2013-11-16T09:00:19Z</time>
      </trkpt>
      <trkpt lat="45.82943" lon="4.7854">
        <ele>425.04</ele>
        <time>2013-11-16T09:00:27Z</time>
      </trkpt>
      <trkpt lat="45.82944" lon="4.7854">
        <ele>425.04</ele>
        <time>2013-11-16T09:00:28Z</time>
      </trkpt>
      <trkpt lat="45.82946" lon="4.78539">
        <ele>425.04</ele>
        <time>2013-11-16T09:00:29Z</time>
      </trkpt>
      <trkpt lat="45.82961" lon="4.78539">
        <ele>427.44</ele>
        <time>2013-11-16T09:00:40Z</time>
      </trkpt>
      <trkpt lat="45.82971" lon="4.78536">
        <ele>429.85</ele>
        <time>2013-11-16T09:00:49Z</time>
      </trkpt>
      <trkpt lat="45.82974" lon="4.78534">
        <ele>429.85</ele>
        <time>2013-11-16T09:00:51Z</time>
      </trkpt>
      <trkpt lat="45.8298" lon="4.78534">
        <ele>430.81</ele>
        <time>2013-11-16T09:00:57Z</time>
      </trkpt>
      <trkpt lat="45.82983" lon="4.78534">
        <ele>431.29</ele>
        <time>2013-11-16T09:00:59Z</time>
      </trkpt>
      <trkpt lat="45.82984" lon="4.78533">
        <ele>431.77</ele>
        <time>2013-11-16T09:01:00Z</time>
      </trkpt>
      <trkpt lat="45.82985" lon="4.78532">
        <ele>431.77</ele>
        <time>2013-11-16T09:01:01Z</time>
      </trkpt>
      <trkpt lat="45.82988" lon="4.78531">
        <ele>432.73</ele>
        <time>2013-11-16T09:01:03Z</time>
      </trkpt>
      <trkpt lat="45.82999" lon="4.7853">
        <ele>434.65</ele>
        <time>2013-11-16T09:01:11Z</time>
      </trkpt>
      <trkpt lat="45.83001" lon="4.78529">
        <ele>434.65</ele>
        <time>2013-11-16T09:01:12Z</time>
      </trkpt>
      <trkpt lat="45.83002" lon="4.78529">
        <ele>434.65</ele>
        <time>2013-11-16T09:01:13Z</time>
      </trkpt>
      <trkpt lat="45.83003" lon="4.78529">
        <ele>435.13</ele>
        <time>2013-11-16T09:01:14Z</time>
      </trkpt>
      <trkpt lat="45.83007" lon="4.78531">
        <ele>435.61</ele>
        <time>2013-11-16T09:01:17Z</time>
      </trkpt>
      <trkpt lat="45.83008" lon="4.78532">
        <ele>435.61</ele>
        <time>2013-11-16T09:01:18Z</time>
      </trkpt>
      <trkpt lat="45.83009" lon="4.78533">
        <ele>436.1</ele>
        <time>2013-11-16T09:01:20Z</time>
      </trkpt>
      <trkpt lat="45.83011" lon="4.78534">
        <ele>436.58</ele>
        <time>2013-11-16T09:01:22Z</time>
      </trkpt>
      <trkpt lat="45.83013" lon="4.78534">
        <ele>437.06</ele>
        <time>2013-11-16T09:01:23Z</time>
      </trkpt>
      <trkpt lat="45.83015" lon="4.78534">
        <ele>437.54</ele>
        <time>2013-11-16T09:01:25Z</time>
      </trkpt>
      <trkpt lat="45.83016" lon="4.78535">
        <ele>438.02</ele>
        <time>2013-11-16T09:01:26Z</time>
      </trkpt>
      <trkpt lat="45.83017" lon="4.78536">
        <ele>438.02</ele>
        <time>2013-11-16T09:01:27Z</time>
      </trkpt>
      <trkpt lat="45.83019" lon="4.7854">
        <ele>438.98</ele>
        <time>2013-11-16T09:01:30Z</time>
      </trkpt>
      <trkpt lat="45.8302" lon="4.7854">
        <ele>439.46</ele>
        <time>2013-11-16T09:01:31Z</time>
      </trkpt>
      <trkpt lat="45.83024" lon="4.78541">
        <ele>439.94</ele>
        <time>2013-11-16T09:01:34Z</time>
      </trkpt>
      <trkpt lat="45.83024" lon="4.78542">
        <ele>440.42</ele>
        <time>2013-11-16T09:01:35Z</time>
      </trkpt>
      <trkpt lat="45.83025" lon="4.78544">
        <ele>440.9</ele>
        <time>2013-11-16T09:01:36Z</time>
      </trkpt>
      <trkpt lat="45.83027" lon="4.78547">
        <ele>441.38</ele>
        <time>2013-11-16T09:01:45Z</time>
      </trkpt>
      <trkpt lat="45.83027" lon="4.78547">
        <ele>441.38</ele>
        <time>2013-11-16T09:02:02Z</time>
      </trkpt>
      <trkpt lat="45.83028" lon="4.78548">
        <ele>436.1</ele>
        <time>2013-11-16T09:02:06Z</time>
      </trkpt>
      <trkpt lat="45.83028" lon="4.78548">
        <ele>450.03</ele>
        <time>2013-11-16T09:02:07Z</time>
      </trkpt>
      <trkpt lat="45.83028" lon="4.78548">
        <ele>440.42</ele>
        <time>2013-11-16T09:02:08Z</time>
      </trkpt>
      <trkpt lat="45.83028" lon="4.78549">
        <ele>441.38</ele>
        <time>2013-11-16T09:02:31Z</time>
      </trkpt>
      <trkpt lat="45.83028" lon="4.78549">
        <ele>441.86</ele>
        <time>2013-11-16T09:02:52Z</time>
      </trkpt>
      <trkpt lat="45.83028" lon="4.78549">
        <ele>442.82</ele>
        <time>2013-11-16T09:03:13Z</time>
      </trkpt>
      <trkpt lat="45.83029" lon="4.78549">
        <ele>442.82</ele>
        <time>2013-11-16T09:03:33Z</time>
      </trkpt>
      <trkpt lat="45.83029" lon="4.78549">
        <ele>442.82</ele>
        <time>2013-11-16T09:03:51Z</time>
      </trkpt>
      <trkpt lat="45.83029" lon="4.78549">
        <ele>442.82</ele>
        <time>2013-11-16T09:04:11Z</time>
      </trkpt>
      <trkpt lat="45.83029" lon="4.7855">
        <ele>442.34</ele>
        <time>2013-11-16T09:04:26Z</time>
      </trkpt>
      <trkpt lat="45.83029" lon="4.7855">
        <ele>442.34</ele>
        <time>2013-11-16T09:04:36Z</time>
      </trkpt>
      <trkpt lat="45.83029" lon="4.7855">
        <ele>441.86</ele>
        <time>2013-11-16T09:05:04Z</time>
      </trkpt>
      <trkpt lat="45.83029" lon="4.7855">
        <ele>441.86</ele>
        <time>2013-11-16T09:05:28Z</time>
      </trkpt>
      <trkpt lat="45.83029" lon="4.7855">
        <ele>442.34</ele>
        <time>2013-11-16T09:05:44Z</time>
      </trkpt>
      <trkpt lat="45.83029" lon="4.7855">
        <ele>442.82</ele>
        <time>2013-11-16T09:06:08Z</time>
      </trkpt>
      <trkpt lat="45.83029" lon="4.7855">
        <ele>442.34</ele>
        <time>2013-11-16T09:06:28Z</time>
      </trkpt>
      <trkpt lat="45.83029" lon="4.7855">
        <ele>442.34</ele>
        <time>2013-11-16T09:06:52Z</time>
      </trkpt>
      <trkpt lat="45.83029" lon="4.7855">
        <ele>442.82</ele>
        <time>2013-11-16T09:07:16Z</time>
      </trkpt>
      <trkpt lat="45.83029" lon="4.7855">
        <ele>442.34</ele>
        <time>2013-11-16T09:07:34Z</time>
      </trkpt>
      <trkpt lat="45.83029" lon="4.78551">
        <ele>442.34</ele>
        <time>2013-11-16T09:07:51Z</time>
      </trkpt>
      <trkpt lat="45.83029" lon="4.78551">
        <ele>441.86</ele>
        <time>2013-11-16T09:08:07Z</time>
      </trkpt>
      <trkpt lat="45.8303" lon="4.78551">
        <ele>442.34</ele>
        <time>2013-11-16T09:08:26Z</time>
      </trkpt>
      <trkpt lat="45.8303" lon="4.78551">
        <ele>442.34</ele>
        <time>2013-11-16T09:08:47Z</time>
      </trkpt>
      <trkpt lat="45.83031" lon="4.78549">
        <ele>442.82</ele>
        <time>2013-11-16T09:09:00Z</time>
      </trkpt>
      <trkpt lat="45.83035" lon="4.78552">
        <ele>444.75</ele>
        <time>2013-11-16T09:09:08Z</time>
      </trkpt>
      <trkpt lat="45.83042" lon="4.78555">
        <ele>447.63</ele>
        <time>2013-11-16T09:09:18Z</time>
      </trkpt>
      <trkpt lat="45.83049" lon="4.78561">
        <ele>449.55</ele>
        <time>2013-11-16T09:09:30Z</time>
      </trkpt>
      <trkpt lat="45.83054" lon="4.78563">
        <ele>451</ele>
        <time>2013-11-16T09:09:39Z</time>
      </trkpt>
      <trkpt lat="45.83057" lon="4.78565">
        <ele>452.44</ele>
        <time>2013-11-16T09:09:47Z</time>
      </trkpt>
      <trkpt lat="45.83062" lon="4.7857">
        <ele>453.88</ele>
        <time>2013-11-16T09:09:56Z</time>
      </trkpt>
      <trkpt lat="45.83066" lon="4.78574">
        <ele>456.28</ele>
        <time>2013-11-16T09:10:08Z</time>
      </trkpt>
      <trkpt lat="45.83068" lon="4.78574">
        <ele>456.76</ele>
        <time>2013-11-16T09:10:21Z</time>
      </trkpt>
      <trkpt lat="45.83072" lon="4.78577">
        <ele>458.21</ele>
        <time>2013-11-16T09:10:32Z</time>
      </trkpt>
      <trkpt lat="45.83077" lon="4.78581">
        <ele>460.61</ele>
        <time>2013-11-16T09:10:42Z</time>
      </trkpt>
      <trkpt lat="45.83083" lon="4.7858">
        <ele>461.57</ele>
        <time>2013-11-16T09:10:49Z</time>
      </trkpt>
      <trkpt lat="45.83089" lon="4.78584">
        <ele>462.53</ele>
        <time>2013-11-16T09:11:00Z</time>
      </trkpt>
      <trkpt lat="45.83089" lon="4.78584">
        <ele>462.53</ele>
        <time>2013-11-16T09:11:19Z</time>
      </trkpt>
      <trkpt lat="45.83089" lon="4.78586">
        <ele>462.53</ele>
        <time>2013-11-16T09:11:26Z</time>
      </trkpt>
      <trkpt lat="45.83087" lon="4.78591">
        <ele>462.53</ele>
        <time>2013-11-16T09:11:29Z</time>
      </trkpt>
      <trkpt lat="45.83086" lon="4.78592">
        <ele>462.53</ele>
        <time>2013-11-16T09:11:30Z</time>
      </trkpt>
      <trkpt lat="45.83085" lon="4.78593">
        <ele>462.53</ele>
        <time>2013-11-16T09:11:31Z</time>
      </trkpt>
      <trkpt lat="45.83084" lon="4.78595">
        <ele>462.53</ele>
        <time>2013-11-16T09:11:32Z</time>
      </trkpt>
      <trkpt lat="45.83084" lon="4.78597">
        <ele>463.01</ele>
        <time>2013-11-16T09:11:33Z</time>
      </trkpt>
      <trkpt lat="45.83083" lon="4.78598">
        <ele>462.53</ele>
        <time>2013-11-16T09:11:34Z</time>
      </trkpt>
      <trkpt lat="45.83083" lon="4.786">
        <ele>463.01</ele>
        <time>2013-11-16T09:11:35Z</time>
      </trkpt>
      <trkpt lat="45.83081" lon="4.78603">
        <ele>463.49</ele>
        <time>2013-11-16T09:11:37Z</time>
      </trkpt>
      <trkpt lat="45.8308" lon="4.78605">
        <ele>463.49</ele>
        <time>2013-11-16T09:11:38Z</time>
      </trkpt>
      <trkpt lat="45.83079" lon="4.78607">
        <ele>463.49</ele>
        <time>2013-11-16T09:11:39Z</time>
      </trkpt>
      <trkpt lat="45.83078" lon="4.78608">
        <ele>463.97</ele>
        <time>2013-11-16T09:11:40Z</time>
      </trkpt>
      <trkpt lat="45.83077" lon="4.78609">
        <ele>463.49</ele>
        <time>2013-11-16T09:11:41Z</time>
      </trkpt>
      <trkpt lat="45.83076" lon="4.78611">
        <ele>463.49</ele>
        <time>2013-11-16T09:11:42Z</time>
      </trkpt>
      <trkpt lat="45.83075" lon="4.78613">
        <ele>463.97</ele>
        <time>2013-11-16T09:11:43Z</time>
      </trkpt>
      <trkpt lat="45.83074" lon="4.78614">
        <ele>463.97</ele>
        <time>2013-11-16T09:11:44Z</time>
      </trkpt>
      <trkpt lat="45.83058" lon="4.78645">
        <ele>463.49</ele>
        <time>2013-11-16T09:11:55Z</time>
      </trkpt>
      <trkpt lat="45.83044" lon="4.78674">
        <ele>462.53</ele>
        <time>2013-11-16T09:12:04Z</time>
      </trkpt>
      <trkpt lat="45.83018" lon="4.78729">
        <ele>462.05</ele>
        <time>2013-11-16T09:12:17Z</time>
      </trkpt>
      <trkpt lat="45.8299" lon="4.78773">
        <ele>462.05</ele>
        <time>2013-11-16T09:12:28Z</time>
      </trkpt>
      <trkpt lat="45.82979" lon="4.78787">
        <ele>462.05</ele>
        <time>2013-11-16T09:12:32Z</time>
      </trkpt>
      <trkpt lat="45.82953" lon="4.7881">
        <ele>463.97</ele>
        <time>2013-11-16T09:12:43Z</time>
      </trkpt>
      <trkpt lat="45.82934" lon="4.78828">
        <ele>465.9</ele>
        <time>2013-11-16T09:12:54Z</time>
      </trkpt>
      <trkpt lat="45.8293" lon="4.78832">
        <ele>465.9</ele>
        <time>2013-11-16T09:12:57Z</time>
      </trkpt>
      <trkpt lat="45.82928" lon="4.78835">
        <ele>465.42</ele>
        <time>2013-11-16T09:12:58Z</time>
      </trkpt>
      <trkpt lat="45.82928" lon="4.78839">
        <ele>465.42</ele>
        <time>2013-11-16T09:12:59Z</time>
      </trkpt>
      <trkpt lat="45.82927" lon="4.78843">
        <ele>465.42</ele>
        <time>2013-11-16T09:13:00Z</time>
      </trkpt>
      <trkpt lat="45.82925" lon="4.78847">
        <ele>465.9</ele>
        <time>2013-11-16T09:13:01Z</time>
      </trkpt>
      <trkpt lat="45.82925" lon="4.7885">
        <ele>466.38</ele>
        <time>2013-11-16T09:13:02Z</time>
      </trkpt>
      <trkpt lat="45.82923" lon="4.78853">
        <ele>466.38</ele>
        <time>2013-11-16T09:13:03Z</time>
      </trkpt>
      <trkpt lat="45.82922" lon="4.78854">
        <ele>466.86</ele>
        <time>2013-11-16T09:13:04Z</time>
      </trkpt>
      <trkpt lat="45.82921" lon="4.78856">
        <ele>466.86</ele>
        <time>2013-11-16T09:13:05Z</time>
      </trkpt>
      <trkpt lat="45.82918" lon="4.78861">
        <ele>467.34</ele>
        <time>2013-11-16T09:13:08Z</time>
      </trkpt>
      <trkpt lat="45.82918" lon="4.78863">
        <ele>467.34</ele>
        <time>2013-11-16T09:13:09Z</time>
      </trkpt>
      <trkpt lat="45.82917" lon="4.78865">
        <ele>467.82</ele>
        <time>2013-11-16T09:13:10Z</time>
      </trkpt>
      <trkpt lat="45.82916" lon="4.78867">
        <ele>467.82</ele>
        <time>2013-11-16T09:13:11Z</time>
      </trkpt>
      <trkpt lat="45.82915" lon="4.78869">
        <ele>467.82</ele>
        <time>2013-11-16T09:13:12Z</time>
      </trkpt>
      <trkpt lat="45.82914" lon="4.78872">
        <ele>468.3</ele>
        <time>2013-11-16T09:13:13Z</time>
      </trkpt>
      <trkpt lat="45.82913" lon="4.78874">
        <ele>468.3</ele>
        <time>2013-11-16T09:13:14Z</time>
      </trkpt>
      <trkpt lat="45.82912" lon="4.78877">
        <ele>468.78</ele>
        <time>2013-11-16T09:13:15Z</time>
      </trkpt>
      <trkpt lat="45.8291" lon="4.78878">
        <ele>468.3</ele>
        <time>2013-11-16T09:13:16Z</time>
      </trkpt>
      <trkpt lat="45.82908" lon="4.7888">
        <ele>468.78</ele>
        <time>2013-11-16T09:13:17Z</time>
      </trkpt>
      <trkpt lat="45.82899" lon="4.78891">
        <ele>470.22</ele>
        <time>2013-11-16T09:13:24Z</time>
      </trkpt>
      <trkpt lat="45.82898" lon="4.78893">
        <ele>470.7</ele>
        <time>2013-11-16T09:13:25Z</time>
      </trkpt>
      <trkpt lat="45.82897" lon="4.78894">
        <ele>470.22</ele>
        <time>2013-11-16T09:13:26Z</time>
      </trkpt>
      <trkpt lat="45.82895" lon="4.78896">
        <ele>470.22</ele>
        <time>2013-11-16T09:13:27Z</time>
      </trkpt>
      <trkpt lat="45.82894" lon="4.78898">
        <ele>470.22</ele>
        <time>2013-11-16T09:13:28Z</time>
      </trkpt>
      <trkpt lat="45.82892" lon="4.78899">
        <ele>470.7</ele>
        <time>2013-11-16T09:13:29Z</time>
      </trkpt>
      <trkpt lat="45.82891" lon="4.78901">
        <ele>471.18</ele>
        <time>2013-11-16T09:13:30Z</time>
      </trkpt>
      <trkpt lat="45.8289" lon="4.78902">
        <ele>470.7</ele>
        <time>2013-11-16T09:13:31Z</time>
      </trkpt>
      <trkpt lat="45.82878" lon="4.78915">
        <ele>471.18</ele>
        <time>2013-11-16T09:13:39Z</time>
      </trkpt>
      <trkpt lat="45.82863" lon="4.7894">
        <ele>473.11</ele>
        <time>2013-11-16T09:13:50Z</time>
      </trkpt>
      <trkpt lat="45.82847" lon="4.7896">
        <ele>474.07</ele>
        <time>2013-11-16T09:14:01Z</time>
      </trkpt>
      <trkpt lat="45.82832" lon="4.78984">
        <ele>473.59</ele>
        <time>2013-11-16T09:14:11Z</time>
      </trkpt>
      <trkpt lat="45.82817" lon="4.79014">
        <ele>473.11</ele>
        <time>2013-11-16T09:14:19Z</time>
      </trkpt>
      <trkpt lat="45.82816" lon="4.79017">
        <ele>473.11</ele>
        <time>2013-11-16T09:14:20Z</time>
      </trkpt>
      <trkpt lat="45.82817" lon="4.7902">
        <ele>472.63</ele>
        <time>2013-11-16T09:14:21Z</time>
      </trkpt>
      <trkpt lat="45.82817" lon="4.79023">
        <ele>472.63</ele>
        <time>2013-11-16T09:14:22Z</time>
      </trkpt>
      <trkpt lat="45.82819" lon="4.79025">
        <ele>473.59</ele>
        <time>2013-11-16T09:14:23Z</time>
      </trkpt>
      <trkpt lat="45.8282" lon="4.79025">
        <ele>473.59</ele>
        <time>2013-11-16T09:14:24Z</time>
      </trkpt>
      <trkpt lat="45.82822" lon="4.79025">
        <ele>474.07</ele>
        <time>2013-11-16T09:14:25Z</time>
      </trkpt>
      <trkpt lat="45.82824" lon="4.79025">
        <ele>474.55</ele>
        <time>2013-11-16T09:14:26Z</time>
      </trkpt>
      <trkpt lat="45.82838" lon="4.7902">
        <ele>475.99</ele>
        <time>2013-11-16T09:14:36Z</time>
      </trkpt>
      <trkpt lat="45.82851" lon="4.79011">
        <ele>478.39</ele>
        <time>2013-11-16T09:14:45Z</time>
      </trkpt>
      <trkpt lat="45.82853" lon="4.7901">
        <ele>478.39</ele>
        <time>2013-11-16T09:14:46Z</time>
      </trkpt>
      <trkpt lat="45.82868" lon="4.79002">
        <ele>480.32</ele>
        <time>2013-11-16T09:14:56Z</time>
      </trkpt>
      <trkpt lat="45.82884" lon="4.78994">
        <ele>481.76</ele>
        <time>2013-11-16T09:15:06Z</time>
      </trkpt>
      <trkpt lat="45.82885" lon="4.78993">
        <ele>482.24</ele>
        <time>2013-11-16T09:15:07Z</time>
      </trkpt>
      <trkpt lat="45.82886" lon="4.78991">
        <ele>482.24</ele>
        <time>2013-11-16T09:15:08Z</time>
      </trkpt>
      <trkpt lat="45.82887" lon="4.7899">
        <ele>482.24</ele>
        <time>2013-11-16T09:15:09Z</time>
      </trkpt>
      <trkpt lat="45.82889" lon="4.78989">
        <ele>482.72</ele>
        <time>2013-11-16T09:15:10Z</time>
      </trkpt>
      <trkpt lat="45.8289" lon="4.78989">
        <ele>482.72</ele>
        <time>2013-11-16T09:15:11Z</time>
      </trkpt>
      <trkpt lat="45.82892" lon="4.78988">
        <ele>482.72</ele>
        <time>2013-11-16T09:15:12Z</time>
      </trkpt>
      <trkpt lat="45.82906" lon="4.78982">
        <ele>483.68</ele>
        <time>2013-11-16T09:15:22Z</time>
      </trkpt>
      <trkpt lat="45.82913" lon="4.78979">
        <ele>484.64</ele>
        <time>2013-11-16T09:15:28Z</time>
      </trkpt>
      <trkpt lat="45.82914" lon="4.78979">
        <ele>485.6</ele>
        <time>2013-11-16T09:15:29Z</time>
      </trkpt>
      <trkpt lat="45.82915" lon="4.78978">
        <ele>485.12</ele>
        <time>2013-11-16T09:15:30Z</time>
      </trkpt>
      <trkpt lat="45.82917" lon="4.78977">
        <ele>485.6</ele>
        <time>2013-11-16T09:15:31Z</time>
      </trkpt>
      <trkpt lat="45.82918" lon="4.78976">
        <ele>485.6</ele>
        <time>2013-11-16T09:15:32Z</time>
      </trkpt>
      <trkpt lat="45.82919" lon="4.78976">
        <ele>486.08</ele>
        <time>2013-11-16T09:15:33Z</time>
      </trkpt>
      <trkpt lat="45.82921" lon="4.78975">
        <ele>486.08</ele>
        <time>2013-11-16T09:15:34Z</time>
      </trkpt>
      <trkpt lat="45.82922" lon="4.78975">
        <ele>486.08</ele>
        <time>2013-11-16T09:15:35Z</time>
      </trkpt>
      <trkpt lat="45.82925" lon="4.78972">
        <ele>486.56</ele>
        <time>2013-11-16T09:15:38Z</time>
      </trkpt>
      <trkpt lat="45.82931" lon="4.78968">
        <ele>488.01</ele>
        <time>2013-11-16T09:15:44Z</time>
      </trkpt>
      <trkpt lat="45.82938" lon="4.78966">
        <ele>488.97</ele>
        <time>2013-11-16T09:15:50Z</time>
      </trkpt>
      <trkpt lat="45.82939" lon="4.78966">
        <ele>488.97</ele>
        <time>2013-11-16T09:15:51Z</time>
      </trkpt>
      <trkpt lat="45.82945" lon="4.78964">
        <ele>489.45</ele>
        <time>2013-11-16T09:15:56Z</time>
      </trkpt>
      <trkpt lat="45.82953" lon="4.78961">
        <ele>490.41</ele>
        <time>2013-11-16T09:16:04Z</time>
      </trkpt>
      <trkpt lat="45.82958" lon="4.78958">
        <ele>490.89</ele>
        <time>2013-11-16T09:16:08Z</time>
      </trkpt>
      <trkpt lat="45.82959" lon="4.78958">
        <ele>490.89</ele>
        <time>2013-11-16T09:16:09Z</time>
      </trkpt>
      <trkpt lat="45.8296" lon="4.78957">
        <ele>491.37</ele>
        <time>2013-11-16T09:16:10Z</time>
      </trkpt>
      <trkpt lat="45.82961" lon="4.78957">
        <ele>490.89</ele>
        <time>2013-11-16T09:16:11Z</time>
      </trkpt>
      <trkpt lat="45.82966" lon="4.78955">
        <ele>492.33</ele>
        <time>2013-11-16T09:16:16Z</time>
      </trkpt>
      <trkpt lat="45.8297" lon="4.78953">
        <ele>492.81</ele>
        <time>2013-11-16T09:16:20Z</time>
      </trkpt>
      <trkpt lat="45.82971" lon="4.78953">
        <ele>492.81</ele>
        <time>2013-11-16T09:16:21Z</time>
      </trkpt>
      <trkpt lat="45.82973" lon="4.78952">
        <ele>492.81</ele>
        <time>2013-11-16T09:16:22Z</time>
      </trkpt>
      <trkpt lat="45.82974" lon="4.78952">
        <ele>493.29</ele>
        <time>2013-11-16T09:16:23Z</time>
      </trkpt>
      <trkpt lat="45.82986" lon="4.78946">
        <ele>495.7</ele>
        <time>2013-11-16T09:16:35Z</time>
      </trkpt>
      <trkpt lat="45.82987" lon="4.78946">
        <ele>495.22</ele>
        <time>2013-11-16T09:16:36Z</time>
      </trkpt>
      <trkpt lat="45.8299" lon="4.78945">
        <ele>495.7</ele>
        <time>2013-11-16T09:16:39Z</time>
      </trkpt>
      <trkpt lat="45.82991" lon="4.78945">
        <ele>496.18</ele>
        <time>2013-11-16T09:16:40Z</time>
      </trkpt>
      <trkpt lat="45.82993" lon="4.78944">
        <ele>496.18</ele>
        <time>2013-11-16T09:16:41Z</time>
      </trkpt>
      <trkpt lat="45.82994" lon="4.78943">
        <ele>496.18</ele>
        <time>2013-11-16T09:16:42Z</time>
      </trkpt>
      <trkpt lat="45.83001" lon="4.78941">
        <ele>497.14</ele>
        <time>2013-11-16T09:16:52Z</time>
      </trkpt>
      <trkpt lat="45.83004" lon="4.78943">
        <ele>499.06</ele>
        <time>2013-11-16T09:16:57Z</time>
      </trkpt>
      <trkpt lat="45.8301" lon="4.78948">
        <ele>500.5</ele>
        <time>2013-11-16T09:17:06Z</time>
      </trkpt>
      <trkpt lat="45.8301" lon="4.7895">
        <ele>500.02</ele>
        <time>2013-11-16T09:17:16Z</time>
      </trkpt>
      <trkpt lat="45.8301" lon="4.78955">
        <ele>500.02</ele>
        <time>2013-11-16T09:17:20Z</time>
      </trkpt>
      <trkpt lat="45.8301" lon="4.78957">
        <ele>500.02</ele>
        <time>2013-11-16T09:17:21Z</time>
      </trkpt>
      <trkpt lat="45.83011" lon="4.78958">
        <ele>500.5</ele>
        <time>2013-11-16T09:17:22Z</time>
      </trkpt>
      <trkpt lat="45.83011" lon="4.7896">
        <ele>500.5</ele>
        <time>2013-11-16T09:17:23Z</time>
      </trkpt>
      <trkpt lat="45.83012" lon="4.78961">
        <ele>500.5</ele>
        <time>2013-11-16T09:17:24Z</time>
      </trkpt>
      <trkpt lat="45.83013" lon="4.78962">
        <ele>500.5</ele>
        <time>2013-11-16T09:17:25Z</time>
      </trkpt>
      <trkpt lat="45.83013" lon="4.78964">
        <ele>500.98</ele>
        <time>2013-11-16T09:17:26Z</time>
      </trkpt>
      <trkpt lat="45.83014" lon="4.78965">
        <ele>500.5</ele>
        <time>2013-11-16T09:17:27Z</time>
      </trkpt>
      <trkpt lat="45.83014" lon="4.78967">
        <ele>500.98</ele>
        <time>2013-11-16T09:17:28Z</time>
      </trkpt>
      <trkpt lat="45.83014" lon="4.78969">
        <ele>500.98</ele>
        <time>2013-11-16T09:17:29Z</time>
      </trkpt>
      <trkpt lat="45.83015" lon="4.78974">
        <ele>500.98</ele>
        <time>2013-11-16T09:17:32Z</time>
      </trkpt>
      <trkpt lat="45.83016" lon="4.78975">
        <ele>501.46</ele>
        <time>2013-11-16T09:17:33Z</time>
      </trkpt>
      <trkpt lat="45.83017" lon="4.78977">
        <ele>501.95</ele>
        <time>2013-11-16T09:17:34Z</time>
      </trkpt>
      <trkpt lat="45.8302" lon="4.7899">
        <ele>502.43</ele>
        <time>2013-11-16T09:17:42Z</time>
      </trkpt>
      <trkpt lat="45.8302" lon="4.78992">
        <ele>502.91</ele>
        <time>2013-11-16T09:17:43Z</time>
      </trkpt>
      <trkpt lat="45.83026" lon="4.79001">
        <ele>503.39</ele>
        <time>2013-11-16T09:17:50Z</time>
      </trkpt>
      <trkpt lat="45.83027" lon="4.79001">
        <ele>503.87</ele>
        <time>2013-11-16T09:17:51Z</time>
      </trkpt>
      <trkpt lat="45.83028" lon="4.79002">
        <ele>503.87</ele>
        <time>2013-11-16T09:17:52Z</time>
      </trkpt>
      <trkpt lat="45.83036" lon="4.79">
        <ele>504.35</ele>
        <time>2013-11-16T09:17:58Z</time>
      </trkpt>
      <trkpt lat="45.83047" lon="4.78996">
        <ele>507.23</ele>
        <time>2013-11-16T09:18:08Z</time>
      </trkpt>
      <trkpt lat="45.83054" lon="4.78992">
        <ele>508.19</ele>
        <time>2013-11-16T09:18:15Z</time>
      </trkpt>
      <trkpt lat="45.83064" lon="4.78988">
        <ele>510.12</ele>
        <time>2013-11-16T09:18:25Z</time>
      </trkpt>
      <trkpt lat="45.83069" lon="4.78985">
        <ele>511.08</ele>
        <time>2013-11-16T09:18:31Z</time>
      </trkpt>
      <trkpt lat="45.83076" lon="4.78978">
        <ele>512.04</ele>
        <time>2013-11-16T09:18:39Z</time>
      </trkpt>
      <trkpt lat="45.8308" lon="4.78975">
        <ele>513</ele>
        <time>2013-11-16T09:18:43Z</time>
      </trkpt>
      <trkpt lat="45.83083" lon="4.78974">
        <ele>513.48</ele>
        <time>2013-11-16T09:18:45Z</time>
      </trkpt>
      <trkpt lat="45.83092" lon="4.78967">
        <ele>514.92</ele>
        <time>2013-11-16T09:18:54Z</time>
      </trkpt>
      <trkpt lat="45.83101" lon="4.7896">
        <ele>516.85</ele>
        <time>2013-11-16T09:19:03Z</time>
      </trkpt>
      <trkpt lat="45.83102" lon="4.78959">
        <ele>516.85</ele>
        <time>2013-11-16T09:19:04Z</time>
      </trkpt>
      <trkpt lat="45.83103" lon="4.78958">
        <ele>517.33</ele>
        <time>2013-11-16T09:19:05Z</time>
      </trkpt>
      <trkpt lat="45.83109" lon="4.78955">
        <ele>517.33</ele>
        <time>2013-11-16T09:19:10Z</time>
      </trkpt>
      <trkpt lat="45.8311" lon="4.78955">
        <ele>517.81</ele>
        <time>2013-11-16T09:19:11Z</time>
      </trkpt>
      <trkpt lat="45.83121" lon="4.78947">
        <ele>519.25</ele>
        <time>2013-11-16T09:19:21Z</time>
      </trkpt>
      <trkpt lat="45.83122" lon="4.78946">
        <ele>519.25</ele>
        <time>2013-11-16T09:19:22Z</time>
      </trkpt>
      <trkpt lat="45.83123" lon="4.78945">
        <ele>519.25</ele>
        <time>2013-11-16T09:19:23Z</time>
      </trkpt>
      <trkpt lat="45.83123" lon="4.78944">
        <ele>519.73</ele>
        <time>2013-11-16T09:19:24Z</time>
      </trkpt>
      <trkpt lat="45.83133" lon="4.78936">
        <ele>521.65</ele>
        <time>2013-11-16T09:19:33Z</time>
      </trkpt>
      <trkpt lat="45.83142" lon="4.78927">
        <ele>522.61</ele>
        <time>2013-11-16T09:19:43Z</time>
      </trkpt>
      <trkpt lat="45.83143" lon="4.78926">
        <ele>522.61</ele>
        <time>2013-11-16T09:19:44Z</time>
      </trkpt>
      <trkpt lat="45.83144" lon="4.78925">
        <ele>522.61</ele>
        <time>2013-11-16T09:19:45Z</time>
      </trkpt>
      <trkpt lat="45.83145" lon="4.78924">
        <ele>522.61</ele>
        <time>2013-11-16T09:19:46Z</time>
      </trkpt>
      <trkpt lat="45.8315" lon="4.78916">
        <ele>524.06</ele>
        <time>2013-11-16T09:19:53Z</time>
      </trkpt>
      <trkpt lat="45.83151" lon="4.78915">
        <ele>524.06</ele>
        <time>2013-11-16T09:19:54Z</time>
      </trkpt>
      <trkpt lat="45.83158" lon="4.78905">
        <ele>525.02</ele>
        <time>2013-11-16T09:20:03Z</time>
      </trkpt>
      <trkpt lat="45.83159" lon="4.78904">
        <ele>525.02</ele>
        <time>2013-11-16T09:20:04Z</time>
      </trkpt>
      <trkpt lat="45.83171" lon="4.78896">
        <ele>526.94</ele>
        <time>2013-11-16T09:20:16Z</time>
      </trkpt>
      <trkpt lat="45.83182" lon="4.78889">
        <ele>529.34</ele>
        <time>2013-11-16T09:20:29Z</time>
      </trkpt>
      <trkpt lat="45.83191" lon="4.78886">
        <ele>530.3</ele>
        <time>2013-11-16T09:20:37Z</time>
      </trkpt>
      <trkpt lat="45.83195" lon="4.78883">
        <ele>530.3</ele>
        <time>2013-11-16T09:20:45Z</time>
      </trkpt>
      <trkpt lat="45.83195" lon="4.78883">
        <ele>530.79</ele>
        <time>2013-11-16T09:21:01Z</time>
      </trkpt>
      <trkpt lat="45.83195" lon="4.78883">
        <ele>531.27</ele>
        <time>2013-11-16T09:21:16Z</time>
      </trkpt>
      <trkpt lat="45.83195" lon="4.78883">
        <ele>530.3</ele>
        <time>2013-11-16T09:21:37Z</time>
      </trkpt>
      <trkpt lat="45.83195" lon="4.78883">
        <ele>530.79</ele>
        <time>2013-11-16T09:22:00Z</time>
      </trkpt>
      <trkpt lat="45.83198" lon="4.78881">
        <ele>530.79</ele>
        <time>2013-11-16T09:22:22Z</time>
      </trkpt>
      <trkpt lat="45.832" lon="4.7888">
        <ele>531.27</ele>
        <time>2013-11-16T09:22:23Z</time>
      </trkpt>
      <trkpt lat="45.83205" lon="4.78878">
        <ele>532.23</ele>
        <time>2013-11-16T09:22:26Z</time>
      </trkpt>
      <trkpt lat="45.83206" lon="4.78878">
        <ele>531.75</ele>
        <time>2013-11-16T09:22:27Z</time>
      </trkpt>
      <trkpt lat="45.83208" lon="4.78877">
        <ele>531.75</ele>
        <time>2013-11-16T09:22:28Z</time>
      </trkpt>
      <trkpt lat="45.83214" lon="4.78873">
        <ele>533.67</ele>
        <time>2013-11-16T09:22:34Z</time>
      </trkpt>
      <trkpt lat="45.83215" lon="4.78872">
        <ele>533.67</ele>
        <time>2013-11-16T09:22:35Z</time>
      </trkpt>
      <trkpt lat="45.83216" lon="4.78873">
        <ele>533.67</ele>
        <time>2013-11-16T09:22:36Z</time>
      </trkpt>
      <trkpt lat="45.83228" lon="4.78866">
        <ele>535.11</ele>
        <time>2013-11-16T09:22:46Z</time>
      </trkpt>
      <trkpt lat="45.83239" lon="4.78858">
        <ele>537.03</ele>
        <time>2013-11-16T09:22:55Z</time>
      </trkpt>
      <trkpt lat="45.83242" lon="4.78856">
        <ele>537.03</ele>
        <time>2013-11-16T09:22:57Z</time>
      </trkpt>
      <trkpt lat="45.83243" lon="4.78855">
        <ele>537.51</ele>
        <time>2013-11-16T09:22:58Z</time>
      </trkpt>
      <trkpt lat="45.83253" lon="4.78847">
        <ele>539.44</ele>
        <time>2013-11-16T09:23:09Z</time>
      </trkpt>
      <trkpt lat="45.83259" lon="4.78844">
        <ele>540.88</ele>
        <time>2013-11-16T09:23:19Z</time>
      </trkpt>
      <trkpt lat="45.83266" lon="4.78841">
        <ele>541.84</ele>
        <time>2013-11-16T09:23:30Z</time>
      </trkpt>
      <trkpt lat="45.83272" lon="4.7884">
        <ele>542.8</ele>
        <time>2013-11-16T09:23:40Z</time>
      </trkpt>
      <trkpt lat="45.83279" lon="4.78839">
        <ele>543.76</ele>
        <time>2013-11-16T09:23:50Z</time>
      </trkpt>
      <trkpt lat="45.83282" lon="4.78837">
        <ele>543.76</ele>
        <time>2013-11-16T09:24:01Z</time>
      </trkpt>
      <trkpt lat="45.83286" lon="4.78835">
        <ele>544.72</ele>
        <time>2013-11-16T09:24:13Z</time>
      </trkpt>
      <trkpt lat="45.83291" lon="4.7883">
        <ele>545.2</ele>
        <time>2013-11-16T09:24:23Z</time>
      </trkpt>
      <trkpt lat="45.83298" lon="4.78826">
        <ele>545.69</ele>
        <time>2013-11-16T09:24:33Z</time>
      </trkpt>
      <trkpt lat="45.83304" lon="4.78823">
        <ele>546.65</ele>
        <time>2013-11-16T09:24:42Z</time>
      </trkpt>
      <trkpt lat="45.8331" lon="4.78816">
        <ele>547.61</ele>
        <time>2013-11-16T09:24:52Z</time>
      </trkpt>
      <trkpt lat="45.83314" lon="4.7881">
        <ele>548.57</ele>
        <time>2013-11-16T09:25:00Z</time>
      </trkpt>
      <trkpt lat="45.83321" lon="4.78804">
        <ele>549.53</ele>
        <time>2013-11-16T09:25:12Z</time>
      </trkpt>
      <trkpt lat="45.83324" lon="4.78803">
        <ele>550.97</ele>
        <time>2013-11-16T09:25:23Z</time>
      </trkpt>
      <trkpt lat="45.83324" lon="4.78803">
        <ele>550.01</ele>
        <time>2013-11-16T09:25:46Z</time>
      </trkpt>
      <trkpt lat="45.83324" lon="4.78803">
        <ele>550.01</ele>
        <time>2013-11-16T09:26:14Z</time>
      </trkpt>
      <trkpt lat="45.83324" lon="4.78803">
        <ele>550.01</ele>
        <time>2013-11-16T09:26:39Z</time>
      </trkpt>
      <trkpt lat="45.83324" lon="4.78802">
        <ele>550.49</ele>
        <time>2013-11-16T09:26:56Z</time>
      </trkpt>
      <trkpt lat="45.83324" lon="4.78802">
        <ele>550.49</ele>
        <time>2013-11-16T09:27:16Z</time>
      </trkpt>
      <trkpt lat="45.83324" lon="4.78802">
        <ele>550.97</ele>
        <time>2013-11-16T09:27:36Z</time>
      </trkpt>
      <trkpt lat="45.83324" lon="4.78802">
        <ele>550.49</ele>
        <time>2013-11-16T09:27:55Z</time>
      </trkpt>
      <trkpt lat="45.83325" lon="4.78802">
        <ele>550.49</ele>
        <time>2013-11-16T09:28:12Z</time>
      </trkpt>
      <trkpt lat="45.83325" lon="4.78802">
        <ele>550.01</ele>
        <time>2013-11-16T09:28:29Z</time>
      </trkpt>
      <trkpt lat="45.83325" lon="4.78801">
        <ele>550.49</ele>
        <time>2013-11-16T09:28:51Z</time>
      </trkpt>
      <trkpt lat="45.83328" lon="4.78799">
        <ele>550.49</ele>
        <time>2013-11-16T09:29:06Z</time>
      </trkpt>
      <trkpt lat="45.83331" lon="4.78797">
        <ele>550.49</ele>
        <time>2013-11-16T09:29:10Z</time>
      </trkpt>
      <trkpt lat="45.83333" lon="4.78796">
        <ele>550.49</ele>
        <time>2013-11-16T09:29:11Z</time>
      </trkpt>
      <trkpt lat="45.8334" lon="4.78794">
        <ele>551.45</ele>
        <time>2013-11-16T09:29:17Z</time>
      </trkpt>
      <trkpt lat="45.83345" lon="4.7879">
        <ele>551.93</ele>
        <time>2013-11-16T09:29:21Z</time>
      </trkpt>
      <trkpt lat="45.83346" lon="4.78789">
        <ele>551.93</ele>
        <time>2013-11-16T09:29:22Z</time>
      </trkpt>
      <trkpt lat="45.83347" lon="4.78788">
        <ele>552.41</ele>
        <time>2013-11-16T09:29:23Z</time>
      </trkpt>
      <trkpt lat="45.83349" lon="4.78788">
        <ele>552.41</ele>
        <time>2013-11-16T09:29:24Z</time>
      </trkpt>
      <trkpt lat="45.8335" lon="4.78787">
        <ele>552.41</ele>
        <time>2013-11-16T09:29:25Z</time>
      </trkpt>
      <trkpt lat="45.83351" lon="4.78787">
        <ele>552.9</ele>
        <time>2013-11-16T09:29:26Z</time>
      </trkpt>
      <trkpt lat="45.83353" lon="4.78787">
        <ele>552.9</ele>
        <time>2013-11-16T09:29:27Z</time>
      </trkpt>
      <trkpt lat="45.83354" lon="4.78786">
        <ele>552.9</ele>
        <time>2013-11-16T09:29:28Z</time>
      </trkpt>
      <trkpt lat="45.83355" lon="4.78785">
        <ele>553.38</ele>
        <time>2013-11-16T09:29:29Z</time>
      </trkpt>
      <trkpt lat="45.83356" lon="4.78784">
        <ele>553.38</ele>
        <time>2013-11-16T09:29:30Z</time>
      </trkpt>
      <trkpt lat="45.83357" lon="4.78783">
        <ele>552.9</ele>
        <time>2013-11-16T09:29:31Z</time>
      </trkpt>
      <trkpt lat="45.83358" lon="4.78782">
        <ele>553.38</ele>
        <time>2013-11-16T09:29:32Z</time>
      </trkpt>
      <trkpt lat="45.8336" lon="4.7878">
        <ele>553.86</ele>
        <time>2013-11-16T09:29:33Z</time>
      </trkpt>
      <trkpt lat="45.83361" lon="4.78779">
        <ele>553.86</ele>
        <time>2013-11-16T09:29:34Z</time>
      </trkpt>
      <trkpt lat="45.83362" lon="4.78777">
        <ele>554.34</ele>
        <time>2013-11-16T09:29:35Z</time>
      </trkpt>
      <trkpt lat="45.83364" lon="4.78776">
        <ele>554.34</ele>
        <time>2013-11-16T09:29:36Z</time>
      </trkpt>
      <trkpt lat="45.83365" lon="4.78775">
        <ele>554.82</ele>
        <time>2013-11-16T09:29:37Z</time>
      </trkpt>
      <trkpt lat="45.83366" lon="4.78774">
        <ele>554.34</ele>
        <time>2013-11-16T09:29:38Z</time>
      </trkpt>
      <trkpt lat="45.83368" lon="4.78773">
        <ele>553.86</ele>
        <time>2013-11-16T09:29:39Z</time>
      </trkpt>
      <trkpt lat="45.8337" lon="4.78772">
        <ele>554.82</ele>
        <time>2013-11-16T09:29:40Z</time>
      </trkpt>
      <trkpt lat="45.83384" lon="4.78764">
        <ele>555.3</ele>
        <time>2013-11-16T09:29:49Z</time>
      </trkpt>
      <trkpt lat="45.83396" lon="4.78761">
        <ele>556.26</ele>
        <time>2013-11-16T09:29:59Z</time>
      </trkpt>
      <trkpt lat="45.83399" lon="4.7876">
        <ele>556.74</ele>
        <time>2013-11-16T09:30:01Z</time>
      </trkpt>
      <trkpt lat="45.83403" lon="4.78759">
        <ele>557.22</ele>
        <time>2013-11-16T09:30:04Z</time>
      </trkpt>
      <trkpt lat="45.83411" lon="4.78755">
        <ele>558.18</ele>
        <time>2013-11-16T09:30:12Z</time>
      </trkpt>
      <trkpt lat="45.83413" lon="4.78755">
        <ele>558.18</ele>
        <time>2013-11-16T09:30:13Z</time>
      </trkpt>
      <trkpt lat="45.83417" lon="4.78753">
        <ele>558.18</ele>
        <time>2013-11-16T09:30:16Z</time>
      </trkpt>
      <trkpt lat="45.83424" lon="4.7875">
        <ele>559.62</ele>
        <time>2013-11-16T09:30:24Z</time>
      </trkpt>
      <trkpt lat="45.83435" lon="4.78746">
        <ele>561.55</ele>
        <time>2013-11-16T09:30:34Z</time>
      </trkpt>
      <trkpt lat="45.83436" lon="4.78746">
        <ele>561.55</ele>
        <time>2013-11-16T09:30:35Z</time>
      </trkpt>
      <trkpt lat="45.83439" lon="4.78744">
        <ele>561.55</ele>
        <time>2013-11-16T09:30:38Z</time>
      </trkpt>
      <trkpt lat="45.8345" lon="4.78743">
        <ele>563.47</ele>
        <time>2013-11-16T09:30:47Z</time>
      </trkpt>
      <trkpt lat="45.83461" lon="4.7874">
        <ele>565.39</ele>
        <time>2013-11-16T09:30:57Z</time>
      </trkpt>
      <trkpt lat="45.8347" lon="4.78735">
        <ele>566.35</ele>
        <time>2013-11-16T09:31:05Z</time>
      </trkpt>
      <trkpt lat="45.83474" lon="4.78734">
        <ele>566.83</ele>
        <time>2013-11-16T09:31:10Z</time>
      </trkpt>
      <trkpt lat="45.83482" lon="4.78732">
        <ele>568.76</ele>
        <time>2013-11-16T09:31:18Z</time>
      </trkpt>
      <trkpt lat="45.8349" lon="4.78727">
        <ele>569.24</ele>
        <time>2013-11-16T09:31:25Z</time>
      </trkpt>
      <trkpt lat="45.83503" lon="4.78721">
        <ele>570.68</ele>
        <time>2013-11-16T09:31:37Z</time>
      </trkpt>
      <trkpt lat="45.83506" lon="4.78719">
        <ele>571.16</ele>
        <time>2013-11-16T09:31:40Z</time>
      </trkpt>
      <trkpt lat="45.83509" lon="4.78718">
        <ele>572.12</ele>
        <time>2013-11-16T09:31:43Z</time>
      </trkpt>
      <trkpt lat="45.83517" lon="4.78715">
        <ele>572.6</ele>
        <time>2013-11-16T09:31:51Z</time>
      </trkpt>
      <trkpt lat="45.83522" lon="4.78715">
        <ele>573.56</ele>
        <time>2013-11-16T09:31:56Z</time>
      </trkpt>
      <trkpt lat="45.83526" lon="4.78711">
        <ele>573.56</ele>
        <time>2013-11-16T09:32:00Z</time>
      </trkpt>
      <trkpt lat="45.83527" lon="4.78711">
        <ele>574.04</ele>
        <time>2013-11-16T09:32:01Z</time>
      </trkpt>
      <trkpt lat="45.83529" lon="4.78711">
        <ele>574.04</ele>
        <time>2013-11-16T09:32:02Z</time>
      </trkpt>
      <trkpt lat="45.8353" lon="4.78711">
        <ele>574.53</ele>
        <time>2013-11-16T09:32:03Z</time>
      </trkpt>
      <trkpt lat="45.83531" lon="4.78711">
        <ele>574.04</ele>
        <time>2013-11-16T09:32:04Z</time>
      </trkpt>
      <trkpt lat="45.83533" lon="4.78711">
        <ele>575.01</ele>
        <time>2013-11-16T09:32:05Z</time>
      </trkpt>
      <trkpt lat="45.83542" lon="4.78708">
        <ele>575.97</ele>
        <time>2013-11-16T09:32:13Z</time>
      </trkpt>
      <trkpt lat="45.83552" lon="4.78702">
        <ele>577.41</ele>
        <time>2013-11-16T09:32:23Z</time>
      </trkpt>
      <trkpt lat="45.83563" lon="4.78698">
        <ele>578.85</ele>
        <time>2013-11-16T09:32:33Z</time>
      </trkpt>
      <trkpt lat="45.83572" lon="4.78691">
        <ele>580.29</ele>
        <time>2013-11-16T09:32:43Z</time>
      </trkpt>
      <trkpt lat="45.8358" lon="4.78685">
        <ele>581.25</ele>
        <time>2013-11-16T09:32:52Z</time>
      </trkpt>
      <trkpt lat="45.83584" lon="4.78683">
        <ele>582.22</ele>
        <time>2013-11-16T09:32:56Z</time>
      </trkpt>
      <trkpt lat="45.83595" lon="4.78679">
        <ele>583.18</ele>
        <time>2013-11-16T09:33:04Z</time>
      </trkpt>
      <trkpt lat="45.83599" lon="4.78678">
        <ele>583.66</ele>
        <time>2013-11-16T09:33:08Z</time>
      </trkpt>
      <trkpt lat="45.83601" lon="4.78678">
        <ele>583.66</ele>
        <time>2013-11-16T09:33:09Z</time>
      </trkpt>
      <trkpt lat="45.83602" lon="4.78678">
        <ele>583.66</ele>
        <time>2013-11-16T09:33:10Z</time>
      </trkpt>
      <trkpt lat="45.83603" lon="4.78678">
        <ele>584.14</ele>
        <time>2013-11-16T09:33:11Z</time>
      </trkpt>
      <trkpt lat="45.83605" lon="4.78678">
        <ele>584.14</ele>
        <time>2013-11-16T09:33:12Z</time>
      </trkpt>
      <trkpt lat="45.83606" lon="4.78678">
        <ele>584.14</ele>
        <time>2013-11-16T09:33:13Z</time>
      </trkpt>
      <trkpt lat="45.83607" lon="4.78677">
        <ele>584.62</ele>
        <time>2013-11-16T09:33:14Z</time>
      </trkpt>
      <trkpt lat="45.8362" lon="4.78671">
        <ele>586.54</ele>
        <time>2013-11-16T09:33:25Z</time>
      </trkpt>
      <trkpt lat="45.83626" lon="4.78671">
        <ele>586.54</ele>
        <time>2013-11-16T09:33:29Z</time>
      </trkpt>
      <trkpt lat="45.83627" lon="4.7867">
        <ele>586.54</ele>
        <time>2013-11-16T09:33:30Z</time>
      </trkpt>
      <trkpt lat="45.83632" lon="4.78662">
        <ele>587.98</ele>
        <time>2013-11-16T09:33:36Z</time>
      </trkpt>
      <trkpt lat="45.83633" lon="4.78661">
        <ele>587.98</ele>
        <time>2013-11-16T09:33:37Z</time>
      </trkpt>
      <trkpt lat="45.83647" lon="4.78651">
        <ele>588.46</ele>
        <time>2013-11-16T09:33:48Z</time>
      </trkpt>
      <trkpt lat="45.83648" lon="4.78651">
        <ele>588.46</ele>
        <time>2013-11-16T09:33:49Z</time>
      </trkpt>
      <trkpt lat="45.8365" lon="4.7865">
        <ele>589.43</ele>
        <time>2013-11-16T09:33:50Z</time>
      </trkpt>
      <trkpt lat="45.83651" lon="4.7865">
        <ele>588.95</ele>
        <time>2013-11-16T09:33:51Z</time>
      </trkpt>
      <trkpt lat="45.83653" lon="4.78649">
        <ele>589.43</ele>
        <time>2013-11-16T09:33:52Z</time>
      </trkpt>
      <trkpt lat="45.83654" lon="4.78648">
        <ele>589.43</ele>
        <time>2013-11-16T09:33:53Z</time>
      </trkpt>
      <trkpt lat="45.83668" lon="4.7864">
        <ele>590.39</ele>
        <time>2013-11-16T09:34:04Z</time>
      </trkpt>
      <trkpt lat="45.83671" lon="4.78638">
        <ele>590.39</ele>
        <time>2013-11-16T09:34:06Z</time>
      </trkpt>
      <trkpt lat="45.83672" lon="4.78637">
        <ele>590.39</ele>
        <time>2013-11-16T09:34:07Z</time>
      </trkpt>
      <trkpt lat="45.83673" lon="4.78636">
        <ele>590.39</ele>
        <time>2013-11-16T09:34:16Z</time>
      </trkpt>
      <trkpt lat="45.83673" lon="4.78636">
        <ele>590.39</ele>
        <time>2013-11-16T09:34:30Z</time>
      </trkpt>
      <trkpt lat="45.83673" lon="4.78636">
        <ele>590.39</ele>
        <time>2013-11-16T09:34:50Z</time>
      </trkpt>
      <trkpt lat="45.83673" lon="4.78636">
        <ele>590.87</ele>
        <time>2013-11-16T09:35:08Z</time>
      </trkpt>
      <trkpt lat="45.83674" lon="4.78636">
        <ele>590.39</ele>
        <time>2013-11-16T09:35:32Z</time>
      </trkpt>
      <trkpt lat="45.83674" lon="4.78636">
        <ele>590.87</ele>
        <time>2013-11-16T09:35:56Z</time>
      </trkpt>
      <trkpt lat="45.83673" lon="4.78636">
        <ele>590.39</ele>
        <time>2013-11-16T09:36:13Z</time>
      </trkpt>
      <trkpt lat="45.83673" lon="4.78636">
        <ele>590.87</ele>
        <time>2013-11-16T09:36:32Z</time>
      </trkpt>
      <trkpt lat="45.83673" lon="4.78636">
        <ele>590.87</ele>
        <time>2013-11-16T09:36:55Z</time>
      </trkpt>
      <trkpt lat="45.83673" lon="4.78636">
        <ele>590.87</ele>
        <time>2013-11-16T09:37:12Z</time>
      </trkpt>
      <trkpt lat="45.83673" lon="4.78636">
        <ele>590.39</ele>
        <time>2013-11-16T09:37:33Z</time>
      </trkpt>
      <trkpt lat="45.83673" lon="4.78635">
        <ele>590.39</ele>
        <time>2013-11-16T09:37:47Z</time>
      </trkpt>
      <trkpt lat="45.83673" lon="4.78635">
        <ele>590.39</ele>
        <time>2013-11-16T09:38:14Z</time>
      </trkpt>
      <trkpt lat="45.83673" lon="4.78636">
        <ele>590.39</ele>
        <time>2013-11-16T09:38:36Z</time>
      </trkpt>
      <trkpt lat="45.83673" lon="4.78636">
        <ele>585.1</ele>
        <time>2013-11-16T09:38:41Z</time>
      </trkpt>
      <trkpt lat="45.83673" lon="4.78636">
        <ele>591.35</ele>
        <time>2013-11-16T09:38:42Z</time>
      </trkpt>
      <trkpt lat="45.83674" lon="4.78632">
        <ele>589.91</ele>
        <time>2013-11-16T09:38:53Z</time>
      </trkpt>
      <trkpt lat="45.83671" lon="4.78616">
        <ele>589.43</ele>
        <time>2013-11-16T09:39:01Z</time>
      </trkpt>
      <trkpt lat="45.83671" lon="4.78613">
        <ele>588.95</ele>
        <time>2013-11-16T09:39:02Z</time>
      </trkpt>
      <trkpt lat="45.83672" lon="4.78611">
        <ele>588.95</ele>
        <time>2013-11-16T09:39:03Z</time>
      </trkpt>
      <trkpt lat="45.83673" lon="4.78608">
        <ele>588.46</ele>
        <time>2013-11-16T09:39:04Z</time>
      </trkpt>
      <trkpt lat="45.83672" lon="4.78606">
        <ele>588.46</ele>
        <time>2013-11-16T09:39:05Z</time>
      </trkpt>
      <trkpt lat="45.83672" lon="4.78604">
        <ele>587.98</ele>
        <time>2013-11-16T09:39:06Z</time>
      </trkpt>
      <trkpt lat="45.83671" lon="4.78602">
        <ele>587.5</ele>
        <time>2013-11-16T09:39:07Z</time>
      </trkpt>
      <trkpt lat="45.83669" lon="4.78601">
        <ele>587.02</ele>
        <time>2013-11-16T09:39:08Z</time>
      </trkpt>
      <trkpt lat="45.83667" lon="4.78599">
        <ele>586.54</ele>
        <time>2013-11-16T09:39:09Z</time>
      </trkpt>
      <trkpt lat="45.83666" lon="4.78597">
        <ele>586.54</ele>
        <time>2013-11-16T09:39:10Z</time>
      </trkpt>
      <trkpt lat="45.83665" lon="4.78593">
        <ele>585.58</ele>
        <time>2013-11-16T09:39:11Z</time>
      </trkpt>
      <trkpt lat="45.83665" lon="4.78588">
        <ele>585.1</ele>
        <time>2013-11-16T09:39:12Z</time>
      </trkpt>
      <trkpt lat="45.83666" lon="4.78583">
        <ele>584.62</ele>
        <time>2013-11-16T09:39:13Z</time>
      </trkpt>
      <trkpt lat="45.83667" lon="4.78578">
        <ele>584.14</ele>
        <time>2013-11-16T09:39:14Z</time>
      </trkpt>
      <trkpt lat="45.83668" lon="4.78574">
        <ele>584.14</ele>
        <time>2013-11-16T09:39:15Z</time>
      </trkpt>
      <trkpt lat="45.83669" lon="4.78571">
        <ele>583.18</ele>
        <time>2013-11-16T09:39:16Z</time>
      </trkpt>
      <trkpt lat="45.83671" lon="4.78566">
        <ele>582.7</ele>
        <time>2013-11-16T09:39:19Z</time>
      </trkpt>
      <trkpt lat="45.83672" lon="4.78565">
        <ele>582.7</ele>
        <time>2013-11-16T09:39:20Z</time>
      </trkpt>
      <trkpt lat="45.83673" lon="4.78565">
        <ele>583.18</ele>
        <time>2013-11-16T09:39:21Z</time>
      </trkpt>
      <trkpt lat="45.83675" lon="4.78561">
        <ele>582.7</ele>
        <time>2013-11-16T09:39:24Z</time>
      </trkpt>
      <trkpt lat="45.83676" lon="4.78558">
        <ele>582.22</ele>
        <time>2013-11-16T09:39:25Z</time>
      </trkpt>
      <trkpt lat="45.83678" lon="4.78554">
        <ele>582.22</ele>
        <time>2013-11-16T09:39:26Z</time>
      </trkpt>
      <trkpt lat="45.83678" lon="4.7855">
        <ele>581.73</ele>
        <time>2013-11-16T09:39:27Z</time>
      </trkpt>
      <trkpt lat="45.83679" lon="4.78548">
        <ele>581.73</ele>
        <time>2013-11-16T09:39:28Z</time>
      </trkpt>
      <trkpt lat="45.83681" lon="4.78545">
        <ele>581.73</ele>
        <time>2013-11-16T09:39:29Z</time>
      </trkpt>
      <trkpt lat="45.83682" lon="4.78543">
        <ele>581.25</ele>
        <time>2013-11-16T09:39:30Z</time>
      </trkpt>
      <trkpt lat="45.83683" lon="4.78541">
        <ele>581.25</ele>
        <time>2013-11-16T09:39:31Z</time>
      </trkpt>
      <trkpt lat="45.83684" lon="4.78538">
        <ele>581.25</ele>
        <time>2013-11-16T09:39:32Z</time>
      </trkpt>
      <trkpt lat="45.83686" lon="4.78536">
        <ele>581.25</ele>
        <time>2013-11-16T09:39:33Z</time>
      </trkpt>
      <trkpt lat="45.83688" lon="4.78535">
        <ele>580.77</ele>
        <time>2013-11-16T09:39:34Z</time>
      </trkpt>
      <trkpt lat="45.8369" lon="4.78535">
        <ele>580.77</ele>
        <time>2013-11-16T09:39:35Z</time>
      </trkpt>
      <trkpt lat="45.83692" lon="4.78534">
        <ele>581.25</ele>
        <time>2013-11-16T09:39:36Z</time>
      </trkpt>
      <trkpt lat="45.83695" lon="4.78534">
        <ele>581.25</ele>
        <time>2013-11-16T09:39:37Z</time>
      </trkpt>
      <trkpt lat="45.83697" lon="4.78534">
        <ele>581.73</ele>
        <time>2013-11-16T09:39:38Z</time>
      </trkpt>
      <trkpt lat="45.83699" lon="4.78534">
        <ele>582.22</ele>
        <time>2013-11-16T09:39:39Z</time>
      </trkpt>
      <trkpt lat="45.83701" lon="4.78535">
        <ele>582.22</ele>
        <time>2013-11-16T09:39:40Z</time>
      </trkpt>
      <trkpt lat="45.83703" lon="4.78535">
        <ele>581.73</ele>
        <time>2013-11-16T09:39:41Z</time>
      </trkpt>
      <trkpt lat="45.83705" lon="4.78535">
        <ele>582.22</ele>
        <time>2013-11-16T09:39:42Z</time>
      </trkpt>
      <trkpt lat="45.83707" lon="4.78535">
        <ele>582.7</ele>
        <time>2013-11-16T09:39:43Z</time>
      </trkpt>
      <trkpt lat="45.83709" lon="4.78535">
        <ele>581.73</ele>
        <time>2013-11-16T09:39:44Z</time>
      </trkpt>
      <trkpt lat="45.83711" lon="4.78535">
        <ele>582.7</ele>
        <time>2013-11-16T09:39:45Z</time>
      </trkpt>
      <trkpt lat="45.83713" lon="4.78535">
        <ele>582.7</ele>
        <time>2013-11-16T09:39:46Z</time>
      </trkpt>
      <trkpt lat="45.83731" lon="4.78538">
        <ele>584.14</ele>
        <time>2013-11-16T09:39:56Z</time>
      </trkpt>
      <trkpt lat="45.8375" lon="4.78537">
        <ele>584.62</ele>
        <time>2013-11-16T09:40:06Z</time>
      </trkpt>
      <trkpt lat="45.83769" lon="4.78536">
        <ele>585.58</ele>
        <time>2013-11-16T09:40:16Z</time>
      </trkpt>
      <trkpt lat="45.83782" lon="4.78534">
        <ele>586.06</ele>
        <time>2013-11-16T09:40:24Z</time>
      </trkpt>
      <trkpt lat="45.83783" lon="4.78534">
        <ele>586.54</ele>
        <time>2013-11-16T09:40:25Z</time>
      </trkpt>
      <trkpt lat="45.83785" lon="4.78534">
        <ele>586.54</ele>
        <time>2013-11-16T09:40:26Z</time>
      </trkpt>
      <trkpt lat="45.83787" lon="4.78534">
        <ele>586.54</ele>
        <time>2013-11-16T09:40:27Z</time>
      </trkpt>
      <trkpt lat="45.83788" lon="4.78533">
        <ele>586.54</ele>
        <time>2013-11-16T09:40:28Z</time>
      </trkpt>
      <trkpt lat="45.83791" lon="4.78534">
        <ele>586.54</ele>
        <time>2013-11-16T09:40:30Z</time>
      </trkpt>
      <trkpt lat="45.83793" lon="4.78535">
        <ele>586.54</ele>
        <time>2013-11-16T09:40:31Z</time>
      </trkpt>
      <trkpt lat="45.83795" lon="4.78535">
        <ele>586.54</ele>
        <time>2013-11-16T09:40:32Z</time>
      </trkpt>
      <trkpt lat="45.83796" lon="4.78535">
        <ele>586.54</ele>
        <time>2013-11-16T09:40:33Z</time>
      </trkpt>
      <trkpt lat="45.83798" lon="4.78535">
        <ele>586.54</ele>
        <time>2013-11-16T09:40:34Z</time>
      </trkpt>
      <trkpt lat="45.83802" lon="4.78536">
        <ele>586.54</ele>
        <time>2013-11-16T09:40:36Z</time>
      </trkpt>
      <trkpt lat="45.83804" lon="4.78536">
        <ele>587.02</ele>
        <time>2013-11-16T09:40:37Z</time>
      </trkpt>
      <trkpt lat="45.83805" lon="4.78536">
        <ele>587.02</ele>
        <time>2013-11-16T09:40:38Z</time>
      </trkpt>
      <trkpt lat="45.83807" lon="4.78536">
        <ele>587.02</ele>
        <time>2013-11-16T09:40:39Z</time>
      </trkpt>
      <trkpt lat="45.83809" lon="4.78536">
        <ele>587.02</ele>
        <time>2013-11-16T09:40:40Z</time>
      </trkpt>
      <trkpt lat="45.83815" lon="4.78535">
        <ele>586.54</ele>
        <time>2013-11-16T09:40:44Z</time>
      </trkpt>
      <trkpt lat="45.83818" lon="4.78535">
        <ele>587.02</ele>
        <time>2013-11-16T09:40:46Z</time>
      </trkpt>
      <trkpt lat="45.83819" lon="4.78535">
        <ele>587.02</ele>
        <time>2013-11-16T09:40:47Z</time>
      </trkpt>
      <trkpt lat="45.83821" lon="4.78535">
        <ele>587.02</ele>
        <time>2013-11-16T09:40:48Z</time>
      </trkpt>
      <trkpt lat="45.83822" lon="4.78534">
        <ele>587.5</ele>
        <time>2013-11-16T09:40:49Z</time>
      </trkpt>
      <trkpt lat="45.83825" lon="4.78533">
        <ele>587.5</ele>
        <time>2013-11-16T09:40:52Z</time>
      </trkpt>
      <trkpt lat="45.83827" lon="4.78534">
        <ele>587.02</ele>
        <time>2013-11-16T09:40:53Z</time>
      </trkpt>
      <trkpt lat="45.83828" lon="4.78534">
        <ele>587.02</ele>
        <time>2013-11-16T09:40:54Z</time>
      </trkpt>
      <trkpt lat="45.83829" lon="4.78534">
        <ele>587.5</ele>
        <time>2013-11-16T09:40:55Z</time>
      </trkpt>
      <trkpt lat="45.83831" lon="4.78534">
        <ele>586.54</ele>
        <time>2013-11-16T09:41:05Z</time>
      </trkpt>
      <trkpt lat="45.83831" lon="4.78534">
        <ele>587.5</ele>
        <time>2013-11-16T09:41:24Z</time>
      </trkpt>
      <trkpt lat="45.83831" lon="4.78534">
        <ele>587.02</ele>
        <time>2013-11-16T09:41:35Z</time>
      </trkpt>
      <trkpt lat="45.83838" lon="4.78534">
        <ele>587.5</ele>
        <time>2013-11-16T09:41:45Z</time>
      </trkpt>
      <trkpt lat="45.83852" lon="4.78534">
        <ele>587.5</ele>
        <time>2013-11-16T09:41:54Z</time>
      </trkpt>
      <trkpt lat="45.83854" lon="4.78532">
        <ele>587.5</ele>
        <time>2013-11-16T09:42:02Z</time>
      </trkpt>
      <trkpt lat="45.83854" lon="4.78532">
        <ele>587.5</ele>
        <time>2013-11-16T09:42:14Z</time>
      </trkpt>
      <trkpt lat="45.83855" lon="4.78532">
        <ele>587.02</ele>
        <time>2013-11-16T09:42:17Z</time>
      </trkpt>
      <trkpt lat="45.83857" lon="4.78531">
        <ele>587.5</ele>
        <time>2013-11-16T09:42:18Z</time>
      </trkpt>
      <trkpt lat="45.83862" lon="4.7853">
        <ele>587.5</ele>
        <time>2013-11-16T09:42:23Z</time>
      </trkpt>
      <trkpt lat="45.83865" lon="4.78531">
        <ele>587.02</ele>
        <time>2013-11-16T09:42:26Z</time>
      </trkpt>
      <trkpt lat="45.83869" lon="4.78529">
        <ele>587.02</ele>
        <time>2013-11-16T09:42:31Z</time>
      </trkpt>
      <trkpt lat="45.83871" lon="4.78528">
        <ele>587.5</ele>
        <time>2013-11-16T09:42:32Z</time>
      </trkpt>
      <trkpt lat="45.83873" lon="4.78528">
        <ele>587.5</ele>
        <time>2013-11-16T09:42:33Z</time>
      </trkpt>
      <trkpt lat="45.83875" lon="4.78527">
        <ele>587.5</ele>
        <time>2013-11-16T09:42:34Z</time>
      </trkpt>
      <trkpt lat="45.83877" lon="4.78526">
        <ele>587.02</ele>
        <time>2013-11-16T09:42:35Z</time>
      </trkpt>
      <trkpt lat="45.83879" lon="4.78525">
        <ele>587.02</ele>
        <time>2013-11-16T09:42:36Z</time>
      </trkpt>
      <trkpt lat="45.83881" lon="4.78523">
        <ele>587.02</ele>
        <time>2013-11-16T09:42:37Z</time>
      </trkpt>
      <trkpt lat="45.83882" lon="4.78522">
        <ele>586.54</ele>
        <time>2013-11-16T09:42:38Z</time>
      </trkpt>
      <trkpt lat="45.83894" lon="4.78503">
        <ele>585.58</ele>
        <time>2013-11-16T09:42:46Z</time>
      </trkpt>
      <trkpt lat="45.83895" lon="4.78501">
        <ele>585.58</ele>
        <time>2013-11-16T09:42:47Z</time>
      </trkpt>
      <trkpt lat="45.83896" lon="4.785">
        <ele>585.1</ele>
        <time>2013-11-16T09:42:48Z</time>
      </trkpt>
      <trkpt lat="45.83898" lon="4.78499">
        <ele>585.1</ele>
        <time>2013-11-16T09:42:49Z</time>
      </trkpt>
      <trkpt lat="45.83906" lon="4.78496">
        <ele>584.14</ele>
        <time>2013-11-16T09:42:57Z</time>
      </trkpt>
      <trkpt lat="45.83906" lon="4.78496">
        <ele>584.14</ele>
        <time>2013-11-16T09:43:10Z</time>
      </trkpt>
      <trkpt lat="45.83906" lon="4.78496">
        <ele>584.62</ele>
        <time>2013-11-16T09:43:28Z</time>
      </trkpt>
      <trkpt lat="45.83905" lon="4.78496">
        <ele>584.14</ele>
        <time>2013-11-16T09:43:48Z</time>
      </trkpt>
      <trkpt lat="45.83905" lon="4.78496">
        <ele>583.66</ele>
        <time>2013-11-16T09:44:13Z</time>
      </trkpt>
      <trkpt lat="45.83905" lon="4.78496">
        <ele>584.14</ele>
        <time>2013-11-16T09:44:34Z</time>
      </trkpt>
      <trkpt lat="45.83905" lon="4.78496">
        <ele>581.25</ele>
        <time>2013-11-16T09:44:43Z</time>
      </trkpt>
      <trkpt lat="45.83905" lon="4.78496">
        <ele>585.58</ele>
        <time>2013-11-16T09:44:44Z</time>
      </trkpt>
      <trkpt lat="45.83905" lon="4.78496">
        <ele>581.25</ele>
        <time>2013-11-16T09:44:48Z</time>
      </trkpt>
      <trkpt lat="45.83905" lon="4.78496">
        <ele>584.62</ele>
        <time>2013-11-16T09:44:49Z</time>
      </trkpt>
      <trkpt lat="45.83905" lon="4.78495">
        <ele>584.14</ele>
        <time>2013-11-16T09:45:09Z</time>
      </trkpt>
      <trkpt lat="45.83906" lon="4.78495">
        <ele>584.14</ele>
        <time>2013-11-16T09:45:31Z</time>
      </trkpt>
      <trkpt lat="45.83906" lon="4.78495">
        <ele>584.14</ele>
        <time>2013-11-16T09:45:50Z</time>
      </trkpt>
      <trkpt lat="45.83906" lon="4.78495">
        <ele>583.66</ele>
        <time>2013-11-16T09:46:07Z</time>
      </trkpt>
      <trkpt lat="45.83906" lon="4.78495">
        <ele>583.66</ele>
        <time>2013-11-16T09:46:27Z</time>
      </trkpt>
      <trkpt lat="45.83909" lon="4.7849">
        <ele>582.22</ele>
        <time>2013-11-16T09:46:39Z</time>
      </trkpt>
      <trkpt lat="45.83913" lon="4.7848">
        <ele>580.77</ele>
        <time>2013-11-16T09:46:43Z</time>
      </trkpt>
      <trkpt lat="45.83914" lon="4.78477">
        <ele>579.81</ele>
        <time>2013-11-16T09:46:44Z</time>
      </trkpt>
      <trkpt lat="45.83914" lon="4.78474">
        <ele>579.33</ele>
        <time>2013-11-16T09:46:45Z</time>
      </trkpt>
      <trkpt lat="45.83916" lon="4.78472">
        <ele>578.85</ele>
        <time>2013-11-16T09:46:46Z</time>
      </trkpt>
      <trkpt lat="45.83921" lon="4.78465">
        <ele>577.41</ele>
        <time>2013-11-16T09:46:50Z</time>
      </trkpt>
      <trkpt lat="45.83923" lon="4.78461">
        <ele>575.97</ele>
        <time>2013-11-16T09:46:52Z</time>
      </trkpt>
      <trkpt lat="45.83923" lon="4.78458">
        <ele>575.49</ele>
        <time>2013-11-16T09:46:53Z</time>
      </trkpt>
      <trkpt lat="45.83923" lon="4.78456">
        <ele>574.53</ele>
        <time>2013-11-16T09:46:54Z</time>
      </trkpt>
      <trkpt lat="45.83922" lon="4.78453">
        <ele>573.56</ele>
        <time>2013-11-16T09:46:55Z</time>
      </trkpt>
      <trkpt lat="45.83923" lon="4.78451">
        <ele>573.56</ele>
        <time>2013-11-16T09:46:56Z</time>
      </trkpt>
      <trkpt lat="45.83928" lon="4.78448">
        <ele>573.08</ele>
        <time>2013-11-16T09:46:59Z</time>
      </trkpt>
      <trkpt lat="45.83929" lon="4.78445">
        <ele>572.12</ele>
        <time>2013-11-16T09:47:00Z</time>
      </trkpt>
      <trkpt lat="45.8393" lon="4.78443">
        <ele>572.12</ele>
        <time>2013-11-16T09:47:01Z</time>
      </trkpt>
      <trkpt lat="45.83934" lon="4.7844">
        <ele>570.2</ele>
        <time>2013-11-16T09:47:03Z</time>
      </trkpt>
      <trkpt lat="45.83937" lon="4.7844">
        <ele>570.2</ele>
        <time>2013-11-16T09:47:04Z</time>
      </trkpt>
      <trkpt lat="45.83939" lon="4.78438">
        <ele>569.72</ele>
        <time>2013-11-16T09:47:05Z</time>
      </trkpt>
      <trkpt lat="45.83941" lon="4.78436">
        <ele>569.24</ele>
        <time>2013-11-16T09:47:06Z</time>
      </trkpt>
      <trkpt lat="45.83944" lon="4.78435">
        <ele>569.24</ele>
        <time>2013-11-16T09:47:07Z</time>
      </trkpt>
      <trkpt lat="45.83946" lon="4.78433">
        <ele>568.28</ele>
        <time>2013-11-16T09:47:08Z</time>
      </trkpt>
      <trkpt lat="45.83949" lon="4.78429">
        <ele>567.8</ele>
        <time>2013-11-16T09:47:09Z</time>
      </trkpt>
      <trkpt lat="45.83951" lon="4.78424">
        <ele>567.32</ele>
        <time>2013-11-16T09:47:10Z</time>
      </trkpt>
      <trkpt lat="45.83953" lon="4.78419">
        <ele>566.83</ele>
        <time>2013-11-16T09:47:11Z</time>
      </trkpt>
      <trkpt lat="45.83956" lon="4.78415">
        <ele>566.35</ele>
        <time>2013-11-16T09:47:12Z</time>
      </trkpt>
      <trkpt lat="45.83957" lon="4.78412">
        <ele>566.35</ele>
        <time>2013-11-16T09:47:13Z</time>
      </trkpt>
      <trkpt lat="45.83959" lon="4.7841">
        <ele>565.87</ele>
        <time>2013-11-16T09:47:14Z</time>
      </trkpt>
      <trkpt lat="45.83962" lon="4.78409">
        <ele>565.87</ele>
        <time>2013-11-16T09:47:15Z</time>
      </trkpt>
      <trkpt lat="45.83964" lon="4.78408">
        <ele>564.91</ele>
        <time>2013-11-16T09:47:16Z</time>
      </trkpt>
      <trkpt lat="45.83967" lon="4.78408">
        <ele>565.39</ele>
        <time>2013-11-16T09:47:17Z</time>
      </trkpt>
      <trkpt lat="45.8397" lon="4.78408">
        <ele>565.39</ele>
        <time>2013-11-16T09:47:18Z</time>
      </trkpt>
      <trkpt lat="45.83973" lon="4.78408">
        <ele>565.39</ele>
        <time>2013-11-16T09:47:19Z</time>
      </trkpt>
      <trkpt lat="45.83975" lon="4.78408">
        <ele>565.39</ele>
        <time>2013-11-16T09:47:20Z</time>
      </trkpt>
      <trkpt lat="45.83977" lon="4.78408">
        <ele>565.87</ele>
        <time>2013-11-16T09:47:21Z</time>
      </trkpt>
      <trkpt lat="45.83981" lon="4.78407">
        <ele>565.39</ele>
        <time>2013-11-16T09:47:22Z</time>
      </trkpt>
      <trkpt lat="45.83985" lon="4.78406">
        <ele>565.39</ele>
        <time>2013-11-16T09:47:23Z</time>
      </trkpt>
      <trkpt lat="45.83999" lon="4.78403">
        <ele>563.95</ele>
        <time>2013-11-16T09:47:28Z</time>
      </trkpt>
      <trkpt lat="45.84002" lon="4.78404">
        <ele>564.91</ele>
        <time>2013-11-16T09:47:29Z</time>
      </trkpt>
      <trkpt lat="45.84005" lon="4.78405">
        <ele>564.91</ele>
        <time>2013-11-16T09:47:30Z</time>
      </trkpt>
      <trkpt lat="45.84019" lon="4.78417">
        <ele>567.8</ele>
        <time>2013-11-16T09:47:37Z</time>
      </trkpt>
      <trkpt lat="45.84021" lon="4.78418">
        <ele>567.8</ele>
        <time>2013-11-16T09:47:38Z</time>
      </trkpt>
      <trkpt lat="45.84022" lon="4.78419">
        <ele>567.8</ele>
        <time>2013-11-16T09:47:39Z</time>
      </trkpt>
      <trkpt lat="45.84025" lon="4.7842">
        <ele>567.8</ele>
        <time>2013-11-16T09:47:40Z</time>
      </trkpt>
      <trkpt lat="45.84027" lon="4.7842">
        <ele>567.8</ele>
        <time>2013-11-16T09:47:41Z</time>
      </trkpt>
      <trkpt lat="45.8403" lon="4.7842">
        <ele>567.8</ele>
        <time>2013-11-16T09:47:42Z</time>
      </trkpt>
      <trkpt lat="45.84062" lon="4.78419">
        <ele>566.83</ele>
        <time>2013-11-16T09:47:51Z</time>
      </trkpt>
      <trkpt lat="45.8407" lon="4.78416">
        <ele>565.39</ele>
        <time>2013-11-16T09:47:53Z</time>
      </trkpt>
      <trkpt lat="45.84072" lon="4.78413">
        <ele>564.91</ele>
        <time>2013-11-16T09:47:54Z</time>
      </trkpt>
      <trkpt lat="45.84076" lon="4.78412">
        <ele>564.91</ele>
        <time>2013-11-16T09:47:55Z</time>
      </trkpt>
      <trkpt lat="45.84093" lon="4.78402">
        <ele>562.03</ele>
        <time>2013-11-16T09:47:59Z</time>
      </trkpt>
      <trkpt lat="45.84122" lon="4.78389">
        <ele>559.14</ele>
        <time>2013-11-16T09:48:04Z</time>
      </trkpt>
      <trkpt lat="45.84128" lon="4.78386">
        <ele>558.18</ele>
        <time>2013-11-16T09:48:05Z</time>
      </trkpt>
      <trkpt lat="45.84134" lon="4.78382">
        <ele>557.22</ele>
        <time>2013-11-16T09:48:06Z</time>
      </trkpt>
      <trkpt lat="45.84138" lon="4.78377">
        <ele>556.74</ele>
        <time>2013-11-16T09:48:07Z</time>
      </trkpt>
      <trkpt lat="45.84152" lon="4.78358">
        <ele>553.38</ele>
        <time>2013-11-16T09:48:10Z</time>
      </trkpt>
      <trkpt lat="45.84156" lon="4.78355">
        <ele>552.9</ele>
        <time>2013-11-16T09:48:11Z</time>
      </trkpt>
      <trkpt lat="45.84159" lon="4.78352">
        <ele>551.93</ele>
        <time>2013-11-16T09:48:12Z</time>
      </trkpt>
      <trkpt lat="45.84162" lon="4.78348">
        <ele>551.93</ele>
        <time>2013-11-16T09:48:13Z</time>
      </trkpt>
      <trkpt lat="45.84166" lon="4.78344">
        <ele>551.45</ele>
        <time>2013-11-16T09:48:14Z</time>
      </trkpt>
      <trkpt lat="45.84169" lon="4.7834">
        <ele>550.97</ele>
        <time>2013-11-16T09:48:15Z</time>
      </trkpt>
      <trkpt lat="45.84172" lon="4.78335">
        <ele>550.97</ele>
        <time>2013-11-16T09:48:16Z</time>
      </trkpt>
      <trkpt lat="45.84175" lon="4.7833">
        <ele>550.97</ele>
        <time>2013-11-16T09:48:17Z</time>
      </trkpt>
      <trkpt lat="45.84178" lon="4.78325">
        <ele>550.01</ele>
        <time>2013-11-16T09:48:18Z</time>
      </trkpt>
      <trkpt lat="45.84181" lon="4.7832">
        <ele>550.49</ele>
        <time>2013-11-16T09:48:19Z</time>
      </trkpt>
      <trkpt lat="45.84186" lon="4.78306">
        <ele>550.01</ele>
        <time>2013-11-16T09:48:22Z</time>
      </trkpt>
      <trkpt lat="45.84189" lon="4.78302">
        <ele>550.49</ele>
        <time>2013-11-16T09:48:23Z</time>
      </trkpt>
      <trkpt lat="45.84192" lon="4.78297">
        <ele>550.49</ele>
        <time>2013-11-16T09:48:24Z</time>
      </trkpt>
      <trkpt lat="45.84196" lon="4.7829">
        <ele>550.49</ele>
        <time>2013-11-16T09:48:26Z</time>
      </trkpt>
      <trkpt lat="45.84198" lon="4.78288">
        <ele>550.97</ele>
        <time>2013-11-16T09:48:27Z</time>
      </trkpt>
      <trkpt lat="45.842" lon="4.78286">
        <ele>551.45</ele>
        <time>2013-11-16T09:48:28Z</time>
      </trkpt>
      <trkpt lat="45.84213" lon="4.78275">
        <ele>552.9</ele>
        <time>2013-11-16T09:48:34Z</time>
      </trkpt>
      <trkpt lat="45.84218" lon="4.78275">
        <ele>552.9</ele>
        <time>2013-11-16T09:48:37Z</time>
      </trkpt>
      <trkpt lat="45.8422" lon="4.78276">
        <ele>552.9</ele>
        <time>2013-11-16T09:48:38Z</time>
      </trkpt>
      <trkpt lat="45.84222" lon="4.78278">
        <ele>552.9</ele>
        <time>2013-11-16T09:48:39Z</time>
      </trkpt>
      <trkpt lat="45.84231" lon="4.78303">
        <ele>550.01</ele>
        <time>2013-11-16T09:48:46Z</time>
      </trkpt>
      <trkpt lat="45.84232" lon="4.78307">
        <ele>549.53</ele>
        <time>2013-11-16T09:48:47Z</time>
      </trkpt>
      <trkpt lat="45.84234" lon="4.78317">
        <ele>548.09</ele>
        <time>2013-11-16T09:48:50Z</time>
      </trkpt>
      <trkpt lat="45.84236" lon="4.78319">
        <ele>547.61</ele>
        <time>2013-11-16T09:48:51Z</time>
      </trkpt>
      <trkpt lat="45.84238" lon="4.78321">
        <ele>547.13</ele>
        <time>2013-11-16T09:48:52Z</time>
      </trkpt>
      <trkpt lat="45.8424" lon="4.78323">
        <ele>546.65</ele>
        <time>2013-11-16T09:48:53Z</time>
      </trkpt>
      <trkpt lat="45.84242" lon="4.78325">
        <ele>545.69</ele>
        <time>2013-11-16T09:48:54Z</time>
      </trkpt>
      <trkpt lat="45.84253" lon="4.78338">
        <ele>543.76</ele>
        <time>2013-11-16T09:49:00Z</time>
      </trkpt>
      <trkpt lat="45.84255" lon="4.78341">
        <ele>543.28</ele>
        <time>2013-11-16T09:49:01Z</time>
      </trkpt>
      <trkpt lat="45.84258" lon="4.78342">
        <ele>543.28</ele>
        <time>2013-11-16T09:49:02Z</time>
      </trkpt>
      <trkpt lat="45.84262" lon="4.7834">
        <ele>543.28</ele>
        <time>2013-11-16T09:49:03Z</time>
      </trkpt>
      <trkpt lat="45.84264" lon="4.78338">
        <ele>542.32</ele>
        <time>2013-11-16T09:49:04Z</time>
      </trkpt>
      <trkpt lat="45.84267" lon="4.78335">
        <ele>542.8</ele>
        <time>2013-11-16T09:49:05Z</time>
      </trkpt>
      <trkpt lat="45.8427" lon="4.78331">
        <ele>542.32</ele>
        <time>2013-11-16T09:49:06Z</time>
      </trkpt>
      <trkpt lat="45.84273" lon="4.78328">
        <ele>542.8</ele>
        <time>2013-11-16T09:49:07Z</time>
      </trkpt>
      <trkpt lat="45.84275" lon="4.78325">
        <ele>542.32</ele>
        <time>2013-11-16T09:49:08Z</time>
      </trkpt>
      <trkpt lat="45.84278" lon="4.78324">
        <ele>542.32</ele>
        <time>2013-11-16T09:49:09Z</time>
      </trkpt>
      <trkpt lat="45.84281" lon="4.78324">
        <ele>541.84</ele>
        <time>2013-11-16T09:49:10Z</time>
      </trkpt>
      <trkpt lat="45.84284" lon="4.78324">
        <ele>541.84</ele>
        <time>2013-11-16T09:49:11Z</time>
      </trkpt>
      <trkpt lat="45.8431" lon="4.78322">
        <ele>540.4</ele>
        <time>2013-11-16T09:49:19Z</time>
      </trkpt>
      <trkpt lat="45.84347" lon="4.78327">
        <ele>537.51</ele>
        <time>2013-11-16T09:49:27Z</time>
      </trkpt>
      <trkpt lat="45.84352" lon="4.78328">
        <ele>537.51</ele>
        <time>2013-11-16T09:49:28Z</time>
      </trkpt>
      <trkpt lat="45.84357" lon="4.7833">
        <ele>537.03</ele>
        <time>2013-11-16T09:49:29Z</time>
      </trkpt>
      <trkpt lat="45.84362" lon="4.78332">
        <ele>536.55</ele>
        <time>2013-11-16T09:49:30Z</time>
      </trkpt>
      <trkpt lat="45.84367" lon="4.78335">
        <ele>536.55</ele>
        <time>2013-11-16T09:49:31Z</time>
      </trkpt>
      <trkpt lat="45.84372" lon="4.78339">
        <ele>536.07</ele>
        <time>2013-11-16T09:49:32Z</time>
      </trkpt>
      <trkpt lat="45.84377" lon="4.78344">
        <ele>536.55</ele>
        <time>2013-11-16T09:49:33Z</time>
      </trkpt>
      <trkpt lat="45.84396" lon="4.78361">
        <ele>534.15</ele>
        <time>2013-11-16T09:49:39Z</time>
      </trkpt>
      <trkpt lat="45.84407" lon="4.78372">
        <ele>533.19</ele>
        <time>2013-11-16T09:49:42Z</time>
      </trkpt>
      <trkpt lat="45.84411" lon="4.78376">
        <ele>533.19</ele>
        <time>2013-11-16T09:49:43Z</time>
      </trkpt>
      <trkpt lat="45.84435" lon="4.78394">
        <ele>531.75</ele>
        <time>2013-11-16T09:49:48Z</time>
      </trkpt>
      <trkpt lat="45.8444" lon="4.78396">
        <ele>531.27</ele>
        <time>2013-11-16T09:49:49Z</time>
      </trkpt>
      <trkpt lat="45.84467" lon="4.78416">
        <ele>529.34</ele>
        <time>2013-11-16T09:49:56Z</time>
      </trkpt>
      <trkpt lat="45.8449" lon="4.78459">
        <ele>527.42</ele>
        <time>2013-11-16T09:50:05Z</time>
      </trkpt>
      <trkpt lat="45.84498" lon="4.78473">
        <ele>526.46</ele>
        <time>2013-11-16T09:50:08Z</time>
      </trkpt>
      <trkpt lat="45.84514" lon="4.78496">
        <ele>524.54</ele>
        <time>2013-11-16T09:50:13Z</time>
      </trkpt>
      <trkpt lat="45.84517" lon="4.785">
        <ele>524.54</ele>
        <time>2013-11-16T09:50:14Z</time>
      </trkpt>
      <trkpt lat="45.84521" lon="4.78504">
        <ele>525.02</ele>
        <time>2013-11-16T09:50:15Z</time>
      </trkpt>
      <trkpt lat="45.84524" lon="4.78508">
        <ele>524.54</ele>
        <time>2013-11-16T09:50:16Z</time>
      </trkpt>
      <trkpt lat="45.84529" lon="4.78512">
        <ele>524.06</ele>
        <time>2013-11-16T09:50:17Z</time>
      </trkpt>
      <trkpt lat="45.84533" lon="4.78516">
        <ele>524.06</ele>
        <time>2013-11-16T09:50:18Z</time>
      </trkpt>
      <trkpt lat="45.84538" lon="4.7852">
        <ele>523.58</ele>
        <time>2013-11-16T09:50:19Z</time>
      </trkpt>
      <trkpt lat="45.84564" lon="4.78529">
        <ele>522.13</ele>
        <time>2013-11-16T09:50:26Z</time>
      </trkpt>
      <trkpt lat="45.84566" lon="4.7853">
        <ele>521.65</ele>
        <time>2013-11-16T09:50:27Z</time>
      </trkpt>
      <trkpt lat="45.84567" lon="4.78532">
        <ele>521.65</ele>
        <time>2013-11-16T09:50:28Z</time>
      </trkpt>
      <trkpt lat="45.84567" lon="4.78535">
        <ele>521.65</ele>
        <time>2013-11-16T09:50:30Z</time>
      </trkpt>
      <trkpt lat="45.84569" lon="4.78545">
        <ele>518.29</ele>
        <time>2013-11-16T09:50:34Z</time>
      </trkpt>
      <trkpt lat="45.84571" lon="4.78555">
        <ele>514.92</ele>
        <time>2013-11-16T09:50:41Z</time>
      </trkpt>
      <trkpt lat="45.84571" lon="4.78556">
        <ele>515.4</ele>
        <time>2013-11-16T09:50:44Z</time>
      </trkpt>
      <trkpt lat="45.84571" lon="4.78561">
        <ele>514.92</ele>
        <time>2013-11-16T09:50:55Z</time>
      </trkpt>
      <trkpt lat="45.84571" lon="4.78561">
        <ele>514.44</ele>
        <time>2013-11-16T09:51:09Z</time>
      </trkpt>
      <trkpt lat="45.84571" lon="4.78562">
        <ele>514.44</ele>
        <time>2013-11-16T09:51:19Z</time>
      </trkpt>
      <trkpt lat="45.84576" lon="4.78568">
        <ele>512.04</ele>
        <time>2013-11-16T09:51:26Z</time>
      </trkpt>
      <trkpt lat="45.8458" lon="4.78578">
        <ele>510.12</ele>
        <time>2013-11-16T09:51:35Z</time>
      </trkpt>
      <trkpt lat="45.84581" lon="4.78595">
        <ele>506.27</ele>
        <time>2013-11-16T09:51:40Z</time>
      </trkpt>
      <trkpt lat="45.84583" lon="4.78606">
        <ele>502.91</ele>
        <time>2013-11-16T09:51:45Z</time>
      </trkpt>
      <trkpt lat="45.84584" lon="4.78611">
        <ele>501.46</ele>
        <time>2013-11-16T09:51:47Z</time>
      </trkpt>
      <trkpt lat="45.84583" lon="4.78623">
        <ele>497.62</ele>
        <time>2013-11-16T09:51:55Z</time>
      </trkpt>
      <trkpt lat="45.84582" lon="4.78626">
        <ele>497.62</ele>
        <time>2013-11-16T09:52:11Z</time>
      </trkpt>
      <trkpt lat="45.84583" lon="4.78628">
        <ele>497.14</ele>
        <time>2013-11-16T09:52:21Z</time>
      </trkpt>
      <trkpt lat="45.84584" lon="4.78631">
        <ele>497.14</ele>
        <time>2013-11-16T09:52:26Z</time>
      </trkpt>
      <trkpt lat="45.84589" lon="4.78644">
        <ele>494.74</ele>
        <time>2013-11-16T09:52:33Z</time>
      </trkpt>
      <trkpt lat="45.8459" lon="4.78647">
        <ele>494.74</ele>
        <time>2013-11-16T09:52:34Z</time>
      </trkpt>
      <trkpt lat="45.84591" lon="4.78652">
        <ele>492.81</ele>
        <time>2013-11-16T09:52:36Z</time>
      </trkpt>
      <trkpt lat="45.84592" lon="4.78656">
        <ele>491.85</ele>
        <time>2013-11-16T09:52:38Z</time>
      </trkpt>
      <trkpt lat="45.84596" lon="4.78661">
        <ele>490.41</ele>
        <time>2013-11-16T09:52:47Z</time>
      </trkpt>
      <trkpt lat="45.84599" lon="4.78665">
        <ele>489.45</ele>
        <time>2013-11-16T09:52:50Z</time>
      </trkpt>
      <trkpt lat="45.84601" lon="4.7867">
        <ele>488.49</ele>
        <time>2013-11-16T09:52:52Z</time>
      </trkpt>
      <trkpt lat="45.84603" lon="4.78682">
        <ele>486.56</ele>
        <time>2013-11-16T09:52:56Z</time>
      </trkpt>
      <trkpt lat="45.84605" lon="4.78689">
        <ele>484.16</ele>
        <time>2013-11-16T09:53:04Z</time>
      </trkpt>
      <trkpt lat="45.84606" lon="4.78692">
        <ele>483.2</ele>
        <time>2013-11-16T09:53:06Z</time>
      </trkpt>
      <trkpt lat="45.84609" lon="4.78699">
        <ele>482.24</ele>
        <time>2013-11-16T09:53:10Z</time>
      </trkpt>
      <trkpt lat="45.84612" lon="4.78712">
        <ele>479.84</ele>
        <time>2013-11-16T09:53:15Z</time>
      </trkpt>
      <trkpt lat="45.84615" lon="4.78714">
        <ele>479.84</ele>
        <time>2013-11-16T09:53:25Z</time>
      </trkpt>
      <trkpt lat="45.84615" lon="4.78714">
        <ele>480.32</ele>
        <time>2013-11-16T09:53:43Z</time>
      </trkpt>
      <trkpt lat="45.84615" lon="4.78714">
        <ele>479.84</ele>
        <time>2013-11-16T09:53:57Z</time>
      </trkpt>
      <trkpt lat="45.84616" lon="4.78714">
        <ele>479.35</ele>
        <time>2013-11-16T09:54:18Z</time>
      </trkpt>
      <trkpt lat="45.84616" lon="4.78714">
        <ele>480.32</ele>
        <time>2013-11-16T09:54:35Z</time>
      </trkpt>
      <trkpt lat="45.84616" lon="4.78715">
        <ele>479.35</ele>
        <time>2013-11-16T09:54:49Z</time>
      </trkpt>
      <trkpt lat="45.84616" lon="4.78715">
        <ele>479.84</ele>
        <time>2013-11-16T09:55:12Z</time>
      </trkpt>
      <trkpt lat="45.84616" lon="4.78715">
        <ele>480.32</ele>
        <time>2013-11-16T09:55:13Z</time>
      </trkpt>
      <trkpt lat="45.84622" lon="4.78729">
        <ele>477.91</ele>
        <time>2013-11-16T09:55:19Z</time>
      </trkpt>
      <trkpt lat="45.84624" lon="4.78738">
        <ele>477.43</ele>
        <time>2013-11-16T09:55:21Z</time>
      </trkpt>
      <trkpt lat="45.84624" lon="4.78763">
        <ele>474.55</ele>
        <time>2013-11-16T09:55:26Z</time>
      </trkpt>
      <trkpt lat="45.84631" lon="4.78784">
        <ele>472.14</ele>
        <time>2013-11-16T09:55:31Z</time>
      </trkpt>
      <trkpt lat="45.84643" lon="4.78808">
        <ele>468.78</ele>
        <time>2013-11-16T09:55:37Z</time>
      </trkpt>
      <trkpt lat="45.84655" lon="4.78822">
        <ele>466.86</ele>
        <time>2013-11-16T09:55:40Z</time>
      </trkpt>
      <trkpt lat="45.84668" lon="4.78835">
        <ele>463.49</ele>
        <time>2013-11-16T09:55:43Z</time>
      </trkpt>
      <trkpt lat="45.84673" lon="4.7884">
        <ele>463.49</ele>
        <time>2013-11-16T09:55:44Z</time>
      </trkpt>
      <trkpt lat="45.84683" lon="4.78848">
        <ele>462.05</ele>
        <time>2013-11-16T09:55:46Z</time>
      </trkpt>
      <trkpt lat="45.84706" lon="4.78861">
        <ele>459.65</ele>
        <time>2013-11-16T09:55:50Z</time>
      </trkpt>
      <trkpt lat="45.84726" lon="4.78871">
        <ele>458.21</ele>
        <time>2013-11-16T09:55:53Z</time>
      </trkpt>
      <trkpt lat="45.84744" lon="4.78884">
        <ele>455.8</ele>
        <time>2013-11-16T09:55:56Z</time>
      </trkpt>
      <trkpt lat="45.8475" lon="4.78889">
        <ele>455.32</ele>
        <time>2013-11-16T09:55:57Z</time>
      </trkpt>
      <trkpt lat="45.84761" lon="4.78901">
        <ele>453.88</ele>
        <time>2013-11-16T09:55:59Z</time>
      </trkpt>
      <trkpt lat="45.84766" lon="4.78908">
        <ele>453.4</ele>
        <time>2013-11-16T09:56:00Z</time>
      </trkpt>
      <trkpt lat="45.84771" lon="4.78915">
        <ele>452.92</ele>
        <time>2013-11-16T09:56:01Z</time>
      </trkpt>
      <trkpt lat="45.84781" lon="4.7893">
        <ele>451.96</ele>
        <time>2013-11-16T09:56:03Z</time>
      </trkpt>
      <trkpt lat="45.84799" lon="4.78951">
        <ele>450.52</ele>
        <time>2013-11-16T09:56:06Z</time>
      </trkpt>
      <trkpt lat="45.84804" lon="4.78958">
        <ele>449.07</ele>
        <time>2013-11-16T09:56:07Z</time>
      </trkpt>
      <trkpt lat="45.8481" lon="4.78966">
        <ele>448.59</ele>
        <time>2013-11-16T09:56:08Z</time>
      </trkpt>
      <trkpt lat="45.84834" lon="4.7901">
        <ele>446.19</ele>
        <time>2013-11-16T09:56:14Z</time>
      </trkpt>
      <trkpt lat="45.84849" lon="4.79037">
        <ele>445.23</ele>
        <time>2013-11-16T09:56:21Z</time>
      </trkpt>
      <trkpt lat="45.8485" lon="4.7904">
        <ele>445.23</ele>
        <time>2013-11-16T09:56:30Z</time>
      </trkpt>
      <trkpt lat="45.84852" lon="4.79042">
        <ele>444.75</ele>
        <time>2013-11-16T09:56:40Z</time>
      </trkpt>
      <trkpt lat="45.84852" lon="4.79042">
        <ele>445.23</ele>
        <time>2013-11-16T09:56:55Z</time>
      </trkpt>
      <trkpt lat="45.84854" lon="4.79042">
        <ele>444.75</ele>
        <time>2013-11-16T09:57:03Z</time>
      </trkpt>
      <trkpt lat="45.84853" lon="4.79041">
        <ele>445.23</ele>
        <time>2013-11-16T09:57:11Z</time>
      </trkpt>
      <trkpt lat="45.84853" lon="4.79041">
        <ele>444.75</ele>
        <time>2013-11-16T09:57:40Z</time>
      </trkpt>
      <trkpt lat="45.84853" lon="4.79041">
        <ele>444.27</ele>
        <time>2013-11-16T09:58:06Z</time>
      </trkpt>
      <trkpt lat="45.84853" lon="4.79041">
        <ele>444.75</ele>
        <time>2013-11-16T09:58:31Z</time>
      </trkpt>
      <trkpt lat="45.84853" lon="4.79041">
        <ele>444.27</ele>
        <time>2013-11-16T09:58:55Z</time>
      </trkpt>
      <trkpt lat="45.84853" lon="4.79041">
        <ele>444.27</ele>
        <time>2013-11-16T09:59:17Z</time>
      </trkpt>
      <trkpt lat="45.84853" lon="4.79041">
        <ele>443.79</ele>
        <time>2013-11-16T09:59:44Z</time>
      </trkpt>
      <trkpt lat="45.84853" lon="4.79041">
        <ele>444.27</ele>
        <time>2013-11-16T10:00:12Z</time>
      </trkpt>
      <trkpt lat="45.84854" lon="4.79041">
        <ele>443.79</ele>
        <time>2013-11-16T10:00:34Z</time>
      </trkpt>
      <trkpt lat="45.84854" lon="4.79041">
        <ele>443.31</ele>
        <time>2013-11-16T10:01:03Z</time>
      </trkpt>
      <trkpt lat="45.84854" lon="4.79041">
        <ele>443.79</ele>
        <time>2013-11-16T10:01:14Z</time>
      </trkpt>
      <trkpt lat="45.84855" lon="4.79044">
        <ele>442.82</ele>
        <time>2013-11-16T10:01:25Z</time>
      </trkpt>
      <trkpt lat="45.84857" lon="4.79047">
        <ele>443.31</ele>
        <time>2013-11-16T10:01:39Z</time>
      </trkpt>
      <trkpt lat="45.84874" lon="4.79064">
        <ele>442.34</ele>
        <time>2013-11-16T10:01:47Z</time>
      </trkpt>
      <trkpt lat="45.8488" lon="4.79077">
        <ele>441.86</ele>
        <time>2013-11-16T10:01:50Z</time>
      </trkpt>
      <trkpt lat="45.84881" lon="4.79083">
        <ele>441.86</ele>
        <time>2013-11-16T10:01:51Z</time>
      </trkpt>
      <trkpt lat="45.84884" lon="4.79114">
        <ele>440.9</ele>
        <time>2013-11-16T10:01:55Z</time>
      </trkpt>
      <trkpt lat="45.84886" lon="4.79159">
        <ele>438.02</ele>
        <time>2013-11-16T10:02:00Z</time>
      </trkpt>
      <trkpt lat="45.84886" lon="4.79173">
        <ele>438.98</ele>
        <time>2013-11-16T10:02:02Z</time>
      </trkpt>
      <trkpt lat="45.84887" lon="4.7918">
        <ele>439.46</ele>
        <time>2013-11-16T10:02:03Z</time>
      </trkpt>
      <trkpt lat="45.84888" lon="4.79186">
        <ele>439.94</ele>
        <time>2013-11-16T10:02:04Z</time>
      </trkpt>
      <trkpt lat="45.84888" lon="4.79192">
        <ele>440.42</ele>
        <time>2013-11-16T10:02:05Z</time>
      </trkpt>
      <trkpt lat="45.84888" lon="4.79196">
        <ele>440.42</ele>
        <time>2013-11-16T10:02:06Z</time>
      </trkpt>
      <trkpt lat="45.84888" lon="4.792">
        <ele>440.9</ele>
        <time>2013-11-16T10:02:07Z</time>
      </trkpt>
      <trkpt lat="45.84887" lon="4.79204">
        <ele>441.38</ele>
        <time>2013-11-16T10:02:08Z</time>
      </trkpt>
      <trkpt lat="45.84887" lon="4.79207">
        <ele>441.38</ele>
        <time>2013-11-16T10:02:09Z</time>
      </trkpt>
      <trkpt lat="45.84887" lon="4.7921">
        <ele>441.86</ele>
        <time>2013-11-16T10:02:10Z</time>
      </trkpt>
      <trkpt lat="45.84887" lon="4.79213">
        <ele>442.34</ele>
        <time>2013-11-16T10:02:11Z</time>
      </trkpt>
      <trkpt lat="45.84888" lon="4.79216">
        <ele>442.34</ele>
        <time>2013-11-16T10:02:12Z</time>
      </trkpt>
      <trkpt lat="45.84888" lon="4.79219">
        <ele>442.82</ele>
        <time>2013-11-16T10:02:13Z</time>
      </trkpt>
      <trkpt lat="45.84891" lon="4.79238">
        <ele>444.27</ele>
        <time>2013-11-16T10:02:19Z</time>
      </trkpt>
      <trkpt lat="45.84892" lon="4.79241">
        <ele>444.75</ele>
        <time>2013-11-16T10:02:20Z</time>
      </trkpt>
      <trkpt lat="45.84893" lon="4.79244">
        <ele>444.75</ele>
        <time>2013-11-16T10:02:21Z</time>
      </trkpt>
      <trkpt lat="45.84894" lon="4.79247">
        <ele>444.75</ele>
        <time>2013-11-16T10:02:22Z</time>
      </trkpt>
      <trkpt lat="45.84895" lon="4.7925">
        <ele>445.23</ele>
        <time>2013-11-16T10:02:23Z</time>
      </trkpt>
      <trkpt lat="45.84908" lon="4.79272">
        <ele>447.15</ele>
        <time>2013-11-16T10:02:32Z</time>
      </trkpt>
      <trkpt lat="45.84916" lon="4.79283">
        <ele>448.59</ele>
        <time>2013-11-16T10:02:40Z</time>
      </trkpt>
      <trkpt lat="45.84918" lon="4.79284">
        <ele>448.59</ele>
        <time>2013-11-16T10:02:41Z</time>
      </trkpt>
      <trkpt lat="45.84919" lon="4.79285">
        <ele>448.59</ele>
        <time>2013-11-16T10:02:42Z</time>
      </trkpt>
      <trkpt lat="45.8492" lon="4.79286">
        <ele>449.07</ele>
        <time>2013-11-16T10:02:43Z</time>
      </trkpt>
      <trkpt lat="45.84922" lon="4.79288">
        <ele>449.07</ele>
        <time>2013-11-16T10:02:44Z</time>
      </trkpt>
      <trkpt lat="45.84924" lon="4.79289">
        <ele>449.55</ele>
        <time>2013-11-16T10:02:45Z</time>
      </trkpt>
      <trkpt lat="45.84934" lon="4.79294">
        <ele>451</ele>
        <time>2013-11-16T10:02:53Z</time>
      </trkpt>
      <trkpt lat="45.84948" lon="4.79296">
        <ele>451.96</ele>
        <time>2013-11-16T10:03:02Z</time>
      </trkpt>
      <trkpt lat="45.84959" lon="4.79302">
        <ele>452.44</ele>
        <time>2013-11-16T10:03:07Z</time>
      </trkpt>
      <trkpt lat="45.84961" lon="4.79302">
        <ele>452.92</ele>
        <time>2013-11-16T10:03:08Z</time>
      </trkpt>
      <trkpt lat="45.84963" lon="4.79303">
        <ele>452.92</ele>
        <time>2013-11-16T10:03:09Z</time>
      </trkpt>
      <trkpt lat="45.84964" lon="4.79302">
        <ele>452.92</ele>
        <time>2013-11-16T10:03:10Z</time>
      </trkpt>
      <trkpt lat="45.84962" lon="4.79291">
        <ele>453.88</ele>
        <time>2013-11-16T10:03:17Z</time>
      </trkpt>
      <trkpt lat="45.8496" lon="4.79289">
        <ele>454.36</ele>
        <time>2013-11-16T10:03:20Z</time>
      </trkpt>
      <trkpt lat="45.84956" lon="4.79279">
        <ele>456.28</ele>
        <time>2013-11-16T10:03:27Z</time>
      </trkpt>
      <trkpt lat="45.84951" lon="4.79271">
        <ele>456.28</ele>
        <time>2013-11-16T10:03:32Z</time>
      </trkpt>
      <trkpt lat="45.84944" lon="4.79254">
        <ele>458.21</ele>
        <time>2013-11-16T10:03:43Z</time>
      </trkpt>
      <trkpt lat="45.84943" lon="4.79249">
        <ele>459.17</ele>
        <time>2013-11-16T10:03:47Z</time>
      </trkpt>
      <trkpt lat="45.84945" lon="4.79244">
        <ele>459.65</ele>
        <time>2013-11-16T10:03:51Z</time>
      </trkpt>
      <trkpt lat="45.84952" lon="4.79242">
        <ele>461.57</ele>
        <time>2013-11-16T10:04:00Z</time>
      </trkpt>
      <trkpt lat="45.84957" lon="4.7924">
        <ele>462.05</ele>
        <time>2013-11-16T10:04:05Z</time>
      </trkpt>
      <trkpt lat="45.84971" lon="4.79239">
        <ele>463.97</ele>
        <time>2013-11-16T10:04:16Z</time>
      </trkpt>
      <trkpt lat="45.84972" lon="4.79239">
        <ele>463.97</ele>
        <time>2013-11-16T10:04:17Z</time>
      </trkpt>
      <trkpt lat="45.8499" lon="4.79241">
        <ele>464.93</ele>
        <time>2013-11-16T10:04:30Z</time>
      </trkpt>
      <trkpt lat="45.85003" lon="4.79242">
        <ele>465.9</ele>
        <time>2013-11-16T10:04:39Z</time>
      </trkpt>
      <trkpt lat="45.85007" lon="4.79242">
        <ele>465.9</ele>
        <time>2013-11-16T10:04:42Z</time>
      </trkpt>
      <trkpt lat="45.85013" lon="4.79242">
        <ele>466.86</ele>
        <time>2013-11-16T10:04:45Z</time>
      </trkpt>
      <trkpt lat="45.85022" lon="4.79243">
        <ele>467.82</ele>
        <time>2013-11-16T10:04:51Z</time>
      </trkpt>
      <trkpt lat="45.85036" lon="4.79248">
        <ele>468.3</ele>
        <time>2013-11-16T10:05:00Z</time>
      </trkpt>
      <trkpt lat="45.85048" lon="4.79251">
        <ele>469.26</ele>
        <time>2013-11-16T10:05:07Z</time>
      </trkpt>
      <trkpt lat="45.85058" lon="4.79248">
        <ele>469.74</ele>
        <time>2013-11-16T10:05:14Z</time>
      </trkpt>
      <trkpt lat="45.85061" lon="4.79253">
        <ele>470.22</ele>
        <time>2013-11-16T10:05:18Z</time>
      </trkpt>
      <trkpt lat="45.85063" lon="4.79259">
        <ele>470.7</ele>
        <time>2013-11-16T10:05:22Z</time>
      </trkpt>
      <trkpt lat="45.85078" lon="4.7927">
        <ele>471.66</ele>
        <time>2013-11-16T10:05:30Z</time>
      </trkpt>
      <trkpt lat="45.85093" lon="4.7927">
        <ele>473.59</ele>
        <time>2013-11-16T10:05:40Z</time>
      </trkpt>
      <trkpt lat="45.85109" lon="4.79271">
        <ele>475.03</ele>
        <time>2013-11-16T10:05:51Z</time>
      </trkpt>
      <trkpt lat="45.85121" lon="4.79272">
        <ele>476.95</ele>
        <time>2013-11-16T10:06:00Z</time>
      </trkpt>
      <trkpt lat="45.85138" lon="4.79276">
        <ele>476.95</ele>
        <time>2013-11-16T10:06:10Z</time>
      </trkpt>
      <trkpt lat="45.85156" lon="4.7927">
        <ele>478.39</ele>
        <time>2013-11-16T10:06:19Z</time>
      </trkpt>
      <trkpt lat="45.85173" lon="4.79274">
        <ele>477.43</ele>
        <time>2013-11-16T10:06:28Z</time>
      </trkpt>
      <trkpt lat="45.85174" lon="4.79275">
        <ele>476.95</ele>
        <time>2013-11-16T10:06:29Z</time>
      </trkpt>
      <trkpt lat="45.8518" lon="4.79281">
        <ele>475.03</ele>
        <time>2013-11-16T10:06:33Z</time>
      </trkpt>
      <trkpt lat="45.85184" lon="4.79283">
        <ele>474.55</ele>
        <time>2013-11-16T10:06:35Z</time>
      </trkpt>
      <trkpt lat="45.85188" lon="4.79286">
        <ele>473.59</ele>
        <time>2013-11-16T10:06:37Z</time>
      </trkpt>
      <trkpt lat="45.85202" lon="4.79302">
        <ele>469.74</ele>
        <time>2013-11-16T10:06:43Z</time>
      </trkpt>
      <trkpt lat="45.85207" lon="4.79307">
        <ele>468.3</ele>
        <time>2013-11-16T10:06:45Z</time>
      </trkpt>
      <trkpt lat="45.85221" lon="4.79318">
        <ele>464.45</ele>
        <time>2013-11-16T10:06:50Z</time>
      </trkpt>
      <trkpt lat="45.85229" lon="4.79326">
        <ele>461.57</ele>
        <time>2013-11-16T10:06:55Z</time>
      </trkpt>
      <trkpt lat="45.8524" lon="4.79331">
        <ele>460.13</ele>
        <time>2013-11-16T10:07:04Z</time>
      </trkpt>
      <trkpt lat="45.85243" lon="4.79333">
        <ele>459.17</ele>
        <time>2013-11-16T10:07:14Z</time>
      </trkpt>
      <trkpt lat="45.85244" lon="4.79333">
        <ele>458.21</ele>
        <time>2013-11-16T10:07:25Z</time>
      </trkpt>
      <trkpt lat="45.85246" lon="4.79332">
        <ele>457.72</ele>
        <time>2013-11-16T10:07:34Z</time>
      </trkpt>
      <trkpt lat="45.85249" lon="4.79332">
        <ele>457.72</ele>
        <time>2013-11-16T10:07:42Z</time>
      </trkpt>
      <trkpt lat="45.85261" lon="4.7933">
        <ele>455.8</ele>
        <time>2013-11-16T10:07:49Z</time>
      </trkpt>
      <trkpt lat="45.85263" lon="4.79329">
        <ele>455.32</ele>
        <time>2013-11-16T10:07:50Z</time>
      </trkpt>
      <trkpt lat="45.85274" lon="4.7933">
        <ele>452.92</ele>
        <time>2013-11-16T10:07:54Z</time>
      </trkpt>
      <trkpt lat="45.85292" lon="4.79331">
        <ele>449.55</ele>
        <time>2013-11-16T10:08:00Z</time>
      </trkpt>
      <trkpt lat="45.85296" lon="4.79333">
        <ele>449.55</ele>
        <time>2013-11-16T10:08:01Z</time>
      </trkpt>
      <trkpt lat="45.85318" lon="4.79342">
        <ele>445.71</ele>
        <time>2013-11-16T10:08:05Z</time>
      </trkpt>
      <trkpt lat="45.85326" lon="4.79345">
        <ele>445.71</ele>
        <time>2013-11-16T10:08:06Z</time>
      </trkpt>
      <trkpt lat="45.85348" lon="4.79356">
        <ele>444.27</ele>
        <time>2013-11-16T10:08:11Z</time>
      </trkpt>
      <trkpt lat="45.85375" lon="4.79371">
        <ele>444.27</ele>
        <time>2013-11-16T10:08:18Z</time>
      </trkpt>
      <trkpt lat="45.85384" lon="4.79353">
        <ele>445.71</ele>
        <time>2013-11-16T10:08:25Z</time>
      </trkpt>
      <trkpt lat="45.85391" lon="4.79312">
        <ele>447.63</ele>
        <time>2013-11-16T10:08:37Z</time>
      </trkpt>
      <trkpt lat="45.85393" lon="4.79304">
        <ele>447.63</ele>
        <time>2013-11-16T10:08:40Z</time>
      </trkpt>
      <trkpt lat="45.85396" lon="4.79299">
        <ele>448.11</ele>
        <time>2013-11-16T10:08:50Z</time>
      </trkpt>
      <trkpt lat="45.85396" lon="4.79299">
        <ele>449.07</ele>
        <time>2013-11-16T10:09:04Z</time>
      </trkpt>
      <trkpt lat="45.85396" lon="4.79299">
        <ele>448.11</ele>
        <time>2013-11-16T10:09:29Z</time>
      </trkpt>
      <trkpt lat="45.85396" lon="4.79299">
        <ele>448.11</ele>
        <time>2013-11-16T10:09:46Z</time>
      </trkpt>
      <trkpt lat="45.85396" lon="4.79299">
        <ele>448.11</ele>
        <time>2013-11-16T10:10:05Z</time>
      </trkpt>
      <trkpt lat="45.85396" lon="4.79299">
        <ele>448.11</ele>
        <time>2013-11-16T10:10:24Z</time>
      </trkpt>
      <trkpt lat="45.85396" lon="4.79299">
        <ele>448.59</ele>
        <time>2013-11-16T10:10:42Z</time>
      </trkpt>
      <trkpt lat="45.85396" lon="4.79299">
        <ele>448.11</ele>
        <time>2013-11-16T10:10:56Z</time>
      </trkpt>
      <trkpt lat="45.85396" lon="4.79299">
        <ele>447.63</ele>
        <time>2013-11-16T10:11:13Z</time>
      </trkpt>
      <trkpt lat="45.85396" lon="4.79299">
        <ele>448.11</ele>
        <time>2013-11-16T10:11:31Z</time>
      </trkpt>
      <trkpt lat="45.85396" lon="4.79299">
        <ele>448.11</ele>
        <time>2013-11-16T10:11:54Z</time>
      </trkpt>
      <trkpt lat="45.85396" lon="4.79299">
        <ele>448.11</ele>
        <time>2013-11-16T10:12:09Z</time>
      </trkpt>
      <trkpt lat="45.85396" lon="4.79299">
        <ele>448.11</ele>
        <time>2013-11-16T10:12:26Z</time>
      </trkpt>
      <trkpt lat="45.85397" lon="4.79299">
        <ele>448.59</ele>
        <time>2013-11-16T10:12:43Z</time>
      </trkpt>
      <trkpt lat="45.85397" lon="4.79299">
        <ele>448.59</ele>
        <time>2013-11-16T10:13:02Z</time>
      </trkpt>
      <trkpt lat="45.85397" lon="4.79299">
        <ele>448.11</ele>
        <time>2013-11-16T10:13:21Z</time>
      </trkpt>
      <trkpt lat="45.85396" lon="4.79299">
        <ele>448.59</ele>
        <time>2013-11-16T10:13:39Z</time>
      </trkpt>
      <trkpt lat="45.85396" lon="4.79299">
        <ele>448.11</ele>
        <time>2013-11-16T10:13:56Z</time>
      </trkpt>
      <trkpt lat="45.85397" lon="4.79299">
        <ele>449.55</ele>
        <time>2013-11-16T10:14:21Z</time>
      </trkpt>
      <trkpt lat="45.85397" lon="4.79299">
        <ele>449.55</ele>
        <time>2013-11-16T10:14:43Z</time>
      </trkpt>
      <trkpt lat="45.85397" lon="4.793">
        <ele>449.55</ele>
        <time>2013-11-16T10:15:05Z</time>
      </trkpt>
      <trkpt lat="45.85397" lon="4.793">
        <ele>449.55</ele>
        <time>2013-11-16T10:15:25Z</time>
      </trkpt>
      <trkpt lat="45.85397" lon="4.793">
        <ele>449.55</ele>
        <time>2013-11-16T10:15:49Z</time>
      </trkpt>
      <trkpt lat="45.85397" lon="4.793">
        <ele>450.03</ele>
        <time>2013-11-16T10:16:10Z</time>
      </trkpt>
      <trkpt lat="45.85397" lon="4.793">
        <ele>450.03</ele>
        <time>2013-11-16T10:16:33Z</time>
      </trkpt>
      <trkpt lat="45.85397" lon="4.793">
        <ele>449.55</ele>
        <time>2013-11-16T10:16:53Z</time>
      </trkpt>
      <trkpt lat="45.854" lon="4.79298">
        <ele>449.55</ele>
        <time>2013-11-16T10:17:05Z</time>
      </trkpt>
      <trkpt lat="45.85403" lon="4.79297">
        <ele>450.03</ele>
        <time>2013-11-16T10:17:08Z</time>
      </trkpt>
      <trkpt lat="45.85411" lon="4.79299">
        <ele>450.52</ele>
        <time>2013-11-16T10:17:14Z</time>
      </trkpt>
      <trkpt lat="45.85423" lon="4.79302">
        <ele>450.52</ele>
        <time>2013-11-16T10:17:20Z</time>
      </trkpt>
      <trkpt lat="45.85448" lon="4.79311">
        <ele>452.92</ele>
        <time>2013-11-16T10:17:33Z</time>
      </trkpt>
      <trkpt lat="45.85463" lon="4.79315">
        <ele>454.36</ele>
        <time>2013-11-16T10:17:41Z</time>
      </trkpt>
      <trkpt lat="45.85468" lon="4.79294">
        <ele>455.8</ele>
        <time>2013-11-16T10:17:50Z</time>
      </trkpt>
      <trkpt lat="45.85468" lon="4.79289">
        <ele>455.32</ele>
        <time>2013-11-16T10:17:52Z</time>
      </trkpt>
      <trkpt lat="45.85483" lon="4.79276">
        <ele>456.76</ele>
        <time>2013-11-16T10:18:02Z</time>
      </trkpt>
      <trkpt lat="45.85512" lon="4.79271">
        <ele>458.69</ele>
        <time>2013-11-16T10:18:18Z</time>
      </trkpt>
      <trkpt lat="45.8553" lon="4.79268">
        <ele>460.13</ele>
        <time>2013-11-16T10:18:28Z</time>
      </trkpt>
      <trkpt lat="45.85536" lon="4.79266">
        <ele>461.09</ele>
        <time>2013-11-16T10:18:32Z</time>
      </trkpt>
      <trkpt lat="45.85544" lon="4.79265">
        <ele>461.57</ele>
        <time>2013-11-16T10:18:37Z</time>
      </trkpt>
      <trkpt lat="45.85556" lon="4.79265">
        <ele>463.49</ele>
        <time>2013-11-16T10:18:45Z</time>
      </trkpt>
      <trkpt lat="45.8557" lon="4.79276">
        <ele>464.45</ele>
        <time>2013-11-16T10:18:56Z</time>
      </trkpt>
      <trkpt lat="45.85582" lon="4.79295">
        <ele>465.9</ele>
        <time>2013-11-16T10:19:07Z</time>
      </trkpt>
      <trkpt lat="45.85596" lon="4.79313">
        <ele>467.82</ele>
        <time>2013-11-16T10:19:19Z</time>
      </trkpt>
      <trkpt lat="45.85607" lon="4.79334">
        <ele>468.78</ele>
        <time>2013-11-16T10:19:30Z</time>
      </trkpt>
      <trkpt lat="45.85617" lon="4.79351">
        <ele>469.26</ele>
        <time>2013-11-16T10:19:39Z</time>
      </trkpt>
      <trkpt lat="45.85621" lon="4.79353">
        <ele>469.74</ele>
        <time>2013-11-16T10:19:42Z</time>
      </trkpt>
      <trkpt lat="45.85619" lon="4.79335">
        <ele>470.7</ele>
        <time>2013-11-16T10:19:51Z</time>
      </trkpt>
      <trkpt lat="45.85619" lon="4.79333">
        <ele>470.7</ele>
        <time>2013-11-16T10:19:52Z</time>
      </trkpt>
      <trkpt lat="45.85614" lon="4.79316">
        <ele>471.66</ele>
        <time>2013-11-16T10:20:01Z</time>
      </trkpt>
      <trkpt lat="45.85614" lon="4.79316">
        <ele>471.18</ele>
        <time>2013-11-16T10:20:04Z</time>
      </trkpt>
      <trkpt lat="45.85607" lon="4.79293">
        <ele>471.66</ele>
        <time>2013-11-16T10:20:14Z</time>
      </trkpt>
      <trkpt lat="45.85606" lon="4.7929">
        <ele>471.66</ele>
        <time>2013-11-16T10:20:15Z</time>
      </trkpt>
      <trkpt lat="45.856" lon="4.79253">
        <ele>472.63</ele>
        <time>2013-11-16T10:20:29Z</time>
      </trkpt>
      <trkpt lat="45.85599" lon="4.7922">
        <ele>473.59</ele>
        <time>2013-11-16T10:20:41Z</time>
      </trkpt>
      <trkpt lat="45.85599" lon="4.79193">
        <ele>474.07</ele>
        <time>2013-11-16T10:20:51Z</time>
      </trkpt>
      <trkpt lat="45.85599" lon="4.79169">
        <ele>475.99</ele>
        <time>2013-11-16T10:20:59Z</time>
      </trkpt>
      <trkpt lat="45.85598" lon="4.7914">
        <ele>477.43</ele>
        <time>2013-11-16T10:21:10Z</time>
      </trkpt>
      <trkpt lat="45.85594" lon="4.79106">
        <ele>479.84</ele>
        <time>2013-11-16T10:21:23Z</time>
      </trkpt>
      <trkpt lat="45.85582" lon="4.7908">
        <ele>481.28</ele>
        <time>2013-11-16T10:21:35Z</time>
      </trkpt>
      <trkpt lat="45.85564" lon="4.79066">
        <ele>482.72</ele>
        <time>2013-11-16T10:21:46Z</time>
      </trkpt>
      <trkpt lat="45.85561" lon="4.79064">
        <ele>483.68</ele>
        <time>2013-11-16T10:21:48Z</time>
      </trkpt>
      <trkpt lat="45.85543" lon="4.7905">
        <ele>485.6</ele>
        <time>2013-11-16T10:21:59Z</time>
      </trkpt>
      <trkpt lat="45.85523" lon="4.79036">
        <ele>486.56</ele>
        <time>2013-11-16T10:22:10Z</time>
      </trkpt>
      <trkpt lat="45.85509" lon="4.79025">
        <ele>487.53</ele>
        <time>2013-11-16T10:22:18Z</time>
      </trkpt>
      <trkpt lat="45.85505" lon="4.79023">
        <ele>488.01</ele>
        <time>2013-11-16T10:22:21Z</time>
      </trkpt>
      <trkpt lat="45.85503" lon="4.79021">
        <ele>488.01</ele>
        <time>2013-11-16T10:22:23Z</time>
      </trkpt>
      <trkpt lat="45.85501" lon="4.79014">
        <ele>489.45</ele>
        <time>2013-11-16T10:22:32Z</time>
      </trkpt>
      <trkpt lat="45.85521" lon="4.79026">
        <ele>489.45</ele>
        <time>2013-11-16T10:22:44Z</time>
      </trkpt>
      <trkpt lat="45.85532" lon="4.79035">
        <ele>490.41</ele>
        <time>2013-11-16T10:22:52Z</time>
      </trkpt>
      <trkpt lat="45.85542" lon="4.79042">
        <ele>488.49</ele>
        <time>2013-11-16T10:22:58Z</time>
      </trkpt>
      <trkpt lat="45.85556" lon="4.79051">
        <ele>488.49</ele>
        <time>2013-11-16T10:23:06Z</time>
      </trkpt>
      <trkpt lat="45.85566" lon="4.79052">
        <ele>488.01</ele>
        <time>2013-11-16T10:23:11Z</time>
      </trkpt>
      <trkpt lat="45.85588" lon="4.79055">
        <ele>488.49</ele>
        <time>2013-11-16T10:23:20Z</time>
      </trkpt>
      <trkpt lat="45.85597" lon="4.79058">
        <ele>488.97</ele>
        <time>2013-11-16T10:23:29Z</time>
      </trkpt>
      <trkpt lat="45.85604" lon="4.7906">
        <ele>487.53</ele>
        <time>2013-11-16T10:23:41Z</time>
      </trkpt>
      <trkpt lat="45.85609" lon="4.79061">
        <ele>487.05</ele>
        <time>2013-11-16T10:23:50Z</time>
      </trkpt>
      <trkpt lat="45.85611" lon="4.79061">
        <ele>488.97</ele>
        <time>2013-11-16T10:24:01Z</time>
      </trkpt>
      <trkpt lat="45.8562" lon="4.79064">
        <ele>489.45</ele>
        <time>2013-11-16T10:24:12Z</time>
      </trkpt>
      <trkpt lat="45.85622" lon="4.79065">
        <ele>489.45</ele>
        <time>2013-11-16T10:24:19Z</time>
      </trkpt>
      <trkpt lat="45.85634" lon="4.79069">
        <ele>490.41</ele>
        <time>2013-11-16T10:24:26Z</time>
      </trkpt>
      <trkpt lat="45.85642" lon="4.79073">
        <ele>491.37</ele>
        <time>2013-11-16T10:24:31Z</time>
      </trkpt>
      <trkpt lat="45.85658" lon="4.79086">
        <ele>492.81</ele>
        <time>2013-11-16T10:24:40Z</time>
      </trkpt>
      <trkpt lat="45.85661" lon="4.79088">
        <ele>493.29</ele>
        <time>2013-11-16T10:24:42Z</time>
      </trkpt>
      <trkpt lat="45.85678" lon="4.79104">
        <ele>495.22</ele>
        <time>2013-11-16T10:24:53Z</time>
      </trkpt>
      <trkpt lat="45.85681" lon="4.79107">
        <ele>495.7</ele>
        <time>2013-11-16T10:24:55Z</time>
      </trkpt>
      <trkpt lat="45.85697" lon="4.79117">
        <ele>497.14</ele>
        <time>2013-11-16T10:25:05Z</time>
      </trkpt>
      <trkpt lat="45.85715" lon="4.79125">
        <ele>499.06</ele>
        <time>2013-11-16T10:25:16Z</time>
      </trkpt>
      <trkpt lat="45.85716" lon="4.79125">
        <ele>499.06</ele>
        <time>2013-11-16T10:25:17Z</time>
      </trkpt>
      <trkpt lat="45.85721" lon="4.79128">
        <ele>500.02</ele>
        <time>2013-11-16T10:25:21Z</time>
      </trkpt>
      <trkpt lat="45.85739" lon="4.79133">
        <ele>501.95</ele>
        <time>2013-11-16T10:25:33Z</time>
      </trkpt>
      <trkpt lat="45.85755" lon="4.79138">
        <ele>502.43</ele>
        <time>2013-11-16T10:25:44Z</time>
      </trkpt>
      <trkpt lat="45.85772" lon="4.79147">
        <ele>502.91</ele>
        <time>2013-11-16T10:25:54Z</time>
      </trkpt>
      <trkpt lat="45.85796" lon="4.79156">
        <ele>503.39</ele>
        <time>2013-11-16T10:26:05Z</time>
      </trkpt>
      <trkpt lat="45.85814" lon="4.79164">
        <ele>504.35</ele>
        <time>2013-11-16T10:26:14Z</time>
      </trkpt>
      <trkpt lat="45.85835" lon="4.79176">
        <ele>505.79</ele>
        <time>2013-11-16T10:26:24Z</time>
      </trkpt>
      <trkpt lat="45.85848" lon="4.79182">
        <ele>505.79</ele>
        <time>2013-11-16T10:26:30Z</time>
      </trkpt>
      <trkpt lat="45.85856" lon="4.79187">
        <ele>506.27</ele>
        <time>2013-11-16T10:26:34Z</time>
      </trkpt>
      <trkpt lat="45.85862" lon="4.7919">
        <ele>506.27</ele>
        <time>2013-11-16T10:26:38Z</time>
      </trkpt>
      <trkpt lat="45.85865" lon="4.79187">
        <ele>507.23</ele>
        <time>2013-11-16T10:26:41Z</time>
      </trkpt>
      <trkpt lat="45.85861" lon="4.79169">
        <ele>507.71</ele>
        <time>2013-11-16T10:26:50Z</time>
      </trkpt>
      <trkpt lat="45.8586" lon="4.79159">
        <ele>508.67</ele>
        <time>2013-11-16T10:26:54Z</time>
      </trkpt>
      <trkpt lat="45.85857" lon="4.79149">
        <ele>509.16</ele>
        <time>2013-11-16T10:26:58Z</time>
      </trkpt>
      <trkpt lat="45.85849" lon="4.79118">
        <ele>510.6</ele>
        <time>2013-11-16T10:27:12Z</time>
      </trkpt>
      <trkpt lat="45.85841" lon="4.79089">
        <ele>513</ele>
        <time>2013-11-16T10:27:25Z</time>
      </trkpt>
      <trkpt lat="45.85834" lon="4.79066">
        <ele>514.44</ele>
        <time>2013-11-16T10:27:36Z</time>
      </trkpt>
      <trkpt lat="45.85823" lon="4.79041">
        <ele>516.85</ele>
        <time>2013-11-16T10:27:49Z</time>
      </trkpt>
      <trkpt lat="45.85815" lon="4.79007">
        <ele>519.25</ele>
        <time>2013-11-16T10:28:04Z</time>
      </trkpt>
      <trkpt lat="45.85809" lon="4.78982">
        <ele>520.69</ele>
        <time>2013-11-16T10:28:16Z</time>
      </trkpt>
      <trkpt lat="45.85806" lon="4.78969">
        <ele>521.17</ele>
        <time>2013-11-16T10:28:22Z</time>
      </trkpt>
      <trkpt lat="45.85801" lon="4.78947">
        <ele>523.58</ele>
        <time>2013-11-16T10:28:32Z</time>
      </trkpt>
      <trkpt lat="45.85792" lon="4.78921">
        <ele>524.54</ele>
        <time>2013-11-16T10:28:44Z</time>
      </trkpt>
      <trkpt lat="45.85786" lon="4.78891">
        <ele>525.98</ele>
        <time>2013-11-16T10:28:56Z</time>
      </trkpt>
      <trkpt lat="45.85793" lon="4.78872">
        <ele>528.86</ele>
        <time>2013-11-16T10:29:06Z</time>
      </trkpt>
      <trkpt lat="45.85795" lon="4.78866">
        <ele>529.82</ele>
        <time>2013-11-16T10:29:09Z</time>
      </trkpt>
      <trkpt lat="45.85798" lon="4.78848">
        <ele>532.23</ele>
        <time>2013-11-16T10:29:19Z</time>
      </trkpt>
      <trkpt lat="45.85803" lon="4.78826">
        <ele>533.19</ele>
        <time>2013-11-16T10:29:31Z</time>
      </trkpt>
      <trkpt lat="45.85809" lon="4.78815">
        <ele>534.63</ele>
        <time>2013-11-16T10:29:38Z</time>
      </trkpt>
      <trkpt lat="45.85822" lon="4.78807">
        <ele>535.11</ele>
        <time>2013-11-16T10:29:50Z</time>
      </trkpt>
      <trkpt lat="45.85822" lon="4.78807">
        <ele>536.07</ele>
        <time>2013-11-16T10:30:04Z</time>
      </trkpt>
      <trkpt lat="45.85822" lon="4.78807">
        <ele>535.59</ele>
        <time>2013-11-16T10:30:21Z</time>
      </trkpt>
      <trkpt lat="45.85822" lon="4.78807">
        <ele>535.11</ele>
        <time>2013-11-16T10:30:40Z</time>
      </trkpt>
      <trkpt lat="45.85822" lon="4.78807">
        <ele>535.59</ele>
        <time>2013-11-16T10:31:01Z</time>
      </trkpt>
      <trkpt lat="45.85823" lon="4.78807">
        <ele>535.59</ele>
        <time>2013-11-16T10:31:23Z</time>
      </trkpt>
      <trkpt lat="45.85823" lon="4.78807">
        <ele>535.59</ele>
        <time>2013-11-16T10:31:42Z</time>
      </trkpt>
      <trkpt lat="45.85823" lon="4.78807">
        <ele>535.59</ele>
        <time>2013-11-16T10:32:01Z</time>
      </trkpt>
      <trkpt lat="45.85823" lon="4.78807">
        <ele>536.07</ele>
        <time>2013-11-16T10:32:19Z</time>
      </trkpt>
      <trkpt lat="45.85823" lon="4.78807">
        <ele>536.07</ele>
        <time>2013-11-16T10:32:44Z</time>
      </trkpt>
      <trkpt lat="45.85823" lon="4.78807">
        <ele>535.59</ele>
        <time>2013-11-16T10:33:02Z</time>
      </trkpt>
      <trkpt lat="45.85823" lon="4.78807">
        <ele>536.07</ele>
        <time>2013-11-16T10:33:21Z</time>
      </trkpt>
      <trkpt lat="45.85823" lon="4.78807">
        <ele>536.55</ele>
        <time>2013-11-16T10:33:38Z</time>
      </trkpt>
      <trkpt lat="45.85824" lon="4.78808">
        <ele>536.07</ele>
        <time>2013-11-16T10:33:41Z</time>
      </trkpt>
      <trkpt lat="45.85829" lon="4.7881">
        <ele>536.55</ele>
        <time>2013-11-16T10:33:45Z</time>
      </trkpt>
      <trkpt lat="45.85837" lon="4.78825">
        <ele>538.96</ele>
        <time>2013-11-16T10:33:56Z</time>
      </trkpt>
      <trkpt lat="45.85838" lon="4.78828">
        <ele>539.44</ele>
        <time>2013-11-16T10:33:57Z</time>
      </trkpt>
      <trkpt lat="45.85843" lon="4.78829">
        <ele>539.92</ele>
        <time>2013-11-16T10:34:00Z</time>
      </trkpt>
      <trkpt lat="45.85847" lon="4.78827">
        <ele>540.88</ele>
        <time>2013-11-16T10:34:04Z</time>
      </trkpt>
      <trkpt lat="45.85854" lon="4.78822">
        <ele>540.4</ele>
        <time>2013-11-16T10:34:08Z</time>
      </trkpt>
      <trkpt lat="45.85874" lon="4.7882">
        <ele>537.51</ele>
        <time>2013-11-16T10:34:16Z</time>
      </trkpt>
      <trkpt lat="45.85895" lon="4.78822">
        <ele>534.63</ele>
        <time>2013-11-16T10:34:22Z</time>
      </trkpt>
      <trkpt lat="45.85898" lon="4.78822">
        <ele>534.63</ele>
        <time>2013-11-16T10:34:23Z</time>
      </trkpt>
      <trkpt lat="45.85903" lon="4.78823">
        <ele>533.67</ele>
        <time>2013-11-16T10:34:25Z</time>
      </trkpt>
      <trkpt lat="45.85914" lon="4.78826">
        <ele>532.71</ele>
        <time>2013-11-16T10:34:33Z</time>
      </trkpt>
      <trkpt lat="45.85914" lon="4.78826">
        <ele>532.23</ele>
        <time>2013-11-16T10:34:50Z</time>
      </trkpt>
      <trkpt lat="45.85914" lon="4.78826">
        <ele>532.23</ele>
        <time>2013-11-16T10:34:51Z</time>
      </trkpt>
      <trkpt lat="45.85929" lon="4.78827">
        <ele>529.82</ele>
        <time>2013-11-16T10:34:56Z</time>
      </trkpt>
      <trkpt lat="45.85934" lon="4.78828">
        <ele>529.34</ele>
        <time>2013-11-16T10:34:57Z</time>
      </trkpt>
      <trkpt lat="45.85962" lon="4.78841">
        <ele>526.94</ele>
        <time>2013-11-16T10:35:04Z</time>
      </trkpt>
      <trkpt lat="45.85965" lon="4.78842">
        <ele>526.46</ele>
        <time>2013-11-16T10:35:05Z</time>
      </trkpt>
      <trkpt lat="45.85968" lon="4.78843">
        <ele>525.98</ele>
        <time>2013-11-16T10:35:06Z</time>
      </trkpt>
      <trkpt lat="45.85972" lon="4.78845">
        <ele>525.5</ele>
        <time>2013-11-16T10:35:07Z</time>
      </trkpt>
      <trkpt lat="45.85975" lon="4.78848">
        <ele>525.5</ele>
        <time>2013-11-16T10:35:08Z</time>
      </trkpt>
      <trkpt lat="45.85978" lon="4.7885">
        <ele>525.5</ele>
        <time>2013-11-16T10:35:09Z</time>
      </trkpt>
      <trkpt lat="45.85982" lon="4.78851">
        <ele>524.54</ele>
        <time>2013-11-16T10:35:10Z</time>
      </trkpt>
      <trkpt lat="45.86011" lon="4.78868">
        <ele>523.58</ele>
        <time>2013-11-16T10:35:19Z</time>
      </trkpt>
      <trkpt lat="45.86038" lon="4.78884">
        <ele>522.61</ele>
        <time>2013-11-16T10:35:25Z</time>
      </trkpt>
      <trkpt lat="45.86069" lon="4.78903">
        <ele>519.25</ele>
        <time>2013-11-16T10:35:33Z</time>
      </trkpt>
      <trkpt lat="45.86101" lon="4.78939">
        <ele>518.29</ele>
        <time>2013-11-16T10:35:42Z</time>
      </trkpt>
      <trkpt lat="45.86109" lon="4.78951">
        <ele>518.29</ele>
        <time>2013-11-16T10:35:45Z</time>
      </trkpt>
      <trkpt lat="45.86112" lon="4.78957">
        <ele>518.29</ele>
        <time>2013-11-16T10:35:46Z</time>
      </trkpt>
      <trkpt lat="45.86116" lon="4.78963">
        <ele>518.29</ele>
        <time>2013-11-16T10:35:47Z</time>
      </trkpt>
      <trkpt lat="45.86118" lon="4.78968">
        <ele>517.81</ele>
        <time>2013-11-16T10:35:48Z</time>
      </trkpt>
      <trkpt lat="45.8612" lon="4.78973">
        <ele>517.33</ele>
        <time>2013-11-16T10:35:49Z</time>
      </trkpt>
      <trkpt lat="45.86123" lon="4.78977">
        <ele>517.33</ele>
        <time>2013-11-16T10:35:50Z</time>
      </trkpt>
      <trkpt lat="45.86143" lon="4.79004">
        <ele>516.85</ele>
        <time>2013-11-16T10:35:57Z</time>
      </trkpt>
      <trkpt lat="45.86162" lon="4.79032">
        <ele>514.92</ele>
        <time>2013-11-16T10:36:04Z</time>
      </trkpt>
      <trkpt lat="45.8617" lon="4.79042">
        <ele>513.96</ele>
        <time>2013-11-16T10:36:06Z</time>
      </trkpt>
      <trkpt lat="45.86178" lon="4.79051">
        <ele>513.48</ele>
        <time>2013-11-16T10:36:08Z</time>
      </trkpt>
      <trkpt lat="45.86183" lon="4.79055">
        <ele>512.52</ele>
        <time>2013-11-16T10:36:09Z</time>
      </trkpt>
      <trkpt lat="45.86201" lon="4.79075">
        <ele>508.67</ele>
        <time>2013-11-16T10:36:14Z</time>
      </trkpt>
      <trkpt lat="45.86209" lon="4.79085">
        <ele>507.71</ele>
        <time>2013-11-16T10:36:16Z</time>
      </trkpt>
      <trkpt lat="45.86217" lon="4.79094">
        <ele>506.27</ele>
        <time>2013-11-16T10:36:18Z</time>
      </trkpt>
      <trkpt lat="45.86234" lon="4.79127">
        <ele>505.31</ele>
        <time>2013-11-16T10:36:25Z</time>
      </trkpt>
      <trkpt lat="45.86254" lon="4.79158">
        <ele>503.39</ele>
        <time>2013-11-16T10:36:32Z</time>
      </trkpt>
      <trkpt lat="45.86267" lon="4.79171">
        <ele>503.39</ele>
        <time>2013-11-16T10:36:37Z</time>
      </trkpt>
      <trkpt lat="45.86293" lon="4.79204">
        <ele>499.54</ele>
        <time>2013-11-16T10:36:44Z</time>
      </trkpt>
      <trkpt lat="45.86297" lon="4.79209">
        <ele>499.54</ele>
        <time>2013-11-16T10:36:45Z</time>
      </trkpt>
      <trkpt lat="45.86302" lon="4.79215">
        <ele>499.06</ele>
        <time>2013-11-16T10:36:46Z</time>
      </trkpt>
      <trkpt lat="45.86308" lon="4.79222">
        <ele>498.1</ele>
        <time>2013-11-16T10:36:47Z</time>
      </trkpt>
      <trkpt lat="45.86313" lon="4.79228">
        <ele>497.14</ele>
        <time>2013-11-16T10:36:48Z</time>
      </trkpt>
      <trkpt lat="45.86325" lon="4.79241">
        <ele>495.7</ele>
        <time>2013-11-16T10:36:50Z</time>
      </trkpt>
      <trkpt lat="45.86331" lon="4.79248">
        <ele>495.22</ele>
        <time>2013-11-16T10:36:51Z</time>
      </trkpt>
      <trkpt lat="45.86349" lon="4.79267">
        <ele>492.81</ele>
        <time>2013-11-16T10:36:54Z</time>
      </trkpt>
      <trkpt lat="45.86373" lon="4.79291">
        <ele>489.45</ele>
        <time>2013-11-16T10:36:58Z</time>
      </trkpt>
      <trkpt lat="45.86384" lon="4.79303">
        <ele>488.49</ele>
        <time>2013-11-16T10:37:00Z</time>
      </trkpt>
      <trkpt lat="45.86397" lon="4.79319">
        <ele>486.08</ele>
        <time>2013-11-16T10:37:03Z</time>
      </trkpt>
      <trkpt lat="45.86407" lon="4.7933">
        <ele>485.6</ele>
        <time>2013-11-16T10:37:05Z</time>
      </trkpt>
      <trkpt lat="45.86411" lon="4.79336">
        <ele>484.64</ele>
        <time>2013-11-16T10:37:06Z</time>
      </trkpt>
      <trkpt lat="45.86413" lon="4.7934">
        <ele>483.68</ele>
        <time>2013-11-16T10:37:07Z</time>
      </trkpt>
      <trkpt lat="45.86417" lon="4.79346">
        <ele>483.68</ele>
        <time>2013-11-16T10:37:08Z</time>
      </trkpt>
      <trkpt lat="45.8642" lon="4.7935">
        <ele>483.2</ele>
        <time>2013-11-16T10:37:09Z</time>
      </trkpt>
      <trkpt lat="45.86424" lon="4.79355">
        <ele>482.24</ele>
        <time>2013-11-16T10:37:10Z</time>
      </trkpt>
      <trkpt lat="45.86429" lon="4.79362">
        <ele>481.76</ele>
        <time>2013-11-16T10:37:11Z</time>
      </trkpt>
      <trkpt lat="45.86434" lon="4.79368">
        <ele>481.76</ele>
        <time>2013-11-16T10:37:12Z</time>
      </trkpt>
      <trkpt lat="45.86449" lon="4.79385">
        <ele>479.84</ele>
        <time>2013-11-16T10:37:15Z</time>
      </trkpt>
      <trkpt lat="45.86453" lon="4.79389">
        <ele>480.32</ele>
        <time>2013-11-16T10:37:16Z</time>
      </trkpt>
      <trkpt lat="45.86456" lon="4.79392">
        <ele>478.87</ele>
        <time>2013-11-16T10:37:17Z</time>
      </trkpt>
      <trkpt lat="45.86461" lon="4.79396">
        <ele>478.39</ele>
        <time>2013-11-16T10:37:18Z</time>
      </trkpt>
      <trkpt lat="45.86466" lon="4.794">
        <ele>477.91</ele>
        <time>2013-11-16T10:37:19Z</time>
      </trkpt>
      <trkpt lat="45.86471" lon="4.79405">
        <ele>476.95</ele>
        <time>2013-11-16T10:37:20Z</time>
      </trkpt>
      <trkpt lat="45.86491" lon="4.79426">
        <ele>475.51</ele>
        <time>2013-11-16T10:37:24Z</time>
      </trkpt>
      <trkpt lat="45.86507" lon="4.79441">
        <ele>474.55</ele>
        <time>2013-11-16T10:37:27Z</time>
      </trkpt>
      <trkpt lat="45.86511" lon="4.79446">
        <ele>473.59</ele>
        <time>2013-11-16T10:37:28Z</time>
      </trkpt>
      <trkpt lat="45.86516" lon="4.79452">
        <ele>472.14</ele>
        <time>2013-11-16T10:37:29Z</time>
      </trkpt>
      <trkpt lat="45.86525" lon="4.79461">
        <ele>471.18</ele>
        <time>2013-11-16T10:37:31Z</time>
      </trkpt>
      <trkpt lat="45.86529" lon="4.79465">
        <ele>471.66</ele>
        <time>2013-11-16T10:37:32Z</time>
      </trkpt>
      <trkpt lat="45.86541" lon="4.7948">
        <ele>469.74</ele>
        <time>2013-11-16T10:37:35Z</time>
      </trkpt>
      <trkpt lat="45.86545" lon="4.79486">
        <ele>469.26</ele>
        <time>2013-11-16T10:37:36Z</time>
      </trkpt>
      <trkpt lat="45.86557" lon="4.795">
        <ele>467.34</ele>
        <time>2013-11-16T10:37:39Z</time>
      </trkpt>
      <trkpt lat="45.86572" lon="4.79518">
        <ele>463.97</ele>
        <time>2013-11-16T10:37:42Z</time>
      </trkpt>
      <trkpt lat="45.86576" lon="4.79524">
        <ele>463.01</ele>
        <time>2013-11-16T10:37:43Z</time>
      </trkpt>
      <trkpt lat="45.8658" lon="4.79529">
        <ele>462.53</ele>
        <time>2013-11-16T10:37:44Z</time>
      </trkpt>
      <trkpt lat="45.86587" lon="4.7954">
        <ele>461.09</ele>
        <time>2013-11-16T10:37:46Z</time>
      </trkpt>
      <trkpt lat="45.86591" lon="4.79547">
        <ele>460.13</ele>
        <time>2013-11-16T10:37:47Z</time>
      </trkpt>
      <trkpt lat="45.86595" lon="4.79554">
        <ele>459.17</ele>
        <time>2013-11-16T10:37:48Z</time>
      </trkpt>
      <trkpt lat="45.86602" lon="4.79568">
        <ele>456.76</ele>
        <time>2013-11-16T10:37:50Z</time>
      </trkpt>
      <trkpt lat="45.86606" lon="4.79576">
        <ele>454.84</ele>
        <time>2013-11-16T10:37:51Z</time>
      </trkpt>
      <trkpt lat="45.8661" lon="4.79583">
        <ele>454.84</ele>
        <time>2013-11-16T10:37:52Z</time>
      </trkpt>
      <trkpt lat="45.86612" lon="4.79591">
        <ele>452.92</ele>
        <time>2013-11-16T10:37:53Z</time>
      </trkpt>
      <trkpt lat="45.86615" lon="4.79598">
        <ele>451.96</ele>
        <time>2013-11-16T10:37:54Z</time>
      </trkpt>
      <trkpt lat="45.86623" lon="4.79625">
        <ele>448.59</ele>
        <time>2013-11-16T10:37:59Z</time>
      </trkpt>
      <trkpt lat="45.86624" lon="4.79629">
        <ele>447.63</ele>
        <time>2013-11-16T10:38:00Z</time>
      </trkpt>
      <trkpt lat="45.86627" lon="4.79637">
        <ele>447.63</ele>
        <time>2013-11-16T10:38:05Z</time>
      </trkpt>
      <trkpt lat="45.86627" lon="4.79639">
        <ele>447.15</ele>
        <time>2013-11-16T10:38:06Z</time>
      </trkpt>
      <trkpt lat="45.86627" lon="4.79641">
        <ele>447.15</ele>
        <time>2013-11-16T10:38:07Z</time>
      </trkpt>
      <trkpt lat="45.86628" lon="4.79643">
        <ele>447.15</ele>
        <time>2013-11-16T10:38:08Z</time>
      </trkpt>
      <trkpt lat="45.86629" lon="4.79646">
        <ele>446.67</ele>
        <time>2013-11-16T10:38:09Z</time>
      </trkpt>
      <trkpt lat="45.8663" lon="4.79649">
        <ele>445.71</ele>
        <time>2013-11-16T10:38:10Z</time>
      </trkpt>
      <trkpt lat="45.86631" lon="4.79653">
        <ele>444.75</ele>
        <time>2013-11-16T10:38:11Z</time>
      </trkpt>
      <trkpt lat="45.86632" lon="4.79655">
        <ele>444.75</ele>
        <time>2013-11-16T10:38:12Z</time>
      </trkpt>
      <trkpt lat="45.86635" lon="4.79659">
        <ele>445.23</ele>
        <time>2013-11-16T10:38:20Z</time>
      </trkpt>
      <trkpt lat="45.86635" lon="4.79659">
        <ele>444.75</ele>
        <time>2013-11-16T10:38:43Z</time>
      </trkpt>
      <trkpt lat="45.86636" lon="4.79658">
        <ele>444.27</ele>
        <time>2013-11-16T10:39:11Z</time>
      </trkpt>
      <trkpt lat="45.86636" lon="4.79658">
        <ele>444.27</ele>
        <time>2013-11-16T10:39:40Z</time>
      </trkpt>
      <trkpt lat="45.86636" lon="4.79658">
        <ele>444.27</ele>
        <time>2013-11-16T10:40:02Z</time>
      </trkpt>
      <trkpt lat="45.86636" lon="4.79658">
        <ele>443.79</ele>
        <time>2013-11-16T10:40:14Z</time>
      </trkpt>
      <trkpt lat="45.86638" lon="4.79659">
        <ele>444.27</ele>
        <time>2013-11-16T10:40:37Z</time>
      </trkpt>
      <trkpt lat="45.86639" lon="4.79659">
        <ele>443.31</ele>
        <time>2013-11-16T10:41:00Z</time>
      </trkpt>
      <trkpt lat="45.86639" lon="4.79659">
        <ele>443.31</ele>
        <time>2013-11-16T10:41:10Z</time>
      </trkpt>
      <trkpt lat="45.86639" lon="4.79659">
        <ele>443.79</ele>
        <time>2013-11-16T10:41:25Z</time>
      </trkpt>
      <trkpt lat="45.86641" lon="4.79659">
        <ele>443.31</ele>
        <time>2013-11-16T10:41:39Z</time>
      </trkpt>
      <trkpt lat="45.86643" lon="4.79661">
        <ele>443.31</ele>
        <time>2013-11-16T10:41:40Z</time>
      </trkpt>
      <trkpt lat="45.86645" lon="4.79664">
        <ele>443.31</ele>
        <time>2013-11-16T10:41:41Z</time>
      </trkpt>
      <trkpt lat="45.86654" lon="4.79692">
        <ele>441.86</ele>
        <time>2013-11-16T10:41:47Z</time>
      </trkpt>
      <trkpt lat="45.86655" lon="4.79699">
        <ele>441.86</ele>
        <time>2013-11-16T10:41:48Z</time>
      </trkpt>
      <trkpt lat="45.86655" lon="4.79706">
        <ele>440.9</ele>
        <time>2013-11-16T10:41:49Z</time>
      </trkpt>
      <trkpt lat="45.86654" lon="4.79713">
        <ele>440.9</ele>
        <time>2013-11-16T10:41:50Z</time>
      </trkpt>
      <trkpt lat="45.86653" lon="4.79721">
        <ele>440.42</ele>
        <time>2013-11-16T10:41:51Z</time>
      </trkpt>
      <trkpt lat="45.86651" lon="4.79728">
        <ele>439.94</ele>
        <time>2013-11-16T10:41:52Z</time>
      </trkpt>
      <trkpt lat="45.86649" lon="4.79734">
        <ele>439.94</ele>
        <time>2013-11-16T10:41:53Z</time>
      </trkpt>
      <trkpt lat="45.86647" lon="4.7974">
        <ele>440.42</ele>
        <time>2013-11-16T10:41:54Z</time>
      </trkpt>
      <trkpt lat="45.86644" lon="4.79744">
        <ele>440.42</ele>
        <time>2013-11-16T10:41:55Z</time>
      </trkpt>
      <trkpt lat="45.86628" lon="4.79777">
        <ele>442.34</ele>
        <time>2013-11-16T10:42:03Z</time>
      </trkpt>
      <trkpt lat="45.86623" lon="4.79789">
        <ele>442.82</ele>
        <time>2013-11-16T10:42:06Z</time>
      </trkpt>
      <trkpt lat="45.8662" lon="4.79792">
        <ele>442.82</ele>
        <time>2013-11-16T10:42:07Z</time>
      </trkpt>
      <trkpt lat="45.86608" lon="4.79822">
        <ele>444.75</ele>
        <time>2013-11-16T10:42:15Z</time>
      </trkpt>
      <trkpt lat="45.86603" lon="4.7986">
        <ele>446.67</ele>
        <time>2013-11-16T10:42:25Z</time>
      </trkpt>
      <trkpt lat="45.86591" lon="4.79884">
        <ele>448.11</ele>
        <time>2013-11-16T10:42:34Z</time>
      </trkpt>
      <trkpt lat="45.86581" lon="4.79903">
        <ele>449.07</ele>
        <time>2013-11-16T10:42:43Z</time>
      </trkpt>
      <trkpt lat="45.86581" lon="4.79905">
        <ele>449.55</ele>
        <time>2013-11-16T10:42:44Z</time>
      </trkpt>
      <trkpt lat="45.86582" lon="4.79908">
        <ele>449.55</ele>
        <time>2013-11-16T10:42:45Z</time>
      </trkpt>
      <trkpt lat="45.86583" lon="4.7991">
        <ele>450.03</ele>
        <time>2013-11-16T10:42:46Z</time>
      </trkpt>
      <trkpt lat="45.86586" lon="4.79913">
        <ele>449.07</ele>
        <time>2013-11-16T10:42:47Z</time>
      </trkpt>
      <trkpt lat="45.86588" lon="4.79915">
        <ele>449.55</ele>
        <time>2013-11-16T10:42:48Z</time>
      </trkpt>
      <trkpt lat="45.86591" lon="4.79918">
        <ele>448.59</ele>
        <time>2013-11-16T10:42:49Z</time>
      </trkpt>
      <trkpt lat="45.86594" lon="4.7992">
        <ele>448.59</ele>
        <time>2013-11-16T10:42:50Z</time>
      </trkpt>
      <trkpt lat="45.86634" lon="4.79943">
        <ele>447.15</ele>
        <time>2013-11-16T10:43:00Z</time>
      </trkpt>
      <trkpt lat="45.86645" lon="4.79951">
        <ele>446.19</ele>
        <time>2013-11-16T10:43:03Z</time>
      </trkpt>
      <trkpt lat="45.8665" lon="4.79954">
        <ele>446.67</ele>
        <time>2013-11-16T10:43:04Z</time>
      </trkpt>
      <trkpt lat="45.86653" lon="4.79957">
        <ele>446.19</ele>
        <time>2013-11-16T10:43:05Z</time>
      </trkpt>
      <trkpt lat="45.86657" lon="4.79961">
        <ele>446.67</ele>
        <time>2013-11-16T10:43:06Z</time>
      </trkpt>
      <trkpt lat="45.8666" lon="4.79964">
        <ele>446.67</ele>
        <time>2013-11-16T10:43:07Z</time>
      </trkpt>
      <trkpt lat="45.86664" lon="4.79968">
        <ele>445.71</ele>
        <time>2013-11-16T10:43:08Z</time>
      </trkpt>
      <trkpt lat="45.86667" lon="4.79972">
        <ele>446.19</ele>
        <time>2013-11-16T10:43:09Z</time>
      </trkpt>
      <trkpt lat="45.86675" lon="4.79985">
        <ele>445.71</ele>
        <time>2013-11-16T10:43:12Z</time>
      </trkpt>
      <trkpt lat="45.86677" lon="4.7999">
        <ele>446.19</ele>
        <time>2013-11-16T10:43:13Z</time>
      </trkpt>
      <trkpt lat="45.8668" lon="4.79995">
        <ele>445.23</ele>
        <time>2013-11-16T10:43:14Z</time>
      </trkpt>
      <trkpt lat="45.86682" lon="4.8">
        <ele>445.71</ele>
        <time>2013-11-16T10:43:15Z</time>
      </trkpt>
      <trkpt lat="45.86685" lon="4.80004">
        <ele>445.71</ele>
        <time>2013-11-16T10:43:16Z</time>
      </trkpt>
      <trkpt lat="45.86689" lon="4.80008">
        <ele>445.23</ele>
        <time>2013-11-16T10:43:17Z</time>
      </trkpt>
      <trkpt lat="45.86693" lon="4.80009">
        <ele>445.71</ele>
        <time>2013-11-16T10:43:18Z</time>
      </trkpt>
      <trkpt lat="45.86696" lon="4.8001">
        <ele>445.71</ele>
        <time>2013-11-16T10:43:19Z</time>
      </trkpt>
      <trkpt lat="45.86698" lon="4.80011">
        <ele>446.67</ele>
        <time>2013-11-16T10:43:20Z</time>
      </trkpt>
      <trkpt lat="45.867" lon="4.80012">
        <ele>446.67</ele>
        <time>2013-11-16T10:43:21Z</time>
      </trkpt>
      <trkpt lat="45.86713" lon="4.8003">
        <ele>448.11</ele>
        <time>2013-11-16T10:43:29Z</time>
      </trkpt>
      <trkpt lat="45.86714" lon="4.80032">
        <ele>448.59</ele>
        <time>2013-11-16T10:43:30Z</time>
      </trkpt>
      <trkpt lat="45.86714" lon="4.8005">
        <ele>450.03</ele>
        <time>2013-11-16T10:43:38Z</time>
      </trkpt>
      <trkpt lat="45.86714" lon="4.80061">
        <ele>451.48</ele>
        <time>2013-11-16T10:43:42Z</time>
      </trkpt>
      <trkpt lat="45.86715" lon="4.80063">
        <ele>451</ele>
        <time>2013-11-16T10:43:43Z</time>
      </trkpt>
      <trkpt lat="45.86716" lon="4.80065">
        <ele>451.48</ele>
        <time>2013-11-16T10:43:44Z</time>
      </trkpt>
      <trkpt lat="45.86716" lon="4.80067">
        <ele>451.48</ele>
        <time>2013-11-16T10:43:45Z</time>
      </trkpt>
      <trkpt lat="45.86717" lon="4.8007">
        <ele>451.96</ele>
        <time>2013-11-16T10:43:46Z</time>
      </trkpt>
      <trkpt lat="45.86718" lon="4.80073">
        <ele>452.44</ele>
        <time>2013-11-16T10:43:47Z</time>
      </trkpt>
      <trkpt lat="45.86718" lon="4.80075">
        <ele>451.96</ele>
        <time>2013-11-16T10:43:48Z</time>
      </trkpt>
      <trkpt lat="45.86718" lon="4.80077">
        <ele>452.92</ele>
        <time>2013-11-16T10:43:49Z</time>
      </trkpt>
      <trkpt lat="45.86718" lon="4.80079">
        <ele>452.44</ele>
        <time>2013-11-16T10:43:50Z</time>
      </trkpt>
      <trkpt lat="45.8672" lon="4.80084">
        <ele>453.88</ele>
        <time>2013-11-16T10:43:52Z</time>
      </trkpt>
      <trkpt lat="45.86721" lon="4.80088">
        <ele>453.4</ele>
        <time>2013-11-16T10:43:54Z</time>
      </trkpt>
      <trkpt lat="45.86721" lon="4.8009">
        <ele>453.88</ele>
        <time>2013-11-16T10:43:55Z</time>
      </trkpt>
      <trkpt lat="45.86722" lon="4.80091">
        <ele>454.36</ele>
        <time>2013-11-16T10:43:56Z</time>
      </trkpt>
      <trkpt lat="45.86723" lon="4.80093">
        <ele>453.88</ele>
        <time>2013-11-16T10:43:57Z</time>
      </trkpt>
      <trkpt lat="45.86724" lon="4.80095">
        <ele>453.88</ele>
        <time>2013-11-16T10:43:58Z</time>
      </trkpt>
      <trkpt lat="45.86724" lon="4.80097">
        <ele>454.36</ele>
        <time>2013-11-16T10:43:59Z</time>
      </trkpt>
      <trkpt lat="45.86725" lon="4.80099">
        <ele>454.36</ele>
        <time>2013-11-16T10:44:00Z</time>
      </trkpt>
      <trkpt lat="45.86726" lon="4.80102">
        <ele>454.84</ele>
        <time>2013-11-16T10:44:01Z</time>
      </trkpt>
      <trkpt lat="45.86726" lon="4.80104">
        <ele>454.84</ele>
        <time>2013-11-16T10:44:02Z</time>
      </trkpt>
      <trkpt lat="45.86727" lon="4.80107">
        <ele>454.84</ele>
        <time>2013-11-16T10:44:03Z</time>
      </trkpt>
      <trkpt lat="45.86727" lon="4.80109">
        <ele>455.32</ele>
        <time>2013-11-16T10:44:04Z</time>
      </trkpt>
      <trkpt lat="45.86727" lon="4.80111">
        <ele>454.84</ele>
        <time>2013-11-16T10:44:05Z</time>
      </trkpt>
      <trkpt lat="45.86728" lon="4.80113">
        <ele>454.84</ele>
        <time>2013-11-16T10:44:06Z</time>
      </trkpt>
      <trkpt lat="45.86729" lon="4.80115">
        <ele>455.32</ele>
        <time>2013-11-16T10:44:07Z</time>
      </trkpt>
      <trkpt lat="45.86735" lon="4.80128">
        <ele>456.28</ele>
        <time>2013-11-16T10:44:14Z</time>
      </trkpt>
      <trkpt lat="45.86736" lon="4.80132">
        <ele>457.24</ele>
        <time>2013-11-16T10:44:16Z</time>
      </trkpt>
      <trkpt lat="45.86747" lon="4.80149">
        <ele>459.17</ele>
        <time>2013-11-16T10:44:27Z</time>
      </trkpt>
      <trkpt lat="45.86759" lon="4.80166">
        <ele>460.61</ele>
        <time>2013-11-16T10:44:37Z</time>
      </trkpt>
      <trkpt lat="45.86763" lon="4.80168">
        <ele>460.61</ele>
        <time>2013-11-16T10:44:39Z</time>
      </trkpt>
      <trkpt lat="45.86765" lon="4.80168">
        <ele>460.61</ele>
        <time>2013-11-16T10:44:40Z</time>
      </trkpt>
      <trkpt lat="45.86768" lon="4.80167">
        <ele>460.61</ele>
        <time>2013-11-16T10:44:41Z</time>
      </trkpt>
      <trkpt lat="45.8677" lon="4.80165">
        <ele>461.09</ele>
        <time>2013-11-16T10:44:42Z</time>
      </trkpt>
      <trkpt lat="45.86772" lon="4.80164">
        <ele>461.09</ele>
        <time>2013-11-16T10:44:43Z</time>
      </trkpt>
      <trkpt lat="45.86773" lon="4.80163">
        <ele>461.09</ele>
        <time>2013-11-16T10:44:44Z</time>
      </trkpt>
      <trkpt lat="45.86774" lon="4.80162">
        <ele>460.61</ele>
        <time>2013-11-16T10:44:45Z</time>
      </trkpt>
      <trkpt lat="45.86775" lon="4.8016">
        <ele>461.57</ele>
        <time>2013-11-16T10:44:46Z</time>
      </trkpt>
      <trkpt lat="45.86775" lon="4.80158">
        <ele>461.09</ele>
        <time>2013-11-16T10:44:47Z</time>
      </trkpt>
      <trkpt lat="45.86775" lon="4.80156">
        <ele>461.09</ele>
        <time>2013-11-16T10:44:48Z</time>
      </trkpt>
      <trkpt lat="45.86772" lon="4.80141">
        <ele>461.57</ele>
        <time>2013-11-16T10:44:57Z</time>
      </trkpt>
      <trkpt lat="45.86772" lon="4.80135">
        <ele>461.57</ele>
        <time>2013-11-16T10:45:17Z</time>
      </trkpt>
      <trkpt lat="45.86772" lon="4.80134">
        <ele>461.09</ele>
        <time>2013-11-16T10:45:31Z</time>
      </trkpt>
      <trkpt lat="45.86772" lon="4.80134">
        <ele>461.57</ele>
        <time>2013-11-16T10:45:57Z</time>
      </trkpt>
      <trkpt lat="45.86771" lon="4.80134">
        <ele>462.05</ele>
        <time>2013-11-16T10:46:21Z</time>
      </trkpt>
      <trkpt lat="45.8677" lon="4.80133">
        <ele>461.09</ele>
        <time>2013-11-16T10:46:38Z</time>
      </trkpt>
      <trkpt lat="45.8677" lon="4.80133">
        <ele>461.57</ele>
        <time>2013-11-16T10:46:58Z</time>
      </trkpt>
      <trkpt lat="45.8677" lon="4.80132">
        <ele>461.57</ele>
        <time>2013-11-16T10:47:24Z</time>
      </trkpt>
      <trkpt lat="45.86768" lon="4.80133">
        <ele>461.57</ele>
        <time>2013-11-16T10:47:27Z</time>
      </trkpt>
      <trkpt lat="45.86774" lon="4.80149">
        <ele>461.57</ele>
        <time>2013-11-16T10:47:36Z</time>
      </trkpt>
      <trkpt lat="45.86774" lon="4.80157">
        <ele>461.09</ele>
        <time>2013-11-16T10:47:43Z</time>
      </trkpt>
      <trkpt lat="45.86774" lon="4.80157">
        <ele>461.09</ele>
        <time>2013-11-16T10:48:00Z</time>
      </trkpt>
      <trkpt lat="45.86775" lon="4.80165">
        <ele>461.09</ele>
        <time>2013-11-16T10:48:04Z</time>
      </trkpt>
      <trkpt lat="45.86786" lon="4.80185">
        <ele>458.69</ele>
        <time>2013-11-16T10:48:10Z</time>
      </trkpt>
      <trkpt lat="45.86793" lon="4.80207">
        <ele>456.28</ele>
        <time>2013-11-16T10:48:14Z</time>
      </trkpt>
      <trkpt lat="45.86806" lon="4.80232">
        <ele>452.44</ele>
        <time>2013-11-16T10:48:19Z</time>
      </trkpt>
      <trkpt lat="45.86813" lon="4.80251">
        <ele>450.03</ele>
        <time>2013-11-16T10:48:23Z</time>
      </trkpt>
      <trkpt lat="45.86817" lon="4.80255">
        <ele>449.07</ele>
        <time>2013-11-16T10:48:25Z</time>
      </trkpt>
      <trkpt lat="45.86821" lon="4.80269">
        <ele>446.19</ele>
        <time>2013-11-16T10:48:29Z</time>
      </trkpt>
      <trkpt lat="45.86811" lon="4.80284">
        <ele>443.31</ele>
        <time>2013-11-16T10:48:35Z</time>
      </trkpt>
      <trkpt lat="45.86804" lon="4.80287">
        <ele>441.86</ele>
        <time>2013-11-16T10:48:39Z</time>
      </trkpt>
      <trkpt lat="45.86791" lon="4.8031">
        <ele>437.54</ele>
        <time>2013-11-16T10:48:49Z</time>
      </trkpt>
      <trkpt lat="45.86786" lon="4.80318">
        <ele>435.61</ele>
        <time>2013-11-16T10:48:52Z</time>
      </trkpt>
      <trkpt lat="45.86786" lon="4.80318">
        <ele>435.61</ele>
        <time>2013-11-16T10:48:53Z</time>
      </trkpt>
      <trkpt lat="45.86788" lon="4.80326">
        <ele>434.17</ele>
        <time>2013-11-16T10:48:57Z</time>
      </trkpt>
      <trkpt lat="45.8679" lon="4.80341">
        <ele>432.25</ele>
        <time>2013-11-16T10:49:01Z</time>
      </trkpt>
      <trkpt lat="45.86792" lon="4.80358">
        <ele>429.85</ele>
        <time>2013-11-16T10:49:06Z</time>
      </trkpt>
      <trkpt lat="45.86789" lon="4.80361">
        <ele>429.37</ele>
        <time>2013-11-16T10:49:08Z</time>
      </trkpt>
      <trkpt lat="45.8679" lon="4.80369">
        <ele>427.92</ele>
        <time>2013-11-16T10:49:12Z</time>
      </trkpt>
      <trkpt lat="45.86792" lon="4.80381">
        <ele>426.48</ele>
        <time>2013-11-16T10:49:16Z</time>
      </trkpt>
      <trkpt lat="45.86799" lon="4.80394">
        <ele>425.04</ele>
        <time>2013-11-16T10:49:19Z</time>
      </trkpt>
      <trkpt lat="45.86803" lon="4.80397">
        <ele>425.04</ele>
        <time>2013-11-16T10:49:20Z</time>
      </trkpt>
      <trkpt lat="45.86806" lon="4.80399">
        <ele>424.56</ele>
        <time>2013-11-16T10:49:21Z</time>
      </trkpt>
      <trkpt lat="45.86809" lon="4.80403">
        <ele>424.08</ele>
        <time>2013-11-16T10:49:22Z</time>
      </trkpt>
      <trkpt lat="45.8681" lon="4.80407">
        <ele>423.6</ele>
        <time>2013-11-16T10:49:23Z</time>
      </trkpt>
      <trkpt lat="45.86798" lon="4.80422">
        <ele>420.71</ele>
        <time>2013-11-16T10:49:27Z</time>
      </trkpt>
      <trkpt lat="45.8679" lon="4.80439">
        <ele>416.87</ele>
        <time>2013-11-16T10:49:31Z</time>
      </trkpt>
      <trkpt lat="45.86784" lon="4.80443">
        <ele>415.91</ele>
        <time>2013-11-16T10:49:33Z</time>
      </trkpt>
      <trkpt lat="45.8678" lon="4.80442">
        <ele>415.43</ele>
        <time>2013-11-16T10:49:34Z</time>
      </trkpt>
      <trkpt lat="45.86777" lon="4.80442">
        <ele>414.95</ele>
        <time>2013-11-16T10:49:35Z</time>
      </trkpt>
      <trkpt lat="45.86774" lon="4.80442">
        <ele>413.98</ele>
        <time>2013-11-16T10:49:36Z</time>
      </trkpt>
      <trkpt lat="45.86773" lon="4.80443">
        <ele>413.5</ele>
        <time>2013-11-16T10:49:37Z</time>
      </trkpt>
      <trkpt lat="45.86768" lon="4.80438">
        <ele>413.98</ele>
        <time>2013-11-16T10:49:40Z</time>
      </trkpt>
      <trkpt lat="45.86768" lon="4.80435">
        <ele>414.95</ele>
        <time>2013-11-16T10:49:41Z</time>
      </trkpt>
      <trkpt lat="45.86767" lon="4.80432">
        <ele>414.47</ele>
        <time>2013-11-16T10:49:42Z</time>
      </trkpt>
      <trkpt lat="45.86766" lon="4.80429">
        <ele>414.95</ele>
        <time>2013-11-16T10:49:43Z</time>
      </trkpt>
      <trkpt lat="45.86765" lon="4.80427">
        <ele>414.95</ele>
        <time>2013-11-16T10:49:44Z</time>
      </trkpt>
      <trkpt lat="45.86764" lon="4.80426">
        <ele>415.43</ele>
        <time>2013-11-16T10:49:45Z</time>
      </trkpt>
      <trkpt lat="45.86762" lon="4.80424">
        <ele>415.43</ele>
        <time>2013-11-16T10:49:46Z</time>
      </trkpt>
      <trkpt lat="45.86761" lon="4.80422">
        <ele>415.91</ele>
        <time>2013-11-16T10:49:47Z</time>
      </trkpt>
      <trkpt lat="45.8676" lon="4.80421">
        <ele>416.39</ele>
        <time>2013-11-16T10:49:48Z</time>
      </trkpt>
      <trkpt lat="45.86759" lon="4.80419">
        <ele>416.39</ele>
        <time>2013-11-16T10:49:49Z</time>
      </trkpt>
      <trkpt lat="45.86758" lon="4.80417">
        <ele>416.39</ele>
        <time>2013-11-16T10:49:50Z</time>
      </trkpt>
      <trkpt lat="45.86756" lon="4.80415">
        <ele>416.87</ele>
        <time>2013-11-16T10:49:51Z</time>
      </trkpt>
      <trkpt lat="45.86754" lon="4.80413">
        <ele>417.35</ele>
        <time>2013-11-16T10:49:52Z</time>
      </trkpt>
      <trkpt lat="45.86753" lon="4.8041">
        <ele>416.87</ele>
        <time>2013-11-16T10:49:53Z</time>
      </trkpt>
      <trkpt lat="45.86743" lon="4.80392">
        <ele>418.79</ele>
        <time>2013-11-16T10:50:00Z</time>
      </trkpt>
      <trkpt lat="45.86742" lon="4.80389">
        <ele>419.27</ele>
        <time>2013-11-16T10:50:01Z</time>
      </trkpt>
      <trkpt lat="45.86741" lon="4.80386">
        <ele>419.27</ele>
        <time>2013-11-16T10:50:02Z</time>
      </trkpt>
      <trkpt lat="45.86734" lon="4.80371">
        <ele>420.23</ele>
        <time>2013-11-16T10:50:08Z</time>
      </trkpt>
      <trkpt lat="45.86734" lon="4.80369">
        <ele>420.71</ele>
        <time>2013-11-16T10:50:09Z</time>
      </trkpt>
      <trkpt lat="45.86733" lon="4.80366">
        <ele>420.71</ele>
        <time>2013-11-16T10:50:10Z</time>
      </trkpt>
      <trkpt lat="45.86725" lon="4.80341">
        <ele>423.12</ele>
        <time>2013-11-16T10:50:22Z</time>
      </trkpt>
      <trkpt lat="45.86725" lon="4.80338">
        <ele>423.12</ele>
        <time>2013-11-16T10:50:23Z</time>
      </trkpt>
      <trkpt lat="45.86724" lon="4.80336">
        <ele>423.12</ele>
        <time>2013-11-16T10:50:24Z</time>
      </trkpt>
      <trkpt lat="45.86723" lon="4.80333">
        <ele>423.12</ele>
        <time>2013-11-16T10:50:25Z</time>
      </trkpt>
      <trkpt lat="45.86716" lon="4.80313">
        <ele>425.52</ele>
        <time>2013-11-16T10:50:35Z</time>
      </trkpt>
      <trkpt lat="45.86715" lon="4.80311">
        <ele>425.52</ele>
        <time>2013-11-16T10:50:36Z</time>
      </trkpt>
      <trkpt lat="45.86715" lon="4.80309">
        <ele>425.52</ele>
        <time>2013-11-16T10:50:37Z</time>
      </trkpt>
      <trkpt lat="45.86714" lon="4.80307">
        <ele>425.52</ele>
        <time>2013-11-16T10:50:38Z</time>
      </trkpt>
      <trkpt lat="45.86713" lon="4.80305">
        <ele>426</ele>
        <time>2013-11-16T10:50:39Z</time>
      </trkpt>
      <trkpt lat="45.86713" lon="4.80303">
        <ele>426.48</ele>
        <time>2013-11-16T10:50:40Z</time>
      </trkpt>
      <trkpt lat="45.86711" lon="4.80296">
        <ele>426.96</ele>
        <time>2013-11-16T10:50:44Z</time>
      </trkpt>
      <trkpt lat="45.8671" lon="4.80294">
        <ele>426.96</ele>
        <time>2013-11-16T10:50:45Z</time>
      </trkpt>
      <trkpt lat="45.8671" lon="4.80291">
        <ele>427.44</ele>
        <time>2013-11-16T10:50:46Z</time>
      </trkpt>
      <trkpt lat="45.8671" lon="4.80289">
        <ele>427.44</ele>
        <time>2013-11-16T10:50:47Z</time>
      </trkpt>
      <trkpt lat="45.86709" lon="4.80287">
        <ele>426.96</ele>
        <time>2013-11-16T10:50:48Z</time>
      </trkpt>
      <trkpt lat="45.86709" lon="4.80285">
        <ele>427.44</ele>
        <time>2013-11-16T10:50:49Z</time>
      </trkpt>
      <trkpt lat="45.86708" lon="4.80283">
        <ele>427.44</ele>
        <time>2013-11-16T10:50:50Z</time>
      </trkpt>
      <trkpt lat="45.86708" lon="4.80281">
        <ele>427.44</ele>
        <time>2013-11-16T10:50:51Z</time>
      </trkpt>
      <trkpt lat="45.86708" lon="4.8028">
        <ele>427.92</ele>
        <time>2013-11-16T10:50:52Z</time>
      </trkpt>
      <trkpt lat="45.86707" lon="4.80278">
        <ele>427.44</ele>
        <time>2013-11-16T10:50:53Z</time>
      </trkpt>
      <trkpt lat="45.86707" lon="4.80276">
        <ele>428.4</ele>
        <time>2013-11-16T10:50:54Z</time>
      </trkpt>
      <trkpt lat="45.86706" lon="4.80274">
        <ele>428.4</ele>
        <time>2013-11-16T10:50:55Z</time>
      </trkpt>
      <trkpt lat="45.86706" lon="4.80272">
        <ele>428.89</ele>
        <time>2013-11-16T10:50:56Z</time>
      </trkpt>
      <trkpt lat="45.86705" lon="4.8027">
        <ele>428.89</ele>
        <time>2013-11-16T10:50:57Z</time>
      </trkpt>
      <trkpt lat="45.86705" lon="4.80268">
        <ele>428.89</ele>
        <time>2013-11-16T10:50:58Z</time>
      </trkpt>
      <trkpt lat="45.86704" lon="4.80265">
        <ele>428.89</ele>
        <time>2013-11-16T10:50:59Z</time>
      </trkpt>
      <trkpt lat="45.86703" lon="4.80263">
        <ele>428.89</ele>
        <time>2013-11-16T10:51:00Z</time>
      </trkpt>
      <trkpt lat="45.86703" lon="4.80261">
        <ele>429.37</ele>
        <time>2013-11-16T10:51:01Z</time>
      </trkpt>
      <trkpt lat="45.86703" lon="4.80259">
        <ele>429.85</ele>
        <time>2013-11-16T10:51:02Z</time>
      </trkpt>
      <trkpt lat="45.86702" lon="4.80257">
        <ele>429.85</ele>
        <time>2013-11-16T10:51:03Z</time>
      </trkpt>
      <trkpt lat="45.86702" lon="4.80254">
        <ele>429.85</ele>
        <time>2013-11-16T10:51:04Z</time>
      </trkpt>
      <trkpt lat="45.86702" lon="4.80251">
        <ele>430.33</ele>
        <time>2013-11-16T10:51:05Z</time>
      </trkpt>
      <trkpt lat="45.86702" lon="4.80249">
        <ele>430.33</ele>
        <time>2013-11-16T10:51:06Z</time>
      </trkpt>
      <trkpt lat="45.86702" lon="4.80246">
        <ele>430.81</ele>
        <time>2013-11-16T10:51:07Z</time>
      </trkpt>
      <trkpt lat="45.86702" lon="4.80243">
        <ele>430.81</ele>
        <time>2013-11-16T10:51:08Z</time>
      </trkpt>
      <trkpt lat="45.86702" lon="4.80241">
        <ele>431.29</ele>
        <time>2013-11-16T10:51:09Z</time>
      </trkpt>
      <trkpt lat="45.86701" lon="4.80206">
        <ele>433.69</ele>
        <time>2013-11-16T10:51:23Z</time>
      </trkpt>
      <trkpt lat="45.867" lon="4.80184">
        <ele>435.61</ele>
        <time>2013-11-16T10:51:32Z</time>
      </trkpt>
      <trkpt lat="45.867" lon="4.80182">
        <ele>435.61</ele>
        <time>2013-11-16T10:51:33Z</time>
      </trkpt>
      <trkpt lat="45.867" lon="4.80179">
        <ele>435.61</ele>
        <time>2013-11-16T10:51:34Z</time>
      </trkpt>
      <trkpt lat="45.867" lon="4.80154">
        <ele>437.54</ele>
        <time>2013-11-16T10:51:46Z</time>
      </trkpt>
      <trkpt lat="45.86701" lon="4.80133">
        <ele>439.46</ele>
        <time>2013-11-16T10:51:56Z</time>
      </trkpt>
      <trkpt lat="45.86701" lon="4.80109">
        <ele>440.9</ele>
        <time>2013-11-16T10:52:08Z</time>
      </trkpt>
      <trkpt lat="45.86701" lon="4.80101">
        <ele>441.86</ele>
        <time>2013-11-16T10:52:12Z</time>
      </trkpt>
      <trkpt lat="45.86701" lon="4.80099">
        <ele>442.34</ele>
        <time>2013-11-16T10:52:13Z</time>
      </trkpt>
      <trkpt lat="45.86701" lon="4.80096">
        <ele>442.34</ele>
        <time>2013-11-16T10:52:14Z</time>
      </trkpt>
      <trkpt lat="45.867" lon="4.80094">
        <ele>442.34</ele>
        <time>2013-11-16T10:52:15Z</time>
      </trkpt>
      <trkpt lat="45.867" lon="4.80092">
        <ele>442.34</ele>
        <time>2013-11-16T10:52:16Z</time>
      </trkpt>
      <trkpt lat="45.867" lon="4.8009">
        <ele>442.34</ele>
        <time>2013-11-16T10:52:17Z</time>
      </trkpt>
      <trkpt lat="45.867" lon="4.80088">
        <ele>442.82</ele>
        <time>2013-11-16T10:52:18Z</time>
      </trkpt>
      <trkpt lat="45.86699" lon="4.80086">
        <ele>442.82</ele>
        <time>2013-11-16T10:52:19Z</time>
      </trkpt>
      <trkpt lat="45.86699" lon="4.80084">
        <ele>442.82</ele>
        <time>2013-11-16T10:52:20Z</time>
      </trkpt>
      <trkpt lat="45.86699" lon="4.80082">
        <ele>443.31</ele>
        <time>2013-11-16T10:52:21Z</time>
      </trkpt>
      <trkpt lat="45.86699" lon="4.8008">
        <ele>443.79</ele>
        <time>2013-11-16T10:52:22Z</time>
      </trkpt>
      <trkpt lat="45.86699" lon="4.80078">
        <ele>443.31</ele>
        <time>2013-11-16T10:52:23Z</time>
      </trkpt>
      <trkpt lat="45.867" lon="4.80076">
        <ele>443.31</ele>
        <time>2013-11-16T10:52:24Z</time>
      </trkpt>
      <trkpt lat="45.867" lon="4.80074">
        <ele>443.31</ele>
        <time>2013-11-16T10:52:25Z</time>
      </trkpt>
      <trkpt lat="45.86698" lon="4.80061">
        <ele>444.27</ele>
        <time>2013-11-16T10:52:31Z</time>
      </trkpt>
      <trkpt lat="45.86697" lon="4.80057">
        <ele>443.79</ele>
        <time>2013-11-16T10:52:39Z</time>
      </trkpt>
      <trkpt lat="45.86701" lon="4.80057">
        <ele>444.27</ele>
        <time>2013-11-16T10:52:42Z</time>
      </trkpt>
      <trkpt lat="45.86702" lon="4.80056">
        <ele>444.27</ele>
        <time>2013-11-16T10:52:43Z</time>
      </trkpt>
      <trkpt lat="45.86703" lon="4.80053">
        <ele>444.27</ele>
        <time>2013-11-16T10:52:45Z</time>
      </trkpt>
      <trkpt lat="45.86704" lon="4.80047">
        <ele>444.75</ele>
        <time>2013-11-16T10:52:48Z</time>
      </trkpt>
      <trkpt lat="45.86704" lon="4.80045">
        <ele>444.75</ele>
        <time>2013-11-16T10:52:49Z</time>
      </trkpt>
      <trkpt lat="45.86703" lon="4.80043">
        <ele>444.75</ele>
        <time>2013-11-16T10:52:50Z</time>
      </trkpt>
      <trkpt lat="45.86702" lon="4.80041">
        <ele>444.75</ele>
        <time>2013-11-16T10:52:51Z</time>
      </trkpt>
      <trkpt lat="45.86702" lon="4.80039">
        <ele>444.75</ele>
        <time>2013-11-16T10:52:52Z</time>
      </trkpt>
      <trkpt lat="45.86701" lon="4.80037">
        <ele>444.75</ele>
        <time>2013-11-16T10:52:53Z</time>
      </trkpt>
      <trkpt lat="45.86701" lon="4.80035">
        <ele>444.75</ele>
        <time>2013-11-16T10:52:54Z</time>
      </trkpt>
      <trkpt lat="45.867" lon="4.80033">
        <ele>444.75</ele>
        <time>2013-11-16T10:52:55Z</time>
      </trkpt>
      <trkpt lat="45.86699" lon="4.80031">
        <ele>445.23</ele>
        <time>2013-11-16T10:52:56Z</time>
      </trkpt>
      <trkpt lat="45.86698" lon="4.80029">
        <ele>445.23</ele>
        <time>2013-11-16T10:52:57Z</time>
      </trkpt>
      <trkpt lat="45.86698" lon="4.80027">
        <ele>445.23</ele>
        <time>2013-11-16T10:52:58Z</time>
      </trkpt>
      <trkpt lat="45.86697" lon="4.80025">
        <ele>444.75</ele>
        <time>2013-11-16T10:52:59Z</time>
      </trkpt>
      <trkpt lat="45.86697" lon="4.80024">
        <ele>444.75</ele>
        <time>2013-11-16T10:53:09Z</time>
      </trkpt>
      <trkpt lat="45.86697" lon="4.80024">
        <ele>444.75</ele>
        <time>2013-11-16T10:53:32Z</time>
      </trkpt>
      <trkpt lat="45.86697" lon="4.80024">
        <ele>444.75</ele>
        <time>2013-11-16T10:53:52Z</time>
      </trkpt>
      <trkpt lat="45.86695" lon="4.8002">
        <ele>445.23</ele>
        <time>2013-11-16T10:54:02Z</time>
      </trkpt>
      <trkpt lat="45.86694" lon="4.80018">
        <ele>445.23</ele>
        <time>2013-11-16T10:54:03Z</time>
      </trkpt>
      <trkpt lat="45.86693" lon="4.80016">
        <ele>445.23</ele>
        <time>2013-11-16T10:54:04Z</time>
      </trkpt>
      <trkpt lat="45.86692" lon="4.80014">
        <ele>445.71</ele>
        <time>2013-11-16T10:54:05Z</time>
      </trkpt>
      <trkpt lat="45.8669" lon="4.80011">
        <ele>445.23</ele>
        <time>2013-11-16T10:54:06Z</time>
      </trkpt>
      <trkpt lat="45.86689" lon="4.80009">
        <ele>445.71</ele>
        <time>2013-11-16T10:54:07Z</time>
      </trkpt>
      <trkpt lat="45.86687" lon="4.80006">
        <ele>445.71</ele>
        <time>2013-11-16T10:54:08Z</time>
      </trkpt>
      <trkpt lat="45.86685" lon="4.80003">
        <ele>445.71</ele>
        <time>2013-11-16T10:54:09Z</time>
      </trkpt>
      <trkpt lat="45.86684" lon="4.79999">
        <ele>445.71</ele>
        <time>2013-11-16T10:54:10Z</time>
      </trkpt>
      <trkpt lat="45.8667" lon="4.79973">
        <ele>446.19</ele>
        <time>2013-11-16T10:54:20Z</time>
      </trkpt>
      <trkpt lat="45.86649" lon="4.79953">
        <ele>446.67</ele>
        <time>2013-11-16T10:54:30Z</time>
      </trkpt>
      <trkpt lat="45.86632" lon="4.79941">
        <ele>447.15</ele>
        <time>2013-11-16T10:54:38Z</time>
      </trkpt>
      <trkpt lat="45.86609" lon="4.79925">
        <ele>448.11</ele>
        <time>2013-11-16T10:54:49Z</time>
      </trkpt>
      <trkpt lat="45.86585" lon="4.79912">
        <ele>449.55</ele>
        <time>2013-11-16T10:55:00Z</time>
      </trkpt>
      <trkpt lat="45.86583" lon="4.79907">
        <ele>449.55</ele>
        <time>2013-11-16T10:55:02Z</time>
      </trkpt>
      <trkpt lat="45.86583" lon="4.79905">
        <ele>449.55</ele>
        <time>2013-11-16T10:55:03Z</time>
      </trkpt>
      <trkpt lat="45.86583" lon="4.79902">
        <ele>449.55</ele>
        <time>2013-11-16T10:55:04Z</time>
      </trkpt>
      <trkpt lat="45.86584" lon="4.79899">
        <ele>450.03</ele>
        <time>2013-11-16T10:55:05Z</time>
      </trkpt>
      <trkpt lat="45.86586" lon="4.79897">
        <ele>450.03</ele>
        <time>2013-11-16T10:55:06Z</time>
      </trkpt>
      <trkpt lat="45.86587" lon="4.79895">
        <ele>449.55</ele>
        <time>2013-11-16T10:55:07Z</time>
      </trkpt>
      <trkpt lat="45.8659" lon="4.79893">
        <ele>449.55</ele>
        <time>2013-11-16T10:55:08Z</time>
      </trkpt>
      <trkpt lat="45.86592" lon="4.79891">
        <ele>449.55</ele>
        <time>2013-11-16T10:55:09Z</time>
      </trkpt>
      <trkpt lat="45.86594" lon="4.79889">
        <ele>449.07</ele>
        <time>2013-11-16T10:55:10Z</time>
      </trkpt>
      <trkpt lat="45.86596" lon="4.79887">
        <ele>449.55</ele>
        <time>2013-11-16T10:55:11Z</time>
      </trkpt>
      <trkpt lat="45.86613" lon="4.79865">
        <ele>447.63</ele>
        <time>2013-11-16T10:55:19Z</time>
      </trkpt>
      <trkpt lat="45.86624" lon="4.79845">
        <ele>446.67</ele>
        <time>2013-11-16T10:55:24Z</time>
      </trkpt>
      <trkpt lat="45.86629" lon="4.79833">
        <ele>445.71</ele>
        <time>2013-11-16T10:55:26Z</time>
      </trkpt>
      <trkpt lat="45.86631" lon="4.79826">
        <ele>445.23</ele>
        <time>2013-11-16T10:55:27Z</time>
      </trkpt>
      <trkpt lat="45.86635" lon="4.79812">
        <ele>444.27</ele>
        <time>2013-11-16T10:55:29Z</time>
      </trkpt>
      <trkpt lat="45.86637" lon="4.79804">
        <ele>443.79</ele>
        <time>2013-11-16T10:55:30Z</time>
      </trkpt>
      <trkpt lat="45.8664" lon="4.79797">
        <ele>442.82</ele>
        <time>2013-11-16T10:55:31Z</time>
      </trkpt>
      <trkpt lat="45.86644" lon="4.7979">
        <ele>442.82</ele>
        <time>2013-11-16T10:55:32Z</time>
      </trkpt>
      <trkpt lat="45.86647" lon="4.79784">
        <ele>442.34</ele>
        <time>2013-11-16T10:55:33Z</time>
      </trkpt>
      <trkpt lat="45.86651" lon="4.79778">
        <ele>442.34</ele>
        <time>2013-11-16T10:55:34Z</time>
      </trkpt>
      <trkpt lat="45.86655" lon="4.79771">
        <ele>441.86</ele>
        <time>2013-11-16T10:55:35Z</time>
      </trkpt>
      <trkpt lat="45.86673" lon="4.79733">
        <ele>439.94</ele>
        <time>2013-11-16T10:55:40Z</time>
      </trkpt>
      <trkpt lat="45.86682" lon="4.79707">
        <ele>438.02</ele>
        <time>2013-11-16T10:55:43Z</time>
      </trkpt>
      <trkpt lat="45.86686" lon="4.79692">
        <ele>437.06</ele>
        <time>2013-11-16T10:55:45Z</time>
      </trkpt>
      <trkpt lat="45.86688" lon="4.79685">
        <ele>436.1</ele>
        <time>2013-11-16T10:55:46Z</time>
      </trkpt>
      <trkpt lat="45.8669" lon="4.79678">
        <ele>435.61</ele>
        <time>2013-11-16T10:55:47Z</time>
      </trkpt>
      <trkpt lat="45.86691" lon="4.7967">
        <ele>435.61</ele>
        <time>2013-11-16T10:55:48Z</time>
      </trkpt>
      <trkpt lat="45.86693" lon="4.79663">
        <ele>434.17</ele>
        <time>2013-11-16T10:55:49Z</time>
      </trkpt>
      <trkpt lat="45.86696" lon="4.79649">
        <ele>432.73</ele>
        <time>2013-11-16T10:55:52Z</time>
      </trkpt>
      <trkpt lat="45.86698" lon="4.79643">
        <ele>431.77</ele>
        <time>2013-11-16T10:55:59Z</time>
      </trkpt>
      <trkpt lat="45.86695" lon="4.79644">
        <ele>432.25</ele>
        <time>2013-11-16T10:56:09Z</time>
      </trkpt>
      <trkpt lat="45.86693" lon="4.79646">
        <ele>432.73</ele>
        <time>2013-11-16T10:56:14Z</time>
      </trkpt>
      <trkpt lat="45.86691" lon="4.79649">
        <ele>432.73</ele>
        <time>2013-11-16T10:56:17Z</time>
      </trkpt>
      <trkpt lat="45.8669" lon="4.79651">
        <ele>432.73</ele>
        <time>2013-11-16T10:56:18Z</time>
      </trkpt>
      <trkpt lat="45.86691" lon="4.79653">
        <ele>433.21</ele>
        <time>2013-11-16T10:56:20Z</time>
      </trkpt>
      <trkpt lat="45.86692" lon="4.79654">
        <ele>433.21</ele>
        <time>2013-11-16T10:56:21Z</time>
      </trkpt>
      <trkpt lat="45.86693" lon="4.79656">
        <ele>432.73</ele>
        <time>2013-11-16T10:56:22Z</time>
      </trkpt>
      <trkpt lat="45.86692" lon="4.79659">
        <ele>433.21</ele>
        <time>2013-11-16T10:56:23Z</time>
      </trkpt>
      <trkpt lat="45.86691" lon="4.7966">
        <ele>433.69</ele>
        <time>2013-11-16T10:56:24Z</time>
      </trkpt>
      <trkpt lat="45.8669" lon="4.79663">
        <ele>433.69</ele>
        <time>2013-11-16T10:56:25Z</time>
      </trkpt>
      <trkpt lat="45.86689" lon="4.79665">
        <ele>433.69</ele>
        <time>2013-11-16T10:56:26Z</time>
      </trkpt>
      <trkpt lat="45.86688" lon="4.79668">
        <ele>434.17</ele>
        <time>2013-11-16T10:56:27Z</time>
      </trkpt>
      <trkpt lat="45.86687" lon="4.79671">
        <ele>435.13</ele>
        <time>2013-11-16T10:56:28Z</time>
      </trkpt>
      <trkpt lat="45.86687" lon="4.79673">
        <ele>434.65</ele>
        <time>2013-11-16T10:56:29Z</time>
      </trkpt>
      <trkpt lat="45.86686" lon="4.79676">
        <ele>435.13</ele>
        <time>2013-11-16T10:56:30Z</time>
      </trkpt>
      <trkpt lat="45.86685" lon="4.79678">
        <ele>435.13</ele>
        <time>2013-11-16T10:56:31Z</time>
      </trkpt>
      <trkpt lat="45.86678" lon="4.79696">
        <ele>437.06</ele>
        <time>2013-11-16T10:56:40Z</time>
      </trkpt>
      <trkpt lat="45.86668" lon="4.79721">
        <ele>439.46</ele>
        <time>2013-11-16T10:56:51Z</time>
      </trkpt>
      <trkpt lat="45.86667" lon="4.79722">
        <ele>439.46</ele>
        <time>2013-11-16T10:56:52Z</time>
      </trkpt>
      <trkpt lat="45.86666" lon="4.79724">
        <ele>439.94</ele>
        <time>2013-11-16T10:56:53Z</time>
      </trkpt>
      <trkpt lat="45.86665" lon="4.79724">
        <ele>439.94</ele>
        <time>2013-11-16T10:56:54Z</time>
      </trkpt>
      <trkpt lat="45.86664" lon="4.79723">
        <ele>439.94</ele>
        <time>2013-11-16T10:56:56Z</time>
      </trkpt>
      <trkpt lat="45.86664" lon="4.79721">
        <ele>439.94</ele>
        <time>2013-11-16T10:56:57Z</time>
      </trkpt>
      <trkpt lat="45.86665" lon="4.79719">
        <ele>440.42</ele>
        <time>2013-11-16T10:56:58Z</time>
      </trkpt>
      <trkpt lat="45.86666" lon="4.79716">
        <ele>440.42</ele>
        <time>2013-11-16T10:56:59Z</time>
      </trkpt>
      <trkpt lat="45.86666" lon="4.79714">
        <ele>440.42</ele>
        <time>2013-11-16T10:57:00Z</time>
      </trkpt>
      <trkpt lat="45.86667" lon="4.79712">
        <ele>440.42</ele>
        <time>2013-11-16T10:57:01Z</time>
      </trkpt>
      <trkpt lat="45.86667" lon="4.7971">
        <ele>440.42</ele>
        <time>2013-11-16T10:57:02Z</time>
      </trkpt>
      <trkpt lat="45.86667" lon="4.79707">
        <ele>440.9</ele>
        <time>2013-11-16T10:57:03Z</time>
      </trkpt>
      <trkpt lat="45.86667" lon="4.79705">
        <ele>440.9</ele>
        <time>2013-11-16T10:57:04Z</time>
      </trkpt>
      <trkpt lat="45.86661" lon="4.79679">
        <ele>442.34</ele>
        <time>2013-11-16T10:57:14Z</time>
      </trkpt>
      <trkpt lat="45.8666" lon="4.79671">
        <ele>442.82</ele>
        <time>2013-11-16T10:57:18Z</time>
      </trkpt>
      <trkpt lat="45.86659" lon="4.79668">
        <ele>442.82</ele>
        <time>2013-11-16T10:57:19Z</time>
      </trkpt>
      <trkpt lat="45.86654" lon="4.79652">
        <ele>443.79</ele>
        <time>2013-11-16T10:57:25Z</time>
      </trkpt>
      <trkpt lat="45.86654" lon="4.7965">
        <ele>443.79</ele>
        <time>2013-11-16T10:57:26Z</time>
      </trkpt>
      <trkpt lat="45.86653" lon="4.79647">
        <ele>443.79</ele>
        <time>2013-11-16T10:57:27Z</time>
      </trkpt>
      <trkpt lat="45.86652" lon="4.79644">
        <ele>443.79</ele>
        <time>2013-11-16T10:57:28Z</time>
      </trkpt>
      <trkpt lat="45.86652" lon="4.79641">
        <ele>444.27</ele>
        <time>2013-11-16T10:57:29Z</time>
      </trkpt>
      <trkpt lat="45.86652" lon="4.79639">
        <ele>443.79</ele>
        <time>2013-11-16T10:57:30Z</time>
      </trkpt>
      <trkpt lat="45.86652" lon="4.79637">
        <ele>444.27</ele>
        <time>2013-11-16T10:57:31Z</time>
      </trkpt>
      <trkpt lat="45.86652" lon="4.79634">
        <ele>444.27</ele>
        <time>2013-11-16T10:57:32Z</time>
      </trkpt>
      <trkpt lat="45.86652" lon="4.79631">
        <ele>444.27</ele>
        <time>2013-11-16T10:57:33Z</time>
      </trkpt>
      <trkpt lat="45.86651" lon="4.79628">
        <ele>444.75</ele>
        <time>2013-11-16T10:57:34Z</time>
      </trkpt>
      <trkpt lat="45.86649" lon="4.79599">
        <ele>443.31</ele>
        <time>2013-11-16T10:57:41Z</time>
      </trkpt>
      <trkpt lat="45.8665" lon="4.79596">
        <ele>443.31</ele>
        <time>2013-11-16T10:57:42Z</time>
      </trkpt>
      <trkpt lat="45.86651" lon="4.79594">
        <ele>443.31</ele>
        <time>2013-11-16T10:57:43Z</time>
      </trkpt>
      <trkpt lat="45.86652" lon="4.79589">
        <ele>443.31</ele>
        <time>2013-11-16T10:57:44Z</time>
      </trkpt>
      <trkpt lat="45.86651" lon="4.79584">
        <ele>443.31</ele>
        <time>2013-11-16T10:57:45Z</time>
      </trkpt>
      <trkpt lat="45.86651" lon="4.79578">
        <ele>442.82</ele>
        <time>2013-11-16T10:57:46Z</time>
      </trkpt>
      <trkpt lat="45.86654" lon="4.79535">
        <ele>441.86</ele>
        <time>2013-11-16T10:57:53Z</time>
      </trkpt>
      <trkpt lat="45.86655" lon="4.79515">
        <ele>440.9</ele>
        <time>2013-11-16T10:57:56Z</time>
      </trkpt>
      <trkpt lat="45.86654" lon="4.79506">
        <ele>440.42</ele>
        <time>2013-11-16T10:57:57Z</time>
      </trkpt>
      <trkpt lat="45.86654" lon="4.79498">
        <ele>439.94</ele>
        <time>2013-11-16T10:57:58Z</time>
      </trkpt>
      <trkpt lat="45.86654" lon="4.7945">
        <ele>437.54</ele>
        <time>2013-11-16T10:58:05Z</time>
      </trkpt>
      <trkpt lat="45.86653" lon="4.79416">
        <ele>435.13</ele>
        <time>2013-11-16T10:58:13Z</time>
      </trkpt>
      <trkpt lat="45.86652" lon="4.79408">
        <ele>434.65</ele>
        <time>2013-11-16T10:58:19Z</time>
      </trkpt>
      <trkpt lat="45.86651" lon="4.79406">
        <ele>434.65</ele>
        <time>2013-11-16T10:58:26Z</time>
      </trkpt>
      <trkpt lat="45.86651" lon="4.79403">
        <ele>435.13</ele>
        <time>2013-11-16T10:58:36Z</time>
      </trkpt>
      <trkpt lat="45.86651" lon="4.794">
        <ele>434.17</ele>
        <time>2013-11-16T10:58:46Z</time>
      </trkpt>
      <trkpt lat="45.86651" lon="4.79398">
        <ele>434.17</ele>
        <time>2013-11-16T10:58:47Z</time>
      </trkpt>
      <trkpt lat="45.86651" lon="4.79394">
        <ele>434.17</ele>
        <time>2013-11-16T10:58:48Z</time>
      </trkpt>
      <trkpt lat="45.86651" lon="4.79391">
        <ele>434.17</ele>
        <time>2013-11-16T10:58:49Z</time>
      </trkpt>
      <trkpt lat="45.86651" lon="4.79387">
        <ele>433.21</ele>
        <time>2013-11-16T10:58:50Z</time>
      </trkpt>
      <trkpt lat="45.8665" lon="4.79382">
        <ele>433.21</ele>
        <time>2013-11-16T10:58:51Z</time>
      </trkpt>
      <trkpt lat="45.86641" lon="4.79344">
        <ele>433.69</ele>
        <time>2013-11-16T10:58:59Z</time>
      </trkpt>
      <trkpt lat="45.86626" lon="4.79298">
        <ele>434.65</ele>
        <time>2013-11-16T10:59:10Z</time>
      </trkpt>
      <trkpt lat="45.86607" lon="4.7925">
        <ele>436.1</ele>
        <time>2013-11-16T10:59:23Z</time>
      </trkpt>
      <trkpt lat="45.86589" lon="4.7921">
        <ele>437.54</ele>
        <time>2013-11-16T10:59:35Z</time>
      </trkpt>
      <trkpt lat="45.86572" lon="4.79175">
        <ele>438.98</ele>
        <time>2013-11-16T10:59:46Z</time>
      </trkpt>
      <trkpt lat="45.86554" lon="4.79138">
        <ele>440.9</ele>
        <time>2013-11-16T10:59:58Z</time>
      </trkpt>
      <trkpt lat="45.8654" lon="4.79113">
        <ele>442.34</ele>
        <time>2013-11-16T11:00:08Z</time>
      </trkpt>
      <trkpt lat="45.8652" lon="4.79081">
        <ele>444.75</ele>
        <time>2013-11-16T11:00:21Z</time>
      </trkpt>
      <trkpt lat="45.86499" lon="4.79049">
        <ele>446.67</ele>
        <time>2013-11-16T11:00:34Z</time>
      </trkpt>
      <trkpt lat="45.8648" lon="4.7902">
        <ele>448.11</ele>
        <time>2013-11-16T11:00:45Z</time>
      </trkpt>
      <trkpt lat="45.86459" lon="4.78989">
        <ele>449.07</ele>
        <time>2013-11-16T11:00:57Z</time>
      </trkpt>
      <trkpt lat="45.86436" lon="4.78951">
        <ele>449.07</ele>
        <time>2013-11-16T11:01:09Z</time>
      </trkpt>
      <trkpt lat="45.86419" lon="4.78916">
        <ele>450.03</ele>
        <time>2013-11-16T11:01:20Z</time>
      </trkpt>
      <trkpt lat="45.86402" lon="4.78878">
        <ele>451</ele>
        <time>2013-11-16T11:01:30Z</time>
      </trkpt>
      <trkpt lat="45.86383" lon="4.78838">
        <ele>451.96</ele>
        <time>2013-11-16T11:01:41Z</time>
      </trkpt>
      <trkpt lat="45.86365" lon="4.78817">
        <ele>452.44</ele>
        <time>2013-11-16T11:01:50Z</time>
      </trkpt>
      <trkpt lat="45.86345" lon="4.78798">
        <ele>454.84</ele>
        <time>2013-11-16T11:02:01Z</time>
      </trkpt>
      <trkpt lat="45.8633" lon="4.78784">
        <ele>456.76</ele>
        <time>2013-11-16T11:02:10Z</time>
      </trkpt>
      <trkpt lat="45.86315" lon="4.78769">
        <ele>458.21</ele>
        <time>2013-11-16T11:02:20Z</time>
      </trkpt>
      <trkpt lat="45.86298" lon="4.7875">
        <ele>460.13</ele>
        <time>2013-11-16T11:02:31Z</time>
      </trkpt>
      <trkpt lat="45.86286" lon="4.78739">
        <ele>460.61</ele>
        <time>2013-11-16T11:02:40Z</time>
      </trkpt>
      <trkpt lat="45.86275" lon="4.78731">
        <ele>462.05</ele>
        <time>2013-11-16T11:02:47Z</time>
      </trkpt>
      <trkpt lat="45.86274" lon="4.7873">
        <ele>462.05</ele>
        <time>2013-11-16T11:02:48Z</time>
      </trkpt>
      <trkpt lat="45.86272" lon="4.78729">
        <ele>462.53</ele>
        <time>2013-11-16T11:02:49Z</time>
      </trkpt>
      <trkpt lat="45.86271" lon="4.78728">
        <ele>462.53</ele>
        <time>2013-11-16T11:02:50Z</time>
      </trkpt>
      <trkpt lat="45.86255" lon="4.78717">
        <ele>463.49</ele>
        <time>2013-11-16T11:03:01Z</time>
      </trkpt>
      <trkpt lat="45.86237" lon="4.78705">
        <ele>463.97</ele>
        <time>2013-11-16T11:03:11Z</time>
      </trkpt>
      <trkpt lat="45.86217" lon="4.7869">
        <ele>464.93</ele>
        <time>2013-11-16T11:03:21Z</time>
      </trkpt>
      <trkpt lat="45.86198" lon="4.78678">
        <ele>465.42</ele>
        <time>2013-11-16T11:03:30Z</time>
      </trkpt>
      <trkpt lat="45.86178" lon="4.78661">
        <ele>466.86</ele>
        <time>2013-11-16T11:03:41Z</time>
      </trkpt>
      <trkpt lat="45.86158" lon="4.78645">
        <ele>467.34</ele>
        <time>2013-11-16T11:03:51Z</time>
      </trkpt>
      <trkpt lat="45.86129" lon="4.78626">
        <ele>467.34</ele>
        <time>2013-11-16T11:04:03Z</time>
      </trkpt>
      <trkpt lat="45.86102" lon="4.78609">
        <ele>467.82</ele>
        <time>2013-11-16T11:04:12Z</time>
      </trkpt>
      <trkpt lat="45.86079" lon="4.78593">
        <ele>468.3</ele>
        <time>2013-11-16T11:04:21Z</time>
      </trkpt>
      <trkpt lat="45.86056" lon="4.7858">
        <ele>469.26</ele>
        <time>2013-11-16T11:04:30Z</time>
      </trkpt>
      <trkpt lat="45.86027" lon="4.78562">
        <ele>470.22</ele>
        <time>2013-11-16T11:04:41Z</time>
      </trkpt>
      <trkpt lat="45.85999" lon="4.78547">
        <ele>471.66</ele>
        <time>2013-11-16T11:04:51Z</time>
      </trkpt>
      <trkpt lat="45.85977" lon="4.78528">
        <ele>472.14</ele>
        <time>2013-11-16T11:05:01Z</time>
      </trkpt>
      <trkpt lat="45.85958" lon="4.78488">
        <ele>473.59</ele>
        <time>2013-11-16T11:05:13Z</time>
      </trkpt>
      <trkpt lat="45.85945" lon="4.78461">
        <ele>475.03</ele>
        <time>2013-11-16T11:05:22Z</time>
      </trkpt>
      <trkpt lat="45.85932" lon="4.78448">
        <ele>475.99</ele>
        <time>2013-11-16T11:05:31Z</time>
      </trkpt>
      <trkpt lat="45.85916" lon="4.78438">
        <ele>477.91</ele>
        <time>2013-11-16T11:05:41Z</time>
      </trkpt>
      <trkpt lat="45.85912" lon="4.78436">
        <ele>477.43</ele>
        <time>2013-11-16T11:05:43Z</time>
      </trkpt>
      <trkpt lat="45.8591" lon="4.78435">
        <ele>477.91</ele>
        <time>2013-11-16T11:05:44Z</time>
      </trkpt>
      <trkpt lat="45.85908" lon="4.78434">
        <ele>477.91</ele>
        <time>2013-11-16T11:05:45Z</time>
      </trkpt>
      <trkpt lat="45.85907" lon="4.78434">
        <ele>478.39</ele>
        <time>2013-11-16T11:05:46Z</time>
      </trkpt>
      <trkpt lat="45.85905" lon="4.78433">
        <ele>477.91</ele>
        <time>2013-11-16T11:05:47Z</time>
      </trkpt>
      <trkpt lat="45.85903" lon="4.78432">
        <ele>478.39</ele>
        <time>2013-11-16T11:05:48Z</time>
      </trkpt>
      <trkpt lat="45.85902" lon="4.78431">
        <ele>478.39</ele>
        <time>2013-11-16T11:05:49Z</time>
      </trkpt>
      <trkpt lat="45.859" lon="4.7843">
        <ele>478.39</ele>
        <time>2013-11-16T11:05:50Z</time>
      </trkpt>
      <trkpt lat="45.85899" lon="4.78429">
        <ele>478.87</ele>
        <time>2013-11-16T11:05:51Z</time>
      </trkpt>
      <trkpt lat="45.85897" lon="4.78428">
        <ele>479.35</ele>
        <time>2013-11-16T11:05:52Z</time>
      </trkpt>
      <trkpt lat="45.85895" lon="4.78428">
        <ele>479.35</ele>
        <time>2013-11-16T11:05:53Z</time>
      </trkpt>
      <trkpt lat="45.85893" lon="4.78427">
        <ele>479.35</ele>
        <time>2013-11-16T11:05:54Z</time>
      </trkpt>
      <trkpt lat="45.85892" lon="4.78426">
        <ele>479.84</ele>
        <time>2013-11-16T11:05:55Z</time>
      </trkpt>
      <trkpt lat="45.8589" lon="4.78425">
        <ele>479.35</ele>
        <time>2013-11-16T11:05:56Z</time>
      </trkpt>
      <trkpt lat="45.85889" lon="4.78424">
        <ele>480.32</ele>
        <time>2013-11-16T11:05:57Z</time>
      </trkpt>
      <trkpt lat="45.85887" lon="4.78423">
        <ele>480.32</ele>
        <time>2013-11-16T11:05:58Z</time>
      </trkpt>
      <trkpt lat="45.85886" lon="4.78422">
        <ele>479.84</ele>
        <time>2013-11-16T11:05:59Z</time>
      </trkpt>
      <trkpt lat="45.85884" lon="4.78421">
        <ele>480.32</ele>
        <time>2013-11-16T11:06:00Z</time>
      </trkpt>
      <trkpt lat="45.85867" lon="4.78412">
        <ele>481.28</ele>
        <time>2013-11-16T11:06:10Z</time>
      </trkpt>
      <trkpt lat="45.85849" lon="4.78404">
        <ele>482.24</ele>
        <time>2013-11-16T11:06:21Z</time>
      </trkpt>
      <trkpt lat="45.8583" lon="4.78391">
        <ele>483.68</ele>
        <time>2013-11-16T11:06:33Z</time>
      </trkpt>
      <trkpt lat="45.85828" lon="4.7839">
        <ele>483.68</ele>
        <time>2013-11-16T11:06:34Z</time>
      </trkpt>
      <trkpt lat="45.85812" lon="4.78381">
        <ele>484.64</ele>
        <time>2013-11-16T11:06:44Z</time>
      </trkpt>
      <trkpt lat="45.85793" lon="4.7837">
        <ele>485.6</ele>
        <time>2013-11-16T11:06:55Z</time>
      </trkpt>
      <trkpt lat="45.85775" lon="4.78362">
        <ele>486.08</ele>
        <time>2013-11-16T11:07:05Z</time>
      </trkpt>
      <trkpt lat="45.85767" lon="4.78357">
        <ele>487.05</ele>
        <time>2013-11-16T11:07:10Z</time>
      </trkpt>
      <trkpt lat="45.85765" lon="4.78356">
        <ele>487.05</ele>
        <time>2013-11-16T11:07:11Z</time>
      </trkpt>
      <trkpt lat="45.85763" lon="4.78355">
        <ele>488.01</ele>
        <time>2013-11-16T11:07:12Z</time>
      </trkpt>
      <trkpt lat="45.85761" lon="4.78354">
        <ele>487.05</ele>
        <time>2013-11-16T11:07:13Z</time>
      </trkpt>
      <trkpt lat="45.8576" lon="4.78353">
        <ele>487.53</ele>
        <time>2013-11-16T11:07:14Z</time>
      </trkpt>
      <trkpt lat="45.85758" lon="4.78352">
        <ele>487.53</ele>
        <time>2013-11-16T11:07:15Z</time>
      </trkpt>
      <trkpt lat="45.85756" lon="4.78351">
        <ele>488.01</ele>
        <time>2013-11-16T11:07:16Z</time>
      </trkpt>
      <trkpt lat="45.85754" lon="4.7835">
        <ele>488.01</ele>
        <time>2013-11-16T11:07:17Z</time>
      </trkpt>
      <trkpt lat="45.85753" lon="4.7835">
        <ele>488.49</ele>
        <time>2013-11-16T11:07:18Z</time>
      </trkpt>
      <trkpt lat="45.85751" lon="4.78349">
        <ele>488.49</ele>
        <time>2013-11-16T11:07:19Z</time>
      </trkpt>
      <trkpt lat="45.8575" lon="4.78349">
        <ele>488.49</ele>
        <time>2013-11-16T11:07:20Z</time>
      </trkpt>
      <trkpt lat="45.85735" lon="4.7834">
        <ele>489.45</ele>
        <time>2013-11-16T11:07:29Z</time>
      </trkpt>
      <trkpt lat="45.85715" lon="4.78328">
        <ele>490.89</ele>
        <time>2013-11-16T11:07:41Z</time>
      </trkpt>
      <trkpt lat="45.85711" lon="4.78326">
        <ele>490.89</ele>
        <time>2013-11-16T11:07:44Z</time>
      </trkpt>
      <trkpt lat="45.8571" lon="4.78328">
        <ele>490.89</ele>
        <time>2013-11-16T11:07:45Z</time>
      </trkpt>
      <trkpt lat="45.85709" lon="4.7833">
        <ele>490.41</ele>
        <time>2013-11-16T11:07:46Z</time>
      </trkpt>
      <trkpt lat="45.8571" lon="4.78332">
        <ele>490.89</ele>
        <time>2013-11-16T11:07:47Z</time>
      </trkpt>
      <trkpt lat="45.85711" lon="4.78334">
        <ele>490.89</ele>
        <time>2013-11-16T11:07:48Z</time>
      </trkpt>
      <trkpt lat="45.85711" lon="4.78336">
        <ele>490.89</ele>
        <time>2013-11-16T11:07:49Z</time>
      </trkpt>
      <trkpt lat="45.8571" lon="4.78339">
        <ele>490.89</ele>
        <time>2013-11-16T11:07:50Z</time>
      </trkpt>
      <trkpt lat="45.85709" lon="4.78341">
        <ele>490.41</ele>
        <time>2013-11-16T11:07:51Z</time>
      </trkpt>
      <trkpt lat="45.85709" lon="4.78343">
        <ele>490.41</ele>
        <time>2013-11-16T11:07:52Z</time>
      </trkpt>
      <trkpt lat="45.85707" lon="4.78345">
        <ele>490.41</ele>
        <time>2013-11-16T11:07:54Z</time>
      </trkpt>
      <trkpt lat="45.85705" lon="4.78346">
        <ele>489.93</ele>
        <time>2013-11-16T11:07:55Z</time>
      </trkpt>
      <trkpt lat="45.85704" lon="4.78347">
        <ele>490.41</ele>
        <time>2013-11-16T11:07:56Z</time>
      </trkpt>
      <trkpt lat="45.85703" lon="4.78348">
        <ele>490.41</ele>
        <time>2013-11-16T11:07:57Z</time>
      </trkpt>
      <trkpt lat="45.85701" lon="4.78348">
        <ele>490.41</ele>
        <time>2013-11-16T11:07:58Z</time>
      </trkpt>
      <trkpt lat="45.857" lon="4.78349">
        <ele>490.89</ele>
        <time>2013-11-16T11:07:59Z</time>
      </trkpt>
      <trkpt lat="45.85699" lon="4.7835">
        <ele>490.89</ele>
        <time>2013-11-16T11:08:00Z</time>
      </trkpt>
      <trkpt lat="45.85697" lon="4.78351">
        <ele>491.37</ele>
        <time>2013-11-16T11:08:01Z</time>
      </trkpt>
      <trkpt lat="45.85693" lon="4.78355">
        <ele>491.37</ele>
        <time>2013-11-16T11:08:05Z</time>
      </trkpt>
      <trkpt lat="45.85691" lon="4.78355">
        <ele>491.85</ele>
        <time>2013-11-16T11:08:06Z</time>
      </trkpt>
      <trkpt lat="45.8569" lon="4.78355">
        <ele>491.37</ele>
        <time>2013-11-16T11:08:07Z</time>
      </trkpt>
      <trkpt lat="45.85688" lon="4.78354">
        <ele>491.85</ele>
        <time>2013-11-16T11:08:16Z</time>
      </trkpt>
      <trkpt lat="45.85683" lon="4.78355">
        <ele>492.81</ele>
        <time>2013-11-16T11:08:25Z</time>
      </trkpt>
      <trkpt lat="45.85681" lon="4.78365">
        <ele>493.29</ele>
        <time>2013-11-16T11:08:35Z</time>
      </trkpt>
      <trkpt lat="45.85681" lon="4.78365">
        <ele>493.29</ele>
        <time>2013-11-16T11:08:48Z</time>
      </trkpt>
      <trkpt lat="45.85681" lon="4.78365">
        <ele>492.81</ele>
        <time>2013-11-16T11:09:14Z</time>
      </trkpt>
      <trkpt lat="45.85681" lon="4.78365">
        <ele>492.33</ele>
        <time>2013-11-16T11:09:41Z</time>
      </trkpt>
      <trkpt lat="45.85681" lon="4.78365">
        <ele>492.81</ele>
        <time>2013-11-16T11:10:11Z</time>
      </trkpt>
      <trkpt lat="45.85681" lon="4.78365">
        <ele>492.33</ele>
        <time>2013-11-16T11:10:41Z</time>
      </trkpt>
      <trkpt lat="45.85681" lon="4.78365">
        <ele>492.81</ele>
        <time>2013-11-16T11:11:07Z</time>
      </trkpt>
      <trkpt lat="45.85681" lon="4.78365">
        <ele>492.81</ele>
        <time>2013-11-16T11:11:30Z</time>
      </trkpt>
      <trkpt lat="45.85681" lon="4.78365">
        <ele>492.33</ele>
        <time>2013-11-16T11:11:55Z</time>
      </trkpt>
      <trkpt lat="45.85681" lon="4.78365">
        <ele>492.81</ele>
        <time>2013-11-16T11:12:28Z</time>
      </trkpt>
      <trkpt lat="45.85681" lon="4.78365">
        <ele>492.33</ele>
        <time>2013-11-16T11:12:52Z</time>
      </trkpt>
      <trkpt lat="45.85681" lon="4.78365">
        <ele>492.81</ele>
        <time>2013-11-16T11:13:14Z</time>
      </trkpt>
      <trkpt lat="45.85682" lon="4.78371">
        <ele>493.29</ele>
        <time>2013-11-16T11:13:19Z</time>
      </trkpt>
      <trkpt lat="45.85682" lon="4.78373">
        <ele>493.29</ele>
        <time>2013-11-16T11:13:20Z</time>
      </trkpt>
      <trkpt lat="45.85682" lon="4.78377">
        <ele>493.77</ele>
        <time>2013-11-16T11:13:22Z</time>
      </trkpt>
      <trkpt lat="45.85683" lon="4.78381">
        <ele>493.29</ele>
        <time>2013-11-16T11:13:24Z</time>
      </trkpt>
      <trkpt lat="45.85684" lon="4.78383">
        <ele>493.77</ele>
        <time>2013-11-16T11:13:25Z</time>
      </trkpt>
      <trkpt lat="45.85684" lon="4.78385">
        <ele>493.29</ele>
        <time>2013-11-16T11:13:26Z</time>
      </trkpt>
      <trkpt lat="45.85684" lon="4.78387">
        <ele>493.77</ele>
        <time>2013-11-16T11:13:27Z</time>
      </trkpt>
      <trkpt lat="45.85685" lon="4.78389">
        <ele>493.77</ele>
        <time>2013-11-16T11:13:28Z</time>
      </trkpt>
      <trkpt lat="45.85686" lon="4.78392">
        <ele>494.26</ele>
        <time>2013-11-16T11:13:30Z</time>
      </trkpt>
      <trkpt lat="45.85686" lon="4.78394">
        <ele>494.26</ele>
        <time>2013-11-16T11:13:31Z</time>
      </trkpt>
      <trkpt lat="45.85687" lon="4.78395">
        <ele>494.26</ele>
        <time>2013-11-16T11:13:32Z</time>
      </trkpt>
      <trkpt lat="45.85688" lon="4.78397">
        <ele>494.26</ele>
        <time>2013-11-16T11:13:33Z</time>
      </trkpt>
      <trkpt lat="45.85688" lon="4.784">
        <ele>494.26</ele>
        <time>2013-11-16T11:13:34Z</time>
      </trkpt>
      <trkpt lat="45.85688" lon="4.78403">
        <ele>494.74</ele>
        <time>2013-11-16T11:13:35Z</time>
      </trkpt>
      <trkpt lat="45.85689" lon="4.78405">
        <ele>494.74</ele>
        <time>2013-11-16T11:13:36Z</time>
      </trkpt>
      <trkpt lat="45.8569" lon="4.78408">
        <ele>494.74</ele>
        <time>2013-11-16T11:13:37Z</time>
      </trkpt>
      <trkpt lat="45.8569" lon="4.7841">
        <ele>494.74</ele>
        <time>2013-11-16T11:13:38Z</time>
      </trkpt>
      <trkpt lat="45.85689" lon="4.78424">
        <ele>495.7</ele>
        <time>2013-11-16T11:13:45Z</time>
      </trkpt>
      <trkpt lat="45.8569" lon="4.78438">
        <ele>495.7</ele>
        <time>2013-11-16T11:13:53Z</time>
      </trkpt>
      <trkpt lat="45.85691" lon="4.78449">
        <ele>496.66</ele>
        <time>2013-11-16T11:13:57Z</time>
      </trkpt>
      <trkpt lat="45.85691" lon="4.78451">
        <ele>496.66</ele>
        <time>2013-11-16T11:13:58Z</time>
      </trkpt>
      <trkpt lat="45.85696" lon="4.78466">
        <ele>497.62</ele>
        <time>2013-11-16T11:14:06Z</time>
      </trkpt>
      <trkpt lat="45.85696" lon="4.78467">
        <ele>498.1</ele>
        <time>2013-11-16T11:14:07Z</time>
      </trkpt>
      <trkpt lat="45.85702" lon="4.78484">
        <ele>499.06</ele>
        <time>2013-11-16T11:14:17Z</time>
      </trkpt>
      <trkpt lat="45.85709" lon="4.78493">
        <ele>500.02</ele>
        <time>2013-11-16T11:14:27Z</time>
      </trkpt>
      <trkpt lat="45.85709" lon="4.78493">
        <ele>500.98</ele>
        <time>2013-11-16T11:14:40Z</time>
      </trkpt>
      <trkpt lat="45.85711" lon="4.78495">
        <ele>501.95</ele>
        <time>2013-11-16T11:14:48Z</time>
      </trkpt>
      <trkpt lat="45.85717" lon="4.78504">
        <ele>502.43</ele>
        <time>2013-11-16T11:14:56Z</time>
      </trkpt>
      <trkpt lat="45.85728" lon="4.78518">
        <ele>503.39</ele>
        <time>2013-11-16T11:15:06Z</time>
      </trkpt>
      <trkpt lat="45.85737" lon="4.78528">
        <ele>504.35</ele>
        <time>2013-11-16T11:15:17Z</time>
      </trkpt>
      <trkpt lat="45.85737" lon="4.78528">
        <ele>505.31</ele>
        <time>2013-11-16T11:15:27Z</time>
      </trkpt>
      <trkpt lat="45.85737" lon="4.78528">
        <ele>506.27</ele>
        <time>2013-11-16T11:15:39Z</time>
      </trkpt>
      <trkpt lat="45.85748" lon="4.78543">
        <ele>506.75</ele>
        <time>2013-11-16T11:15:47Z</time>
      </trkpt>
      <trkpt lat="45.85754" lon="4.78551">
        <ele>507.23</ele>
        <time>2013-11-16T11:15:50Z</time>
      </trkpt>
      <trkpt lat="45.85755" lon="4.78554">
        <ele>507.23</ele>
        <time>2013-11-16T11:15:51Z</time>
      </trkpt>
      <trkpt lat="45.85757" lon="4.78556">
        <ele>508.67</ele>
        <time>2013-11-16T11:15:59Z</time>
      </trkpt>
      <trkpt lat="45.85757" lon="4.78556">
        <ele>508.19</ele>
        <time>2013-11-16T11:16:01Z</time>
      </trkpt>
      <trkpt lat="45.85762" lon="4.78563">
        <ele>509.64</ele>
        <time>2013-11-16T11:16:10Z</time>
      </trkpt>
      <trkpt lat="45.8577" lon="4.78573">
        <ele>510.6</ele>
        <time>2013-11-16T11:16:19Z</time>
      </trkpt>
      <trkpt lat="45.85778" lon="4.78587">
        <ele>511.56</ele>
        <time>2013-11-16T11:16:27Z</time>
      </trkpt>
      <trkpt lat="45.85778" lon="4.78587">
        <ele>511.08</ele>
        <time>2013-11-16T11:16:45Z</time>
      </trkpt>
      <trkpt lat="45.8578" lon="4.7859">
        <ele>511.08</ele>
        <time>2013-11-16T11:16:51Z</time>
      </trkpt>
      <trkpt lat="45.85784" lon="4.78593">
        <ele>510.6</ele>
        <time>2013-11-16T11:16:52Z</time>
      </trkpt>
      <trkpt lat="45.85789" lon="4.78597">
        <ele>510.12</ele>
        <time>2013-11-16T11:16:53Z</time>
      </trkpt>
      <trkpt lat="45.85793" lon="4.78602">
        <ele>509.64</ele>
        <time>2013-11-16T11:16:54Z</time>
      </trkpt>
      <trkpt lat="45.85795" lon="4.78606">
        <ele>510.12</ele>
        <time>2013-11-16T11:16:55Z</time>
      </trkpt>
      <trkpt lat="45.85795" lon="4.78609">
        <ele>510.6</ele>
        <time>2013-11-16T11:16:56Z</time>
      </trkpt>
      <trkpt lat="45.85796" lon="4.78612">
        <ele>511.08</ele>
        <time>2013-11-16T11:16:57Z</time>
      </trkpt>
      <trkpt lat="45.85797" lon="4.78614">
        <ele>511.56</ele>
        <time>2013-11-16T11:16:58Z</time>
      </trkpt>
      <trkpt lat="45.85799" lon="4.78617">
        <ele>511.56</ele>
        <time>2013-11-16T11:16:59Z</time>
      </trkpt>
      <trkpt lat="45.858" lon="4.7862">
        <ele>511.56</ele>
        <time>2013-11-16T11:17:00Z</time>
      </trkpt>
      <trkpt lat="45.85806" lon="4.78636">
        <ele>513.48</ele>
        <time>2013-11-16T11:17:07Z</time>
      </trkpt>
      <trkpt lat="45.85806" lon="4.78638">
        <ele>513.96</ele>
        <time>2013-11-16T11:17:08Z</time>
      </trkpt>
      <trkpt lat="45.85806" lon="4.7864">
        <ele>514.44</ele>
        <time>2013-11-16T11:17:09Z</time>
      </trkpt>
      <trkpt lat="45.85807" lon="4.78643">
        <ele>513.96</ele>
        <time>2013-11-16T11:17:10Z</time>
      </trkpt>
      <trkpt lat="45.85807" lon="4.78646">
        <ele>513.96</ele>
        <time>2013-11-16T11:17:11Z</time>
      </trkpt>
      <trkpt lat="45.85809" lon="4.78649">
        <ele>514.44</ele>
        <time>2013-11-16T11:17:12Z</time>
      </trkpt>
      <trkpt lat="45.85813" lon="4.78673">
        <ele>516.85</ele>
        <time>2013-11-16T11:17:22Z</time>
      </trkpt>
      <trkpt lat="45.85816" lon="4.78682">
        <ele>517.81</ele>
        <time>2013-11-16T11:17:27Z</time>
      </trkpt>
      <trkpt lat="45.85817" lon="4.78687">
        <ele>518.77</ele>
        <time>2013-11-16T11:17:35Z</time>
      </trkpt>
      <trkpt lat="45.85818" lon="4.78699">
        <ele>518.77</ele>
        <time>2013-11-16T11:17:45Z</time>
      </trkpt>
      <trkpt lat="45.85818" lon="4.78701">
        <ele>520.21</ele>
        <time>2013-11-16T11:17:47Z</time>
      </trkpt>
      <trkpt lat="45.85816" lon="4.78708">
        <ele>519.73</ele>
        <time>2013-11-16T11:17:58Z</time>
      </trkpt>
      <trkpt lat="45.85816" lon="4.78711">
        <ele>520.21</ele>
        <time>2013-11-16T11:18:13Z</time>
      </trkpt>
      <trkpt lat="45.85817" lon="4.78724">
        <ele>521.65</ele>
        <time>2013-11-16T11:18:24Z</time>
      </trkpt>
      <trkpt lat="45.85817" lon="4.78737">
        <ele>522.61</ele>
        <time>2013-11-16T11:18:36Z</time>
      </trkpt>
      <trkpt lat="45.85816" lon="4.78747">
        <ele>524.54</ele>
        <time>2013-11-16T11:18:46Z</time>
      </trkpt>
      <trkpt lat="45.85817" lon="4.78758">
        <ele>526.46</ele>
        <time>2013-11-16T11:18:56Z</time>
      </trkpt>
      <trkpt lat="45.85817" lon="4.78765">
        <ele>526.94</ele>
        <time>2013-11-16T11:19:05Z</time>
      </trkpt>
      <trkpt lat="45.85818" lon="4.78776">
        <ele>528.86</ele>
        <time>2013-11-16T11:19:16Z</time>
      </trkpt>
      <trkpt lat="45.85818" lon="4.78787">
        <ele>530.3</ele>
        <time>2013-11-16T11:19:27Z</time>
      </trkpt>
      <trkpt lat="45.85818" lon="4.78794">
        <ele>531.75</ele>
        <time>2013-11-16T11:19:36Z</time>
      </trkpt>
      <trkpt lat="45.85818" lon="4.78802">
        <ele>533.19</ele>
        <time>2013-11-16T11:19:45Z</time>
      </trkpt>
      <trkpt lat="45.85818" lon="4.78804">
        <ele>532.71</ele>
        <time>2013-11-16T11:19:52Z</time>
      </trkpt>
      <trkpt lat="45.85818" lon="4.78804">
        <ele>533.19</ele>
        <time>2013-11-16T11:20:03Z</time>
      </trkpt>
      <trkpt lat="45.85818" lon="4.78804">
        <ele>532.71</ele>
        <time>2013-11-16T11:20:20Z</time>
      </trkpt>
      <trkpt lat="45.85819" lon="4.78804">
        <ele>533.19</ele>
        <time>2013-11-16T11:20:29Z</time>
      </trkpt>
      <trkpt lat="45.85818" lon="4.78805">
        <ele>533.19</ele>
        <time>2013-11-16T11:20:36Z</time>
      </trkpt>
      <trkpt lat="45.85818" lon="4.78805">
        <ele>533.19</ele>
        <time>2013-11-16T11:20:53Z</time>
      </trkpt>
      <trkpt lat="45.85818" lon="4.78805">
        <ele>533.19</ele>
        <time>2013-11-16T11:21:06Z</time>
      </trkpt>
      <trkpt lat="45.85818" lon="4.78805">
        <ele>533.19</ele>
        <time>2013-11-16T11:21:25Z</time>
      </trkpt>
      <trkpt lat="45.85818" lon="4.78805">
        <ele>533.19</ele>
        <time>2013-11-16T11:21:45Z</time>
      </trkpt>
      <trkpt lat="45.85817" lon="4.78804">
        <ele>533.19</ele>
        <time>2013-11-16T11:22:08Z</time>
      </trkpt>
      <trkpt lat="45.85817" lon="4.78804">
        <ele>532.71</ele>
        <time>2013-11-16T11:22:25Z</time>
      </trkpt>
      <trkpt lat="45.85817" lon="4.78804">
        <ele>532.71</ele>
        <time>2013-11-16T11:22:53Z</time>
      </trkpt>
      <trkpt lat="45.85817" lon="4.78804">
        <ele>532.23</ele>
        <time>2013-11-16T11:23:22Z</time>
      </trkpt>
      <trkpt lat="45.85817" lon="4.78804">
        <ele>532.71</ele>
        <time>2013-11-16T11:23:44Z</time>
      </trkpt>
      <trkpt lat="45.85817" lon="4.78805">
        <ele>532.71</ele>
        <time>2013-11-16T11:23:54Z</time>
      </trkpt>
      <trkpt lat="45.85811" lon="4.78801">
        <ele>532.71</ele>
        <time>2013-11-16T11:23:59Z</time>
      </trkpt>
      <trkpt lat="45.8581" lon="4.78799">
        <ele>532.71</ele>
        <time>2013-11-16T11:24:00Z</time>
      </trkpt>
      <trkpt lat="45.85808" lon="4.78798">
        <ele>533.19</ele>
        <time>2013-11-16T11:24:01Z</time>
      </trkpt>
      <trkpt lat="45.85807" lon="4.78798">
        <ele>532.71</ele>
        <time>2013-11-16T11:24:02Z</time>
      </trkpt>
      <trkpt lat="45.85805" lon="4.78797">
        <ele>533.19</ele>
        <time>2013-11-16T11:24:03Z</time>
      </trkpt>
      <trkpt lat="45.85786" lon="4.78789">
        <ele>534.15</ele>
        <time>2013-11-16T11:24:15Z</time>
      </trkpt>
      <trkpt lat="45.8577" lon="4.7878">
        <ele>534.63</ele>
        <time>2013-11-16T11:24:25Z</time>
      </trkpt>
      <trkpt lat="45.85756" lon="4.78781">
        <ele>535.11</ele>
        <time>2013-11-16T11:24:34Z</time>
      </trkpt>
      <trkpt lat="45.85753" lon="4.78776">
        <ele>535.59</ele>
        <time>2013-11-16T11:24:41Z</time>
      </trkpt>
      <trkpt lat="45.85749" lon="4.78771">
        <ele>536.55</ele>
        <time>2013-11-16T11:24:51Z</time>
      </trkpt>
      <trkpt lat="45.85746" lon="4.78771">
        <ele>537.03</ele>
        <time>2013-11-16T11:25:04Z</time>
      </trkpt>
      <trkpt lat="45.85744" lon="4.7877">
        <ele>537.51</ele>
        <time>2013-11-16T11:25:07Z</time>
      </trkpt>
      <trkpt lat="45.8574" lon="4.78766">
        <ele>537.99</ele>
        <time>2013-11-16T11:25:17Z</time>
      </trkpt>
      <trkpt lat="45.85734" lon="4.78762">
        <ele>538.48</ele>
        <time>2013-11-16T11:25:27Z</time>
      </trkpt>
      <trkpt lat="45.8573" lon="4.78754">
        <ele>539.44</ele>
        <time>2013-11-16T11:25:37Z</time>
      </trkpt>
      <trkpt lat="45.85726" lon="4.7875">
        <ele>539.44</ele>
        <time>2013-11-16T11:25:48Z</time>
      </trkpt>
      <trkpt lat="45.85726" lon="4.7875">
        <ele>539.44</ele>
        <time>2013-11-16T11:26:02Z</time>
      </trkpt>
      <trkpt lat="45.85723" lon="4.78747">
        <ele>539.92</ele>
        <time>2013-11-16T11:26:11Z</time>
      </trkpt>
      <trkpt lat="45.85714" lon="4.78736">
        <ele>540.88</ele>
        <time>2013-11-16T11:26:19Z</time>
      </trkpt>
      <trkpt lat="45.85699" lon="4.78718">
        <ele>541.84</ele>
        <time>2013-11-16T11:26:30Z</time>
      </trkpt>
      <trkpt lat="45.85686" lon="4.78697">
        <ele>543.28</ele>
        <time>2013-11-16T11:26:40Z</time>
      </trkpt>
      <trkpt lat="45.85671" lon="4.78678">
        <ele>543.76</ele>
        <time>2013-11-16T11:26:50Z</time>
      </trkpt>
      <trkpt lat="45.85669" lon="4.78676">
        <ele>544.24</ele>
        <time>2013-11-16T11:26:51Z</time>
      </trkpt>
      <trkpt lat="45.85667" lon="4.78674">
        <ele>544.72</ele>
        <time>2013-11-16T11:26:52Z</time>
      </trkpt>
      <trkpt lat="45.85652" lon="4.78668">
        <ele>544.24</ele>
        <time>2013-11-16T11:27:00Z</time>
      </trkpt>
      <trkpt lat="45.85631" lon="4.78652">
        <ele>544.72</ele>
        <time>2013-11-16T11:27:10Z</time>
      </trkpt>
      <trkpt lat="45.85625" lon="4.78643">
        <ele>544.72</ele>
        <time>2013-11-16T11:27:15Z</time>
      </trkpt>
      <trkpt lat="45.85623" lon="4.78641">
        <ele>544.72</ele>
        <time>2013-11-16T11:27:16Z</time>
      </trkpt>
      <trkpt lat="45.85622" lon="4.78639">
        <ele>544.72</ele>
        <time>2013-11-16T11:27:17Z</time>
      </trkpt>
      <trkpt lat="45.85619" lon="4.78638">
        <ele>545.2</ele>
        <time>2013-11-16T11:27:18Z</time>
      </trkpt>
      <trkpt lat="45.85617" lon="4.78637">
        <ele>544.72</ele>
        <time>2013-11-16T11:27:19Z</time>
      </trkpt>
      <trkpt lat="45.85615" lon="4.78636">
        <ele>545.2</ele>
        <time>2013-11-16T11:27:20Z</time>
      </trkpt>
      <trkpt lat="45.85614" lon="4.78635">
        <ele>545.2</ele>
        <time>2013-11-16T11:27:21Z</time>
      </trkpt>
      <trkpt lat="45.85598" lon="4.78627">
        <ele>544.72</ele>
        <time>2013-11-16T11:27:28Z</time>
      </trkpt>
      <trkpt lat="45.85576" lon="4.78611">
        <ele>545.2</ele>
        <time>2013-11-16T11:27:37Z</time>
      </trkpt>
      <trkpt lat="45.85549" lon="4.78597">
        <ele>545.69</ele>
        <time>2013-11-16T11:27:47Z</time>
      </trkpt>
      <trkpt lat="45.85531" lon="4.7859">
        <ele>545.69</ele>
        <time>2013-11-16T11:27:53Z</time>
      </trkpt>
      <trkpt lat="45.85529" lon="4.78588">
        <ele>545.69</ele>
        <time>2013-11-16T11:27:54Z</time>
      </trkpt>
      <trkpt lat="45.85527" lon="4.78586">
        <ele>545.69</ele>
        <time>2013-11-16T11:27:55Z</time>
      </trkpt>
      <trkpt lat="45.85504" lon="4.78561">
        <ele>547.13</ele>
        <time>2013-11-16T11:28:08Z</time>
      </trkpt>
      <trkpt lat="45.85485" lon="4.78539">
        <ele>548.09</ele>
        <time>2013-11-16T11:28:18Z</time>
      </trkpt>
      <trkpt lat="45.85462" lon="4.78511">
        <ele>549.53</ele>
        <time>2013-11-16T11:28:31Z</time>
      </trkpt>
      <trkpt lat="45.85442" lon="4.78487">
        <ele>550.97</ele>
        <time>2013-11-16T11:28:42Z</time>
      </trkpt>
      <trkpt lat="45.85421" lon="4.78462">
        <ele>552.41</ele>
        <time>2013-11-16T11:28:54Z</time>
      </trkpt>
      <trkpt lat="45.85401" lon="4.78441">
        <ele>552.9</ele>
        <time>2013-11-16T11:29:05Z</time>
      </trkpt>
      <trkpt lat="45.85385" lon="4.7842">
        <ele>553.86</ele>
        <time>2013-11-16T11:29:15Z</time>
      </trkpt>
      <trkpt lat="45.85368" lon="4.78397">
        <ele>554.34</ele>
        <time>2013-11-16T11:29:25Z</time>
      </trkpt>
      <trkpt lat="45.85351" lon="4.78371">
        <ele>554.82</ele>
        <time>2013-11-16T11:29:36Z</time>
      </trkpt>
      <trkpt lat="45.85349" lon="4.78369">
        <ele>554.82</ele>
        <time>2013-11-16T11:29:37Z</time>
      </trkpt>
      <trkpt lat="45.85348" lon="4.78367">
        <ele>554.82</ele>
        <time>2013-11-16T11:29:38Z</time>
      </trkpt>
      <trkpt lat="45.85346" lon="4.78364">
        <ele>554.82</ele>
        <time>2013-11-16T11:29:39Z</time>
      </trkpt>
      <trkpt lat="45.85344" lon="4.78362">
        <ele>554.82</ele>
        <time>2013-11-16T11:29:40Z</time>
      </trkpt>
      <trkpt lat="45.85343" lon="4.78359">
        <ele>555.3</ele>
        <time>2013-11-16T11:29:41Z</time>
      </trkpt>
      <trkpt lat="45.85341" lon="4.78357">
        <ele>554.82</ele>
        <time>2013-11-16T11:29:42Z</time>
      </trkpt>
      <trkpt lat="45.85329" lon="4.78351">
        <ele>555.78</ele>
        <time>2013-11-16T11:29:48Z</time>
      </trkpt>
      <trkpt lat="45.85319" lon="4.78338">
        <ele>556.26</ele>
        <time>2013-11-16T11:29:55Z</time>
      </trkpt>
      <trkpt lat="45.85305" lon="4.78317">
        <ele>555.78</ele>
        <time>2013-11-16T11:30:04Z</time>
      </trkpt>
      <trkpt lat="45.8529" lon="4.78296">
        <ele>555.78</ele>
        <time>2013-11-16T11:30:14Z</time>
      </trkpt>
      <trkpt lat="45.8528" lon="4.78278">
        <ele>556.26</ele>
        <time>2013-11-16T11:30:23Z</time>
      </trkpt>
      <trkpt lat="45.8528" lon="4.78276">
        <ele>557.22</ele>
        <time>2013-11-16T11:30:24Z</time>
      </trkpt>
      <trkpt lat="45.85278" lon="4.78273">
        <ele>557.7</ele>
        <time>2013-11-16T11:30:25Z</time>
      </trkpt>
      <trkpt lat="45.85266" lon="4.78253">
        <ele>558.18</ele>
        <time>2013-11-16T11:30:35Z</time>
      </trkpt>
      <trkpt lat="45.85252" lon="4.78233">
        <ele>558.18</ele>
        <time>2013-11-16T11:30:44Z</time>
      </trkpt>
      <trkpt lat="45.85241" lon="4.78214">
        <ele>557.22</ele>
        <time>2013-11-16T11:30:51Z</time>
      </trkpt>
      <trkpt lat="45.85239" lon="4.78212">
        <ele>557.7</ele>
        <time>2013-11-16T11:30:52Z</time>
      </trkpt>
      <trkpt lat="45.85228" lon="4.78196">
        <ele>558.18</ele>
        <time>2013-11-16T11:30:59Z</time>
      </trkpt>
      <trkpt lat="45.85218" lon="4.78183">
        <ele>558.18</ele>
        <time>2013-11-16T11:31:03Z</time>
      </trkpt>
      <trkpt lat="45.85204" lon="4.78159">
        <ele>559.62</ele>
        <time>2013-11-16T11:31:12Z</time>
      </trkpt>
      <trkpt lat="45.85186" lon="4.78128">
        <ele>560.11</ele>
        <time>2013-11-16T11:31:23Z</time>
      </trkpt>
      <trkpt lat="45.85179" lon="4.78113">
        <ele>560.59</ele>
        <time>2013-11-16T11:31:29Z</time>
      </trkpt>
      <trkpt lat="45.85178" lon="4.78111">
        <ele>560.11</ele>
        <time>2013-11-16T11:31:30Z</time>
      </trkpt>
      <trkpt lat="45.85177" lon="4.78109">
        <ele>560.59</ele>
        <time>2013-11-16T11:31:31Z</time>
      </trkpt>
      <trkpt lat="45.85172" lon="4.781">
        <ele>561.55</ele>
        <time>2013-11-16T11:31:35Z</time>
      </trkpt>
      <trkpt lat="45.85171" lon="4.78097">
        <ele>561.55</ele>
        <time>2013-11-16T11:31:36Z</time>
      </trkpt>
      <trkpt lat="45.85162" lon="4.78081">
        <ele>562.03</ele>
        <time>2013-11-16T11:31:42Z</time>
      </trkpt>
      <trkpt lat="45.8516" lon="4.78078">
        <ele>562.03</ele>
        <time>2013-11-16T11:31:43Z</time>
      </trkpt>
      <trkpt lat="45.85159" lon="4.78075">
        <ele>562.03</ele>
        <time>2013-11-16T11:31:44Z</time>
      </trkpt>
      <trkpt lat="45.85151" lon="4.78057">
        <ele>564.43</ele>
        <time>2013-11-16T11:31:52Z</time>
      </trkpt>
      <trkpt lat="45.85151" lon="4.78055">
        <ele>564.43</ele>
        <time>2013-11-16T11:31:53Z</time>
      </trkpt>
      <trkpt lat="45.8515" lon="4.78052">
        <ele>564.91</ele>
        <time>2013-11-16T11:31:54Z</time>
      </trkpt>
      <trkpt lat="45.85143" lon="4.78039">
        <ele>565.87</ele>
        <time>2013-11-16T11:32:00Z</time>
      </trkpt>
      <trkpt lat="45.85142" lon="4.78037">
        <ele>565.87</ele>
        <time>2013-11-16T11:32:01Z</time>
      </trkpt>
      <trkpt lat="45.8514" lon="4.78031">
        <ele>565.87</ele>
        <time>2013-11-16T11:32:04Z</time>
      </trkpt>
      <trkpt lat="45.8514" lon="4.78028">
        <ele>565.87</ele>
        <time>2013-11-16T11:32:05Z</time>
      </trkpt>
      <trkpt lat="45.85139" lon="4.78026">
        <ele>565.87</ele>
        <time>2013-11-16T11:32:06Z</time>
      </trkpt>
      <trkpt lat="45.85139" lon="4.78023">
        <ele>565.87</ele>
        <time>2013-11-16T11:32:07Z</time>
      </trkpt>
      <trkpt lat="45.85138" lon="4.78021">
        <ele>565.87</ele>
        <time>2013-11-16T11:32:08Z</time>
      </trkpt>
      <trkpt lat="45.85137" lon="4.78019">
        <ele>566.35</ele>
        <time>2013-11-16T11:32:09Z</time>
      </trkpt>
      <trkpt lat="45.85136" lon="4.78016">
        <ele>565.39</ele>
        <time>2013-11-16T11:32:10Z</time>
      </trkpt>
      <trkpt lat="45.85136" lon="4.78013">
        <ele>565.87</ele>
        <time>2013-11-16T11:32:11Z</time>
      </trkpt>
      <trkpt lat="45.85135" lon="4.7801">
        <ele>565.87</ele>
        <time>2013-11-16T11:32:12Z</time>
      </trkpt>
      <trkpt lat="45.85135" lon="4.78007">
        <ele>565.39</ele>
        <time>2013-11-16T11:32:13Z</time>
      </trkpt>
      <trkpt lat="45.85133" lon="4.78002">
        <ele>565.87</ele>
        <time>2013-11-16T11:32:15Z</time>
      </trkpt>
      <trkpt lat="45.85133" lon="4.78">
        <ele>566.35</ele>
        <time>2013-11-16T11:32:16Z</time>
      </trkpt>
      <trkpt lat="45.85132" lon="4.77997">
        <ele>566.35</ele>
        <time>2013-11-16T11:32:17Z</time>
      </trkpt>
      <trkpt lat="45.85131" lon="4.77995">
        <ele>566.35</ele>
        <time>2013-11-16T11:32:18Z</time>
      </trkpt>
      <trkpt lat="45.8513" lon="4.77992">
        <ele>566.35</ele>
        <time>2013-11-16T11:32:19Z</time>
      </trkpt>
      <trkpt lat="45.8513" lon="4.7799">
        <ele>566.35</ele>
        <time>2013-11-16T11:32:20Z</time>
      </trkpt>
      <trkpt lat="45.8513" lon="4.77988">
        <ele>566.83</ele>
        <time>2013-11-16T11:32:21Z</time>
      </trkpt>
      <trkpt lat="45.8513" lon="4.77985">
        <ele>566.35</ele>
        <time>2013-11-16T11:32:22Z</time>
      </trkpt>
      <trkpt lat="45.85128" lon="4.77975">
        <ele>566.83</ele>
        <time>2013-11-16T11:32:26Z</time>
      </trkpt>
      <trkpt lat="45.85127" lon="4.77973">
        <ele>567.32</ele>
        <time>2013-11-16T11:32:27Z</time>
      </trkpt>
      <trkpt lat="45.85126" lon="4.7797">
        <ele>567.32</ele>
        <time>2013-11-16T11:32:28Z</time>
      </trkpt>
      <trkpt lat="45.85126" lon="4.77968">
        <ele>567.32</ele>
        <time>2013-11-16T11:32:29Z</time>
      </trkpt>
      <trkpt lat="45.85126" lon="4.77966">
        <ele>566.83</ele>
        <time>2013-11-16T11:32:30Z</time>
      </trkpt>
      <trkpt lat="45.85125" lon="4.77963">
        <ele>566.83</ele>
        <time>2013-11-16T11:32:31Z</time>
      </trkpt>
      <trkpt lat="45.85125" lon="4.7796">
        <ele>567.8</ele>
        <time>2013-11-16T11:32:32Z</time>
      </trkpt>
      <trkpt lat="45.85124" lon="4.77958">
        <ele>566.83</ele>
        <time>2013-11-16T11:32:33Z</time>
      </trkpt>
      <trkpt lat="45.85123" lon="4.77956">
        <ele>567.32</ele>
        <time>2013-11-16T11:32:34Z</time>
      </trkpt>
      <trkpt lat="45.85123" lon="4.77954">
        <ele>567.32</ele>
        <time>2013-11-16T11:32:35Z</time>
      </trkpt>
      <trkpt lat="45.85123" lon="4.77951">
        <ele>567.32</ele>
        <time>2013-11-16T11:32:36Z</time>
      </trkpt>
      <trkpt lat="45.85122" lon="4.77949">
        <ele>567.8</ele>
        <time>2013-11-16T11:32:37Z</time>
      </trkpt>
      <trkpt lat="45.85121" lon="4.77944">
        <ele>568.76</ele>
        <time>2013-11-16T11:32:40Z</time>
      </trkpt>
      <trkpt lat="45.8512" lon="4.77943">
        <ele>568.76</ele>
        <time>2013-11-16T11:32:41Z</time>
      </trkpt>
      <trkpt lat="45.85119" lon="4.77941">
        <ele>568.76</ele>
        <time>2013-11-16T11:32:42Z</time>
      </trkpt>
      <trkpt lat="45.85119" lon="4.77939">
        <ele>568.76</ele>
        <time>2013-11-16T11:32:43Z</time>
      </trkpt>
      <trkpt lat="45.85118" lon="4.77938">
        <ele>569.24</ele>
        <time>2013-11-16T11:32:44Z</time>
      </trkpt>
      <trkpt lat="45.85111" lon="4.77925">
        <ele>570.68</ele>
        <time>2013-11-16T11:32:52Z</time>
      </trkpt>
      <trkpt lat="45.85105" lon="4.7791">
        <ele>572.12</ele>
        <time>2013-11-16T11:33:02Z</time>
      </trkpt>
      <trkpt lat="45.85101" lon="4.77899">
        <ele>571.64</ele>
        <time>2013-11-16T11:33:07Z</time>
      </trkpt>
      <trkpt lat="45.851" lon="4.77896">
        <ele>572.12</ele>
        <time>2013-11-16T11:33:08Z</time>
      </trkpt>
      <trkpt lat="45.85099" lon="4.77894">
        <ele>572.12</ele>
        <time>2013-11-16T11:33:09Z</time>
      </trkpt>
      <trkpt lat="45.85098" lon="4.77888">
        <ele>571.64</ele>
        <time>2013-11-16T11:33:11Z</time>
      </trkpt>
      <trkpt lat="45.85098" lon="4.77886">
        <ele>572.12</ele>
        <time>2013-11-16T11:33:12Z</time>
      </trkpt>
      <trkpt lat="45.85099" lon="4.77883">
        <ele>571.16</ele>
        <time>2013-11-16T11:33:13Z</time>
      </trkpt>
      <trkpt lat="45.85099" lon="4.77881">
        <ele>571.64</ele>
        <time>2013-11-16T11:33:14Z</time>
      </trkpt>
      <trkpt lat="45.851" lon="4.77879">
        <ele>571.64</ele>
        <time>2013-11-16T11:33:15Z</time>
      </trkpt>
      <trkpt lat="45.85101" lon="4.77877">
        <ele>571.64</ele>
        <time>2013-11-16T11:33:16Z</time>
      </trkpt>
      <trkpt lat="45.85102" lon="4.77876">
        <ele>571.64</ele>
        <time>2013-11-16T11:33:17Z</time>
      </trkpt>
      <trkpt lat="45.85103" lon="4.77872">
        <ele>571.16</ele>
        <time>2013-11-16T11:33:19Z</time>
      </trkpt>
      <trkpt lat="45.85103" lon="4.77869">
        <ele>571.16</ele>
        <time>2013-11-16T11:33:20Z</time>
      </trkpt>
      <trkpt lat="45.85103" lon="4.77866">
        <ele>570.68</ele>
        <time>2013-11-16T11:33:21Z</time>
      </trkpt>
      <trkpt lat="45.85103" lon="4.77863">
        <ele>570.2</ele>
        <time>2013-11-16T11:33:22Z</time>
      </trkpt>
      <trkpt lat="45.85103" lon="4.77861">
        <ele>569.72</ele>
        <time>2013-11-16T11:33:23Z</time>
      </trkpt>
      <trkpt lat="45.85104" lon="4.77858">
        <ele>569.24</ele>
        <time>2013-11-16T11:33:24Z</time>
      </trkpt>
      <trkpt lat="45.85105" lon="4.77854">
        <ele>568.76</ele>
        <time>2013-11-16T11:33:25Z</time>
      </trkpt>
      <trkpt lat="45.85106" lon="4.77851">
        <ele>569.24</ele>
        <time>2013-11-16T11:33:26Z</time>
      </trkpt>
      <trkpt lat="45.85106" lon="4.77847">
        <ele>568.76</ele>
        <time>2013-11-16T11:33:27Z</time>
      </trkpt>
      <trkpt lat="45.85106" lon="4.77843">
        <ele>568.76</ele>
        <time>2013-11-16T11:33:28Z</time>
      </trkpt>
      <trkpt lat="45.85106" lon="4.77839">
        <ele>568.76</ele>
        <time>2013-11-16T11:33:29Z</time>
      </trkpt>
      <trkpt lat="45.85107" lon="4.77823">
        <ele>567.8</ele>
        <time>2013-11-16T11:33:33Z</time>
      </trkpt>
      <trkpt lat="45.85107" lon="4.77817">
        <ele>566.83</ele>
        <time>2013-11-16T11:33:34Z</time>
      </trkpt>
      <trkpt lat="45.85107" lon="4.77806">
        <ele>565.87</ele>
        <time>2013-11-16T11:33:36Z</time>
      </trkpt>
      <trkpt lat="45.85107" lon="4.778">
        <ele>564.91</ele>
        <time>2013-11-16T11:33:37Z</time>
      </trkpt>
      <trkpt lat="45.85106" lon="4.77793">
        <ele>564.91</ele>
        <time>2013-11-16T11:33:38Z</time>
      </trkpt>
      <trkpt lat="45.85105" lon="4.77783">
        <ele>564.43</ele>
        <time>2013-11-16T11:33:40Z</time>
      </trkpt>
      <trkpt lat="45.85101" lon="4.7777">
        <ele>562.99</ele>
        <time>2013-11-16T11:33:42Z</time>
      </trkpt>
      <trkpt lat="45.85098" lon="4.77755">
        <ele>561.07</ele>
        <time>2013-11-16T11:33:44Z</time>
      </trkpt>
      <trkpt lat="45.85093" lon="4.77738">
        <ele>559.62</ele>
        <time>2013-11-16T11:33:46Z</time>
      </trkpt>
      <trkpt lat="45.8509" lon="4.7773">
        <ele>559.14</ele>
        <time>2013-11-16T11:33:47Z</time>
      </trkpt>
      <trkpt lat="45.85087" lon="4.77723">
        <ele>558.66</ele>
        <time>2013-11-16T11:33:48Z</time>
      </trkpt>
      <trkpt lat="45.85084" lon="4.77714">
        <ele>558.66</ele>
        <time>2013-11-16T11:33:49Z</time>
      </trkpt>
      <trkpt lat="45.85074" lon="4.77691">
        <ele>557.22</ele>
        <time>2013-11-16T11:33:52Z</time>
      </trkpt>
      <trkpt lat="45.85055" lon="4.77656">
        <ele>554.82</ele>
        <time>2013-11-16T11:33:59Z</time>
      </trkpt>
      <trkpt lat="45.85051" lon="4.77652">
        <ele>554.82</ele>
        <time>2013-11-16T11:34:00Z</time>
      </trkpt>
      <trkpt lat="45.85029" lon="4.7764">
        <ele>554.82</ele>
        <time>2013-11-16T11:34:08Z</time>
      </trkpt>
      <trkpt lat="45.85004" lon="4.7763">
        <ele>555.3</ele>
        <time>2013-11-16T11:34:18Z</time>
      </trkpt>
      <trkpt lat="45.8498" lon="4.77624">
        <ele>554.82</ele>
        <time>2013-11-16T11:34:26Z</time>
      </trkpt>
      <trkpt lat="45.84955" lon="4.77621">
        <ele>554.82</ele>
        <time>2013-11-16T11:34:35Z</time>
      </trkpt>
      <trkpt lat="45.84926" lon="4.77617">
        <ele>554.34</ele>
        <time>2013-11-16T11:34:45Z</time>
      </trkpt>
      <trkpt lat="45.84894" lon="4.77616">
        <ele>553.38</ele>
        <time>2013-11-16T11:34:54Z</time>
      </trkpt>
      <trkpt lat="45.84862" lon="4.77618">
        <ele>551.45</ele>
        <time>2013-11-16T11:35:02Z</time>
      </trkpt>
      <trkpt lat="45.84842" lon="4.77621">
        <ele>550.49</ele>
        <time>2013-11-16T11:35:06Z</time>
      </trkpt>
      <trkpt lat="45.8482" lon="4.77625">
        <ele>549.53</ele>
        <time>2013-11-16T11:35:10Z</time>
      </trkpt>
      <trkpt lat="45.84815" lon="4.77626">
        <ele>549.53</ele>
        <time>2013-11-16T11:35:11Z</time>
      </trkpt>
      <trkpt lat="45.84779" lon="4.77623">
        <ele>549.05</ele>
        <time>2013-11-16T11:35:19Z</time>
      </trkpt>
      <trkpt lat="45.84752" lon="4.77615">
        <ele>548.57</ele>
        <time>2013-11-16T11:35:27Z</time>
      </trkpt>
      <trkpt lat="45.84729" lon="4.77604">
        <ele>549.05</ele>
        <time>2013-11-16T11:35:34Z</time>
      </trkpt>
      <trkpt lat="45.84709" lon="4.77584">
        <ele>549.53</ele>
        <time>2013-11-16T11:35:42Z</time>
      </trkpt>
      <trkpt lat="45.84697" lon="4.77571">
        <ele>550.49</ele>
        <time>2013-11-16T11:35:50Z</time>
      </trkpt>
      <trkpt lat="45.84696" lon="4.77567">
        <ele>549.53</ele>
        <time>2013-11-16T11:35:58Z</time>
      </trkpt>
      <trkpt lat="45.84696" lon="4.77566">
        <ele>549.53</ele>
        <time>2013-11-16T11:36:08Z</time>
      </trkpt>
      <trkpt lat="45.84696" lon="4.77567">
        <ele>549.53</ele>
        <time>2013-11-16T11:36:29Z</time>
      </trkpt>
      <trkpt lat="45.84697" lon="4.77565">
        <ele>549.53</ele>
        <time>2013-11-16T11:36:39Z</time>
      </trkpt>
      <trkpt lat="45.84697" lon="4.77565">
        <ele>549.53</ele>
        <time>2013-11-16T11:36:51Z</time>
      </trkpt>
      <trkpt lat="45.84697" lon="4.77565">
        <ele>549.53</ele>
        <time>2013-11-16T11:37:20Z</time>
      </trkpt>
      <trkpt lat="45.84697" lon="4.77565">
        <ele>549.53</ele>
        <time>2013-11-16T11:37:51Z</time>
      </trkpt>
      <trkpt lat="45.84697" lon="4.77566">
        <ele>549.53</ele>
        <time>2013-11-16T11:38:23Z</time>
      </trkpt>
      <trkpt lat="45.84697" lon="4.77565">
        <ele>549.53</ele>
        <time>2013-11-16T11:38:47Z</time>
      </trkpt>
      <trkpt lat="45.84697" lon="4.77565">
        <ele>549.53</ele>
        <time>2013-11-16T11:39:14Z</time>
      </trkpt>
      <trkpt lat="45.84697" lon="4.77565">
        <ele>549.53</ele>
        <time>2013-11-16T11:39:46Z</time>
      </trkpt>
      <trkpt lat="45.84697" lon="4.77565">
        <ele>549.53</ele>
        <time>2013-11-16T11:40:17Z</time>
      </trkpt>
      <trkpt lat="45.84696" lon="4.77565">
        <ele>549.53</ele>
        <time>2013-11-16T11:40:49Z</time>
      </trkpt>
      <trkpt lat="45.84696" lon="4.77565">
        <ele>549.53</ele>
        <time>2013-11-16T11:41:20Z</time>
      </trkpt>
      <trkpt lat="45.84697" lon="4.77565">
        <ele>549.53</ele>
        <time>2013-11-16T11:41:51Z</time>
      </trkpt>
      <trkpt lat="45.84697" lon="4.77566">
        <ele>549.53</ele>
        <time>2013-11-16T11:42:27Z</time>
      </trkpt>
      <trkpt lat="45.84697" lon="4.77567">
        <ele>549.05</ele>
        <time>2013-11-16T11:42:58Z</time>
      </trkpt>
      <trkpt lat="45.84697" lon="4.77566">
        <ele>549.05</ele>
        <time>2013-11-16T11:43:25Z</time>
      </trkpt>
      <trkpt lat="45.84697" lon="4.77566">
        <ele>549.53</ele>
        <time>2013-11-16T11:44:00Z</time>
      </trkpt>
      <trkpt lat="45.84696" lon="4.77567">
        <ele>549.53</ele>
        <time>2013-11-16T11:44:12Z</time>
      </trkpt>
      <trkpt lat="45.84695" lon="4.77568">
        <ele>549.53</ele>
        <time>2013-11-16T11:44:23Z</time>
      </trkpt>
      <trkpt lat="45.84693" lon="4.77568">
        <ele>549.53</ele>
        <time>2013-11-16T11:44:30Z</time>
      </trkpt>
      <trkpt lat="45.84684" lon="4.77569">
        <ele>550.01</ele>
        <time>2013-11-16T11:44:36Z</time>
      </trkpt>
      <trkpt lat="45.84665" lon="4.77561">
        <ele>549.05</ele>
        <time>2013-11-16T11:44:45Z</time>
      </trkpt>
      <trkpt lat="45.84661" lon="4.77561">
        <ele>549.05</ele>
        <time>2013-11-16T11:44:46Z</time>
      </trkpt>
      <trkpt lat="45.84617" lon="4.77568">
        <ele>546.65</ele>
        <time>2013-11-16T11:44:54Z</time>
      </trkpt>
      <trkpt lat="45.84578" lon="4.77584">
        <ele>543.28</ele>
        <time>2013-11-16T11:44:59Z</time>
      </trkpt>
      <trkpt lat="45.84548" lon="4.77598">
        <ele>540.88</ele>
        <time>2013-11-16T11:45:03Z</time>
      </trkpt>
      <trkpt lat="45.84542" lon="4.77603">
        <ele>539.92</ele>
        <time>2013-11-16T11:45:04Z</time>
      </trkpt>
      <trkpt lat="45.84533" lon="4.77612">
        <ele>538.48</ele>
        <time>2013-11-16T11:45:06Z</time>
      </trkpt>
      <trkpt lat="45.84528" lon="4.77614">
        <ele>538.48</ele>
        <time>2013-11-16T11:45:07Z</time>
      </trkpt>
      <trkpt lat="45.84525" lon="4.77616">
        <ele>538.48</ele>
        <time>2013-11-16T11:45:08Z</time>
      </trkpt>
      <trkpt lat="45.84516" lon="4.7762">
        <ele>537.51</ele>
        <time>2013-11-16T11:45:10Z</time>
      </trkpt>
      <trkpt lat="45.84512" lon="4.77623">
        <ele>536.55</ele>
        <time>2013-11-16T11:45:11Z</time>
      </trkpt>
      <trkpt lat="45.84494" lon="4.77634">
        <ele>533.19</ele>
        <time>2013-11-16T11:45:14Z</time>
      </trkpt>
      <trkpt lat="45.84488" lon="4.77638">
        <ele>531.75</ele>
        <time>2013-11-16T11:45:15Z</time>
      </trkpt>
      <trkpt lat="45.84471" lon="4.7765">
        <ele>528.38</ele>
        <time>2013-11-16T11:45:18Z</time>
      </trkpt>
      <trkpt lat="45.8446" lon="4.77656">
        <ele>526.46</ele>
        <time>2013-11-16T11:45:20Z</time>
      </trkpt>
      <trkpt lat="45.84455" lon="4.7766">
        <ele>525.02</ele>
        <time>2013-11-16T11:45:21Z</time>
      </trkpt>
      <trkpt lat="45.84449" lon="4.77662">
        <ele>524.06</ele>
        <time>2013-11-16T11:45:22Z</time>
      </trkpt>
      <trkpt lat="45.84433" lon="4.77666">
        <ele>521.65</ele>
        <time>2013-11-16T11:45:25Z</time>
      </trkpt>
      <trkpt lat="45.84429" lon="4.77669">
        <ele>521.65</ele>
        <time>2013-11-16T11:45:26Z</time>
      </trkpt>
      <trkpt lat="45.84425" lon="4.77673">
        <ele>520.69</ele>
        <time>2013-11-16T11:45:27Z</time>
      </trkpt>
      <trkpt lat="45.84413" lon="4.77679">
        <ele>518.77</ele>
        <time>2013-11-16T11:45:29Z</time>
      </trkpt>
      <trkpt lat="45.84386" lon="4.7769">
        <ele>513.96</ele>
        <time>2013-11-16T11:45:33Z</time>
      </trkpt>
      <trkpt lat="45.84368" lon="4.77696">
        <ele>511.08</ele>
        <time>2013-11-16T11:45:36Z</time>
      </trkpt>
      <trkpt lat="45.84352" lon="4.77705">
        <ele>508.19</ele>
        <time>2013-11-16T11:45:40Z</time>
      </trkpt>
      <trkpt lat="45.84346" lon="4.77712">
        <ele>507.71</ele>
        <time>2013-11-16T11:45:42Z</time>
      </trkpt>
      <trkpt lat="45.84341" lon="4.77714">
        <ele>506.75</ele>
        <time>2013-11-16T11:45:43Z</time>
      </trkpt>
      <trkpt lat="45.84336" lon="4.77716">
        <ele>506.27</ele>
        <time>2013-11-16T11:45:44Z</time>
      </trkpt>
      <trkpt lat="45.84313" lon="4.77723">
        <ele>502.91</ele>
        <time>2013-11-16T11:45:48Z</time>
      </trkpt>
      <trkpt lat="45.84299" lon="4.7773">
        <ele>499.54</ele>
        <time>2013-11-16T11:45:52Z</time>
      </trkpt>
      <trkpt lat="45.84295" lon="4.77731">
        <ele>498.58</ele>
        <time>2013-11-16T11:45:53Z</time>
      </trkpt>
      <trkpt lat="45.84292" lon="4.77731">
        <ele>498.1</ele>
        <time>2013-11-16T11:45:54Z</time>
      </trkpt>
      <trkpt lat="45.8429" lon="4.7773">
        <ele>498.1</ele>
        <time>2013-11-16T11:45:55Z</time>
      </trkpt>
      <trkpt lat="45.84287" lon="4.77731">
        <ele>497.62</ele>
        <time>2013-11-16T11:46:01Z</time>
      </trkpt>
      <trkpt lat="45.84283" lon="4.77733">
        <ele>497.14</ele>
        <time>2013-11-16T11:46:16Z</time>
      </trkpt>
      <trkpt lat="45.84275" lon="4.77735">
        <ele>496.18</ele>
        <time>2013-11-16T11:46:18Z</time>
      </trkpt>
      <trkpt lat="45.84261" lon="4.77735">
        <ele>495.22</ele>
        <time>2013-11-16T11:46:21Z</time>
      </trkpt>
      <trkpt lat="45.84257" lon="4.77736">
        <ele>494.26</ele>
        <time>2013-11-16T11:46:22Z</time>
      </trkpt>
      <trkpt lat="45.84253" lon="4.77737">
        <ele>494.26</ele>
        <time>2013-11-16T11:46:23Z</time>
      </trkpt>
      <trkpt lat="45.84249" lon="4.7774">
        <ele>492.81</ele>
        <time>2013-11-16T11:46:24Z</time>
      </trkpt>
      <trkpt lat="45.84246" lon="4.77743">
        <ele>491.85</ele>
        <time>2013-11-16T11:46:25Z</time>
      </trkpt>
      <trkpt lat="45.84243" lon="4.77745">
        <ele>492.33</ele>
        <time>2013-11-16T11:46:26Z</time>
      </trkpt>
      <trkpt lat="45.84234" lon="4.77751">
        <ele>490.89</ele>
        <time>2013-11-16T11:46:29Z</time>
      </trkpt>
      <trkpt lat="45.84232" lon="4.77751">
        <ele>490.89</ele>
        <time>2013-11-16T11:46:30Z</time>
      </trkpt>
      <trkpt lat="45.84228" lon="4.7775">
        <ele>489.45</ele>
        <time>2013-11-16T11:46:31Z</time>
      </trkpt>
      <trkpt lat="45.84223" lon="4.7775">
        <ele>488.49</ele>
        <time>2013-11-16T11:46:32Z</time>
      </trkpt>
      <trkpt lat="45.84217" lon="4.7775">
        <ele>488.01</ele>
        <time>2013-11-16T11:46:33Z</time>
      </trkpt>
      <trkpt lat="45.84212" lon="4.7775">
        <ele>487.53</ele>
        <time>2013-11-16T11:46:34Z</time>
      </trkpt>
      <trkpt lat="45.84206" lon="4.77752">
        <ele>486.08</ele>
        <time>2013-11-16T11:46:35Z</time>
      </trkpt>
      <trkpt lat="45.84202" lon="4.77753">
        <ele>485.6</ele>
        <time>2013-11-16T11:46:36Z</time>
      </trkpt>
      <trkpt lat="45.84198" lon="4.77754">
        <ele>485.12</ele>
        <time>2013-11-16T11:46:37Z</time>
      </trkpt>
      <trkpt lat="45.84193" lon="4.77754">
        <ele>484.16</ele>
        <time>2013-11-16T11:46:38Z</time>
      </trkpt>
      <trkpt lat="45.84182" lon="4.77757">
        <ele>482.72</ele>
        <time>2013-11-16T11:46:40Z</time>
      </trkpt>
      <trkpt lat="45.84162" lon="4.77762">
        <ele>479.35</ele>
        <time>2013-11-16T11:46:44Z</time>
      </trkpt>
      <trkpt lat="45.84159" lon="4.77765">
        <ele>478.87</ele>
        <time>2013-11-16T11:46:45Z</time>
      </trkpt>
      <trkpt lat="45.84155" lon="4.77769">
        <ele>477.91</ele>
        <time>2013-11-16T11:46:46Z</time>
      </trkpt>
      <trkpt lat="45.84147" lon="4.77778">
        <ele>475.99</ele>
        <time>2013-11-16T11:46:48Z</time>
      </trkpt>
      <trkpt lat="45.84143" lon="4.7778">
        <ele>475.51</ele>
        <time>2013-11-16T11:46:49Z</time>
      </trkpt>
      <trkpt lat="45.84139" lon="4.77782">
        <ele>474.55</ele>
        <time>2013-11-16T11:46:50Z</time>
      </trkpt>
      <trkpt lat="45.84136" lon="4.77783">
        <ele>473.59</ele>
        <time>2013-11-16T11:46:51Z</time>
      </trkpt>
      <trkpt lat="45.84132" lon="4.77784">
        <ele>474.07</ele>
        <time>2013-11-16T11:46:52Z</time>
      </trkpt>
      <trkpt lat="45.84129" lon="4.77784">
        <ele>473.59</ele>
        <time>2013-11-16T11:46:53Z</time>
      </trkpt>
      <trkpt lat="45.84124" lon="4.77784">
        <ele>473.11</ele>
        <time>2013-11-16T11:46:54Z</time>
      </trkpt>
      <trkpt lat="45.84108" lon="4.77784">
        <ele>470.22</ele>
        <time>2013-11-16T11:46:57Z</time>
      </trkpt>
      <trkpt lat="45.84094" lon="4.77782">
        <ele>469.26</ele>
        <time>2013-11-16T11:47:00Z</time>
      </trkpt>
      <trkpt lat="45.8409" lon="4.77781">
        <ele>468.3</ele>
        <time>2013-11-16T11:47:01Z</time>
      </trkpt>
      <trkpt lat="45.84088" lon="4.7778">
        <ele>468.3</ele>
        <time>2013-11-16T11:47:02Z</time>
      </trkpt>
      <trkpt lat="45.84087" lon="4.7778">
        <ele>468.3</ele>
        <time>2013-11-16T11:47:12Z</time>
      </trkpt>
      <trkpt lat="45.84083" lon="4.77778">
        <ele>468.3</ele>
        <time>2013-11-16T11:47:27Z</time>
      </trkpt>
      <trkpt lat="45.84082" lon="4.77777">
        <ele>468.3</ele>
        <time>2013-11-16T11:47:28Z</time>
      </trkpt>
      <trkpt lat="45.84078" lon="4.77775">
        <ele>468.3</ele>
        <time>2013-11-16T11:47:31Z</time>
      </trkpt>
      <trkpt lat="45.84075" lon="4.77777">
        <ele>468.3</ele>
        <time>2013-11-16T11:47:32Z</time>
      </trkpt>
      <trkpt lat="45.84073" lon="4.77779">
        <ele>466.86</ele>
        <time>2013-11-16T11:47:33Z</time>
      </trkpt>
      <trkpt lat="45.84071" lon="4.77782">
        <ele>465.9</ele>
        <time>2013-11-16T11:47:34Z</time>
      </trkpt>
      <trkpt lat="45.84068" lon="4.77786">
        <ele>464.45</ele>
        <time>2013-11-16T11:47:35Z</time>
      </trkpt>
      <trkpt lat="45.84063" lon="4.7779">
        <ele>462.53</ele>
        <time>2013-11-16T11:47:36Z</time>
      </trkpt>
      <trkpt lat="45.84057" lon="4.77793">
        <ele>461.09</ele>
        <time>2013-11-16T11:47:37Z</time>
      </trkpt>
      <trkpt lat="45.8405" lon="4.77796">
        <ele>459.65</ele>
        <time>2013-11-16T11:47:38Z</time>
      </trkpt>
      <trkpt lat="45.84031" lon="4.77802">
        <ele>457.24</ele>
        <time>2013-11-16T11:47:41Z</time>
      </trkpt>
      <trkpt lat="45.83989" lon="4.77799">
        <ele>453.88</ele>
        <time>2013-11-16T11:47:46Z</time>
      </trkpt>
      <trkpt lat="45.83935" lon="4.77801">
        <ele>450.52</ele>
        <time>2013-11-16T11:47:51Z</time>
      </trkpt>
      <trkpt lat="45.83901" lon="4.778">
        <ele>447.15</ele>
        <time>2013-11-16T11:47:54Z</time>
      </trkpt>
      <trkpt lat="45.8389" lon="4.77801">
        <ele>447.15</ele>
        <time>2013-11-16T11:47:55Z</time>
      </trkpt>
      <trkpt lat="45.83867" lon="4.77799">
        <ele>444.27</ele>
        <time>2013-11-16T11:47:57Z</time>
      </trkpt>
      <trkpt lat="45.83855" lon="4.77795">
        <ele>443.79</ele>
        <time>2013-11-16T11:47:58Z</time>
      </trkpt>
      <trkpt lat="45.83845" lon="4.77788">
        <ele>442.34</ele>
        <time>2013-11-16T11:47:59Z</time>
      </trkpt>
      <trkpt lat="45.83836" lon="4.77778">
        <ele>441.38</ele>
        <time>2013-11-16T11:48:00Z</time>
      </trkpt>
      <trkpt lat="45.83828" lon="4.77766">
        <ele>440.42</ele>
        <time>2013-11-16T11:48:01Z</time>
      </trkpt>
      <trkpt lat="45.83822" lon="4.77753">
        <ele>439.46</ele>
        <time>2013-11-16T11:48:02Z</time>
      </trkpt>
      <trkpt lat="45.83817" lon="4.77739">
        <ele>438.98</ele>
        <time>2013-11-16T11:48:03Z</time>
      </trkpt>
      <trkpt lat="45.83813" lon="4.77724">
        <ele>437.54</ele>
        <time>2013-11-16T11:48:04Z</time>
      </trkpt>
      <trkpt lat="45.83798" lon="4.7766">
        <ele>433.69</ele>
        <time>2013-11-16T11:48:08Z</time>
      </trkpt>
      <trkpt lat="45.83786" lon="4.77611">
        <ele>430.33</ele>
        <time>2013-11-16T11:48:11Z</time>
      </trkpt>
      <trkpt lat="45.83779" lon="4.7758">
        <ele>428.4</ele>
        <time>2013-11-16T11:48:13Z</time>
      </trkpt>
      <trkpt lat="45.83777" lon="4.77565">
        <ele>427.44</ele>
        <time>2013-11-16T11:48:14Z</time>
      </trkpt>
      <trkpt lat="45.83775" lon="4.7755">
        <ele>426</ele>
        <time>2013-11-16T11:48:15Z</time>
      </trkpt>
      <trkpt lat="45.83772" lon="4.77513">
        <ele>424.56</ele>
        <time>2013-11-16T11:48:18Z</time>
      </trkpt>
      <trkpt lat="45.83769" lon="4.77503">
        <ele>423.12</ele>
        <time>2013-11-16T11:48:19Z</time>
      </trkpt>
      <trkpt lat="45.83765" lon="4.77495">
        <ele>422.64</ele>
        <time>2013-11-16T11:48:20Z</time>
      </trkpt>
      <trkpt lat="45.83761" lon="4.77488">
        <ele>422.16</ele>
        <time>2013-11-16T11:48:21Z</time>
      </trkpt>
      <trkpt lat="45.83758" lon="4.77482">
        <ele>421.68</ele>
        <time>2013-11-16T11:48:22Z</time>
      </trkpt>
      <trkpt lat="45.83755" lon="4.77475">
        <ele>420.71</ele>
        <time>2013-11-16T11:48:23Z</time>
      </trkpt>
      <trkpt lat="45.83754" lon="4.77467">
        <ele>420.71</ele>
        <time>2013-11-16T11:48:24Z</time>
      </trkpt>
      <trkpt lat="45.83754" lon="4.77458">
        <ele>420.71</ele>
        <time>2013-11-16T11:48:25Z</time>
      </trkpt>
      <trkpt lat="45.83755" lon="4.77448">
        <ele>419.75</ele>
        <time>2013-11-16T11:48:26Z</time>
      </trkpt>
      <trkpt lat="45.83758" lon="4.7744">
        <ele>419.27</ele>
        <time>2013-11-16T11:48:27Z</time>
      </trkpt>
      <trkpt lat="45.83761" lon="4.77432">
        <ele>418.79</ele>
        <time>2013-11-16T11:48:28Z</time>
      </trkpt>
      <trkpt lat="45.83764" lon="4.77425">
        <ele>418.31</ele>
        <time>2013-11-16T11:48:29Z</time>
      </trkpt>
      <trkpt lat="45.83768" lon="4.77419">
        <ele>417.83</ele>
        <time>2013-11-16T11:48:30Z</time>
      </trkpt>
      <trkpt lat="45.83772" lon="4.77413">
        <ele>417.35</ele>
        <time>2013-11-16T11:48:31Z</time>
      </trkpt>
      <trkpt lat="45.83804" lon="4.77367">
        <ele>415.91</ele>
        <time>2013-11-16T11:48:39Z</time>
      </trkpt>
      <trkpt lat="45.83807" lon="4.77362">
        <ele>415.43</ele>
        <time>2013-11-16T11:48:40Z</time>
      </trkpt>
      <trkpt lat="45.83811" lon="4.77358">
        <ele>415.43</ele>
        <time>2013-11-16T11:48:41Z</time>
      </trkpt>
      <trkpt lat="45.83814" lon="4.77353">
        <ele>415.91</ele>
        <time>2013-11-16T11:48:42Z</time>
      </trkpt>
      <trkpt lat="45.83817" lon="4.77348">
        <ele>415.43</ele>
        <time>2013-11-16T11:48:43Z</time>
      </trkpt>
      <trkpt lat="45.83819" lon="4.77343">
        <ele>414.95</ele>
        <time>2013-11-16T11:48:44Z</time>
      </trkpt>
      <trkpt lat="45.8382" lon="4.77338">
        <ele>414.47</ele>
        <time>2013-11-16T11:48:45Z</time>
      </trkpt>
      <trkpt lat="45.83819" lon="4.77331">
        <ele>415.43</ele>
        <time>2013-11-16T11:48:46Z</time>
      </trkpt>
      <trkpt lat="45.83817" lon="4.77325">
        <ele>414.47</ele>
        <time>2013-11-16T11:48:47Z</time>
      </trkpt>
      <trkpt lat="45.83813" lon="4.77319">
        <ele>414.47</ele>
        <time>2013-11-16T11:48:48Z</time>
      </trkpt>
      <trkpt lat="45.83809" lon="4.77312">
        <ele>413.98</ele>
        <time>2013-11-16T11:48:49Z</time>
      </trkpt>
      <trkpt lat="45.838" lon="4.773">
        <ele>413.5</ele>
        <time>2013-11-16T11:48:51Z</time>
      </trkpt>
      <trkpt lat="45.83797" lon="4.77293">
        <ele>412.54</ele>
        <time>2013-11-16T11:48:52Z</time>
      </trkpt>
      <trkpt lat="45.83793" lon="4.77285">
        <ele>412.54</ele>
        <time>2013-11-16T11:48:53Z</time>
      </trkpt>
      <trkpt lat="45.83781" lon="4.77254">
        <ele>408.7</ele>
        <time>2013-11-16T11:48:57Z</time>
      </trkpt>
      <trkpt lat="45.83779" lon="4.77247">
        <ele>409.18</ele>
        <time>2013-11-16T11:48:58Z</time>
      </trkpt>
      <trkpt lat="45.83776" lon="4.77239">
        <ele>408.22</ele>
        <time>2013-11-16T11:48:59Z</time>
      </trkpt>
      <trkpt lat="45.83774" lon="4.7723">
        <ele>407.26</ele>
        <time>2013-11-16T11:49:00Z</time>
      </trkpt>
      <trkpt lat="45.83772" lon="4.77221">
        <ele>407.26</ele>
        <time>2013-11-16T11:49:01Z</time>
      </trkpt>
      <trkpt lat="45.83769" lon="4.77195">
        <ele>404.37</ele>
        <time>2013-11-16T11:49:04Z</time>
      </trkpt>
      <trkpt lat="45.83771" lon="4.77189">
        <ele>403.41</ele>
        <time>2013-11-16T11:49:05Z</time>
      </trkpt>
      <trkpt lat="45.83773" lon="4.77185">
        <ele>403.41</ele>
        <time>2013-11-16T11:49:06Z</time>
      </trkpt>
      <trkpt lat="45.83774" lon="4.77182">
        <ele>402.45</ele>
        <time>2013-11-16T11:49:07Z</time>
      </trkpt>
      <trkpt lat="45.83775" lon="4.77181">
        <ele>401.97</ele>
        <time>2013-11-16T11:49:08Z</time>
      </trkpt>
      <trkpt lat="45.83775" lon="4.77181">
        <ele>406.77</ele>
        <time>2013-11-16T11:49:12Z</time>
      </trkpt>
      <trkpt lat="45.83775" lon="4.77181">
        <ele>401.97</ele>
        <time>2013-11-16T11:49:13Z</time>
      </trkpt>
      <trkpt lat="45.83775" lon="4.77181">
        <ele>402.93</ele>
        <time>2013-11-16T11:49:29Z</time>
      </trkpt>
      <trkpt lat="45.83775" lon="4.7718">
        <ele>402.93</ele>
        <time>2013-11-16T11:49:42Z</time>
      </trkpt>
      <trkpt lat="45.83775" lon="4.77179">
        <ele>402.45</ele>
        <time>2013-11-16T11:49:58Z</time>
      </trkpt>
      <trkpt lat="45.83772" lon="4.77177">
        <ele>402.45</ele>
        <time>2013-11-16T11:50:01Z</time>
      </trkpt>
      <trkpt lat="45.83771" lon="4.77176">
        <ele>402.45</ele>
        <time>2013-11-16T11:50:02Z</time>
      </trkpt>
      <trkpt lat="45.83769" lon="4.77176">
        <ele>402.45</ele>
        <time>2013-11-16T11:50:03Z</time>
      </trkpt>
      <trkpt lat="45.83766" lon="4.77177">
        <ele>401.97</ele>
        <time>2013-11-16T11:50:04Z</time>
      </trkpt>
      <trkpt lat="45.83764" lon="4.77177">
        <ele>401.49</ele>
        <time>2013-11-16T11:50:05Z</time>
      </trkpt>
      <trkpt lat="45.83761" lon="4.77176">
        <ele>402.93</ele>
        <time>2013-11-16T11:50:06Z</time>
      </trkpt>
      <trkpt lat="45.83758" lon="4.77175">
        <ele>401.97</ele>
        <time>2013-11-16T11:50:07Z</time>
      </trkpt>
      <trkpt lat="45.83755" lon="4.77173">
        <ele>401.97</ele>
        <time>2013-11-16T11:50:08Z</time>
      </trkpt>
      <trkpt lat="45.83716" lon="4.77155">
        <ele>400.05</ele>
        <time>2013-11-16T11:50:16Z</time>
      </trkpt>
      <trkpt lat="45.8371" lon="4.77153">
        <ele>399.08</ele>
        <time>2013-11-16T11:50:17Z</time>
      </trkpt>
      <trkpt lat="45.83704" lon="4.77152">
        <ele>398.6</ele>
        <time>2013-11-16T11:50:18Z</time>
      </trkpt>
      <trkpt lat="45.83676" lon="4.77148">
        <ele>395.24</ele>
        <time>2013-11-16T11:50:23Z</time>
      </trkpt>
      <trkpt lat="45.83671" lon="4.77147">
        <ele>394.76</ele>
        <time>2013-11-16T11:50:24Z</time>
      </trkpt>
      <trkpt lat="45.83666" lon="4.77147">
        <ele>394.28</ele>
        <time>2013-11-16T11:50:25Z</time>
      </trkpt>
      <trkpt lat="45.83661" lon="4.77147">
        <ele>393.8</ele>
        <time>2013-11-16T11:50:26Z</time>
      </trkpt>
      <trkpt lat="45.83656" lon="4.77145">
        <ele>393.8</ele>
        <time>2013-11-16T11:50:27Z</time>
      </trkpt>
      <trkpt lat="45.8365" lon="4.77143">
        <ele>393.32</ele>
        <time>2013-11-16T11:50:28Z</time>
      </trkpt>
      <trkpt lat="45.83644" lon="4.77142">
        <ele>393.32</ele>
        <time>2013-11-16T11:50:29Z</time>
      </trkpt>
      <trkpt lat="45.83638" lon="4.77143">
        <ele>392.36</ele>
        <time>2013-11-16T11:50:30Z</time>
      </trkpt>
      <trkpt lat="45.83631" lon="4.77143">
        <ele>392.36</ele>
        <time>2013-11-16T11:50:31Z</time>
      </trkpt>
      <trkpt lat="45.83593" lon="4.77143">
        <ele>388.99</ele>
        <time>2013-11-16T11:50:36Z</time>
      </trkpt>
      <trkpt lat="45.83571" lon="4.77143">
        <ele>388.03</ele>
        <time>2013-11-16T11:50:39Z</time>
      </trkpt>
      <trkpt lat="45.83566" lon="4.77144">
        <ele>387.55</ele>
        <time>2013-11-16T11:50:40Z</time>
      </trkpt>
      <trkpt lat="45.83562" lon="4.77148">
        <ele>387.07</ele>
        <time>2013-11-16T11:50:41Z</time>
      </trkpt>
      <trkpt lat="45.83557" lon="4.7715">
        <ele>386.59</ele>
        <time>2013-11-16T11:50:42Z</time>
      </trkpt>
      <trkpt lat="45.83552" lon="4.77151">
        <ele>386.59</ele>
        <time>2013-11-16T11:50:43Z</time>
      </trkpt>
      <trkpt lat="45.83547" lon="4.77151">
        <ele>385.15</ele>
        <time>2013-11-16T11:50:44Z</time>
      </trkpt>
      <trkpt lat="45.83546" lon="4.7715">
        <ele>386.11</ele>
        <time>2013-11-16T11:50:48Z</time>
      </trkpt>
      <trkpt lat="45.83545" lon="4.7715">
        <ele>386.11</ele>
        <time>2013-11-16T11:50:57Z</time>
      </trkpt>
      <trkpt lat="45.83546" lon="4.77151">
        <ele>386.11</ele>
        <time>2013-11-16T11:51:04Z</time>
      </trkpt>
      <trkpt lat="45.83546" lon="4.77151">
        <ele>385.63</ele>
        <time>2013-11-16T11:51:28Z</time>
      </trkpt>
      <trkpt lat="45.83546" lon="4.77151">
        <ele>386.59</ele>
        <time>2013-11-16T11:51:50Z</time>
      </trkpt>
      <trkpt lat="45.83546" lon="4.77151">
        <ele>386.11</ele>
        <time>2013-11-16T11:52:19Z</time>
      </trkpt>
      <trkpt lat="45.83546" lon="4.77151">
        <ele>386.11</ele>
        <time>2013-11-16T11:52:44Z</time>
      </trkpt>
      <trkpt lat="45.83546" lon="4.7715">
        <ele>386.59</ele>
        <time>2013-11-16T11:53:10Z</time>
      </trkpt>
      <trkpt lat="45.83546" lon="4.7715">
        <ele>387.07</ele>
        <time>2013-11-16T11:53:40Z</time>
      </trkpt>
      <trkpt lat="45.83546" lon="4.7715">
        <ele>386.59</ele>
        <time>2013-11-16T11:54:01Z</time>
      </trkpt>
      <trkpt lat="45.83546" lon="4.7715">
        <ele>387.07</ele>
        <time>2013-11-16T11:54:13Z</time>
      </trkpt>
      <trkpt lat="45.83545" lon="4.77151">
        <ele>383.22</ele>
        <time>2013-11-16T11:54:24Z</time>
      </trkpt>
      <trkpt lat="45.83545" lon="4.77151">
        <ele>387.07</ele>
        <time>2013-11-16T11:54:25Z</time>
      </trkpt>
      <trkpt lat="45.83545" lon="4.77151">
        <ele>388.51</ele>
        <time>2013-11-16T11:54:32Z</time>
      </trkpt>
      <trkpt lat="45.83545" lon="4.77151">
        <ele>382.74</ele>
        <time>2013-11-16T11:54:33Z</time>
      </trkpt>
      <trkpt lat="45.83545" lon="4.77151">
        <ele>388.03</ele>
        <time>2013-11-16T11:54:34Z</time>
      </trkpt>
    </trkseg>
  </trk>
</gpx>